ECMWFFLT1_850_thetae_039.txt.gz
Theta_e
338 340 340 341 343 343 344 344 344 344 344 344 345 345 346 346 347 347 347 348 348 348 349 349 349 350 349 349 349 350 349 348 347 346 345 344 342 339 336 335 336 338 340 340 340 341 340 340 341 341 340 340 339 339 338 337 336 337 338 333 324 319 320
338 339 339 340 342 343 343 343 343 344 344 344 345 345 346 346 346 347 347 348 348 348 349 349 349 349 349 349 349 350 350 349 349 347 345 344 342 340 337 336 337 339 340 340 340 341 341 341 341 340 339 338 338 338 337 336 336 337 338 332 322 318 319
339 339 339 339 341 342 343 343 343 344 344 344 345 345 346 346 346 347 347 348 348 349 349 349 350 350 349 349 349 349 350 350 349 348 347 345 342 340 338 337 337 339 340 341 340 340 341 341 341 341 340 338 337 337 336 336 336 337 337 335 328 321 319
340 340 340 339 340 341 342 343 343 344 344 344 345 345 345 346 346 347 347 348 349 349 350 349 350 350 349 350 350 349 350 350 349 349 348 346 343 340 339 338 337 338 340 341 341 341 341 342 343 342 342 340 338 336 335 335 336 337 337 337 334 328 321
341 341 341 340 340 341 341 342 343 344 344 344 345 345 345 346 346 347 348 348 348 349 349 349 349 350 350 349 349 349 349 349 349 349 348 348 345 342 340 338 337 337 338 340 341 342 342 342 343 343 342 341 339 337 336 336 336 337 337 337 336 332 325
341 342 342 341 341 341 341 342 343 343 344 344 344 345 345 346 347 347 348 348 349 349 349 350 350 350 350 350 350 349 349 349 349 349 349 348 347 344 340 337 337 337 337 338 340 342 342 342 343 343 343 342 340 339 337 336 336 337 338 337 336 333 327
341 342 342 342 342 342 341 342 342 342 343 343 344 345 345 346 347 347 348 348 349 350 350 350 350 350 350 350 350 350 350 349 349 349 349 349 348 347 341 336 336 336 337 338 339 342 343 343 343 343 343 342 341 340 338 337 336 337 338 338 337 335 330
340 342 342 343 343 343 342 342 342 342 343 344 344 345 346 346 347 347 348 349 349 350 350 350 350 350 351 350 351 350 350 350 349 349 349 349 349 348 344 338 336 336 337 338 339 341 343 343 343 343 343 343 341 341 340 338 336 337 338 338 339 338 335
341 341 341 343 343 344 344 343 343 343 343 344 344 346 346 346 347 347 347 348 349 350 350 350 350 350 350 351 350 350 350 350 350 349 350 350 349 349 346 341 337 336 337 338 339 341 342 343 343 343 343 343 342 342 341 340 338 337 338 340 340 340 338
341 340 341 343 342 344 344 344 344 344 343 344 344 345 346 346 347 347 347 348 349 349 349 350 350 350 351 351 350 350 351 350 350 350 350 350 350 349 346 343 339 336 337 338 339 341 342 343 343 343 343 342 342 342 341 340 340 339 339 340 341 340 339
340 340 340 342 342 343 344 344 345 345 344 345 345 345 346 346 347 347 348 349 348 348 349 349 350 351 350 351 350 351 351 350 351 351 351 351 351 349 347 344 341 337 336 338 339 341 342 342 343 344 343 342 342 342 341 340 340 340 339 340 341 341 340
338 340 341 341 342 343 343 344 345 345 346 345 345 346 346 346 347 347 348 349 348 349 349 350 350 351 351 351 351 351 351 351 351 351 352 352 351 350 349 347 343 338 337 337 339 341 342 342 342 343 342 342 342 342 342 342 341 341 340 340 341 342 341
337 339 339 341 342 342 343 344 345 345 346 346 346 346 346 346 347 348 348 348 349 349 350 350 350 351 351 351 351 351 351 351 352 352 352 352 352 351 350 348 345 340 337 337 339 340 341 341 342 342 342 342 342 342 342 343 343 343 342 341 341 342 342
338 338 339 341 341 342 343 343 344 345 345 346 346 346 347 347 347 347 348 348 348 350 350 351 351 351 352 352 352 352 352 351 352 352 352 352 352 352 351 350 346 341 338 338 338 339 340 340 341 342 342 342 342 342 342 343 344 344 343 343 343 343 343
337 337 339 340 341 342 343 342 344 345 345 346 346 346 347 347 348 348 349 349 349 350 350 351 351 351 352 352 353 352 352 352 352 353 353 353 353 353 352 351 348 344 341 339 337 338 339 339 340 342 342 342 342 342 342 342 343 343 344 344 344 344 344
336 337 338 340 341 341 342 342 343 343 345 346 345 347 347 347 348 349 349 349 350 350 351 352 352 352 352 352 352 352 353 353 353 352 353 353 353 353 353 352 350 348 344 339 336 337 338 339 340 341 342 342 342 342 342 342 343 343 344 345 345 345 345
335 336 338 340 341 342 342 343 343 343 344 345 345 346 347 347 348 349 349 350 349 350 350 352 352 352 352 352 352 353 353 354 353 353 354 354 354 354 354 353 352 350 346 341 338 336 337 338 339 340 342 343 343 343 342 343 343 344 345 346 347 347 346
334 335 338 340 341 342 342 343 343 343 344 344 345 346 346 347 348 348 350 350 350 350 351 351 353 352 352 352 352 353 354 354 354 354 354 354 354 354 354 354 353 351 348 344 339 336 336 337 338 339 341 343 344 343 343 343 344 345 346 347 347 347 347
335 335 337 340 341 342 343 343 343 344 344 344 345 345 346 347 347 348 349 349 349 350 351 352 352 352 352 352 353 353 354 354 355 355 354 355 355 355 355 355 354 352 349 345 341 338 337 337 337 339 340 343 344 343 343 343 344 345 347 347 347 347 348
339 339 337 339 341 342 343 343 343 343 344 344 345 345 346 346 347 346 347 349 350 351 351 352 352 353 353 352 353 354 354 355 355 354 354 355 356 356 356 355 353 351 348 346 345 342 338 336 337 338 340 341 342 342 342 343 344 345 347 347 348 348 349
342 342 339 339 340 341 342 343 344 344 345 345 345 345 346 346 346 347 347 349 351 351 351 352 352 352 353 352 353 353 354 355 355 354 355 356 357 357 356 355 354 352 349 349 346 342 339 338 337 338 339 340 341 342 343 343 344 346 347 348 348 349 351
341 342 342 341 340 341 342 341 342 342 342 343 345 345 346 346 346 346 347 349 350 350 350 351 351 352 352 353 354 353 354 355 355 355 356 357 357 357 356 355 355 353 351 350 346 344 343 342 340 339 340 340 341 343 344 344 345 346 348 349 349 350 353
340 341 343 344 342 342 342 342 342 343 342 342 344 344 345 346 345 346 348 349 350 350 351 351 351 352 352 353 354 354 354 355 356 356 357 357 358 357 356 356 355 354 353 351 348 346 345 343 342 341 341 341 342 343 344 344 345 347 349 350 351 352 354
342 342 342 342 343 344 344 343 343 344 343 344 345 345 345 345 346 347 348 349 350 350 351 352 352 352 352 352 353 353 354 355 357 357 357 357 358 357 357 357 356 355 354 352 348 345 344 344 344 342 341 341 342 342 343 344 345 348 350 351 352 354 354
345 345 343 341 341 341 342 344 345 346 346 346 346 346 347 347 347 348 349 350 351 351 351 351 351 351 351 352 352 354 355 356 357 357 357 357 357 357 358 357 357 357 356 354 350 347 346 346 345 343 342 342 341 342 344 346 348 349 351 353 354 356 355
342 342 342 341 340 339 338 339 341 343 347 348 348 348 347 347 348 348 349 350 351 352 351 348 348 349 351 352 354 355 355 356 357 357 357 357 357 358 358 358 358 358 357 355 353 352 350 349 348 347 345 343 343 343 346 348 350 352 353 355 356 358 357
343 341 340 338 337 338 337 336 336 339 342 345 348 349 349 348 348 348 349 349 350 351 348 343 342 345 348 353 354 355 356 356 357 357 357 357 358 358 359 359 358 358 357 357 356 355 353 352 351 350 349 346 346 347 348 351 352 353 356 357 359 359 359
345 344 343 341 340 338 337 336 336 337 338 340 342 345 348 351 351 350 350 350 350 350 348 345 346 347 351 354 355 355 356 356 357 357 357 358 358 359 359 359 359 358 357 357 357 356 355 354 353 353 352 350 350 351 352 353 354 356 358 359 360 360 359
348 347 345 344 344 343 342 341 338 337 337 336 336 338 341 344 347 350 352 352 350 349 349 349 349 351 354 357 357 357 357 356 356 357 358 358 359 359 360 360 359 359 358 358 358 358 357 356 355 355 354 354 354 354 355 356 357 359 360 360 360 359 357
351 351 349 346 343 344 346 347 345 343 341 339 337 336 336 337 339 342 345 347 347 351 354 353 352 353 354 355 356 357 357 357 357 357 357 358 358 359 360 360 360 360 359 358 358 359 358 357 356 355 355 356 356 357 357 358 359 361 361 360 359 357 355
348 349 351 350 349 349 349 350 350 349 348 345 342 339 338 339 340 342 343 343 348 354 357 358 357 356 354 354 353 354 355 356 357 357 358 358 359 360 360 360 360 360 360 359 359 358 359 358 357 356 356 357 358 359 359 360 361 361 360 359 357 355 353
348 348 349 349 350 351 351 351 352 351 350 349 347 344 343 343 344 345 345 345 350 354 356 358 360 359 357 357 356 355 356 358 358 358 358 358 359 360 360 360 361 360 360 360 359 359 359 358 358 358 358 359 360 360 361 361 361 360 359 357 355 353 350
347 348 349 349 350 350 350 351 352 352 351 350 349 347 346 344 343 344 344 345 347 350 352 354 356 355 355 357 359 359 360 360 359 359 359 359 360 361 361 361 361 360 360 360 359 359 359 359 359 359 360 360 361 361 361 361 360 359 358 355 351 349 347
345 346 348 349 351 351 351 352 352 352 353 352 352 351 349 348 346 345 345 344 344 344 348 352 356 357 355 356 359 361 362 361 361 360 359 360 360 361 362 362 361 361 361 360 359 360 359 359 360 360 360 361 361 361 361 360 359 358 355 350 346 345 344
344 345 346 349 350 350 351 351 351 352 352 352 353 353 352 352 351 350 351 351 350 351 353 357 361 363 363 361 362 363 363 362 362 361 360 360 361 361 362 362 362 361 361 361 360 360 358 359 360 360 361 361 361 361 360 359 357 355 351 346 343 342 342
342 343 345 347 348 349 349 350 349 350 351 351 352 352 352 351 351 351 353 354 354 356 358 360 361 362 363 364 363 363 363 363 362 361 361 361 361 361 362 362 362 362 361 361 360 359 360 359 359 360 361 361 361 361 359 355 352 349 345 342 341 340 339
342 342 343 344 345 346 346 347 347 348 348 349 349 349 350 350 349 349 349 350 350 352 356 360 363 363 363 363 363 363 364 363 363 362 362 362 362 362 363 363 363 362 361 360 360 359 360 361 360 361 361 361 360 358 353 348 345 343 341 340 339 338 338
344 344 343 343 344 344 344 345 345 345 345 346 346 346 347 347 346 347 347 347 347 348 350 355 360 361 360 361 362 364 365 364 364 363 362 362 363 363 363 363 361 359 358 358 358 359 360 359 359 360 358 356 353 349 345 342 341 340 339 338 337 337 337

ECMWFFLT1_850_thetae_042.txt.gz
Theta_e
341 343 344 345 345 346 346 347 346 346 346 345 345 344 345 346 346 346 346 347 347 347 346 346 347 347 347 348 347 347 347 348 348 346 344 342 340 339 338 336 336 336 335 336 336 335 335 335 338 340 341 342 342 343 343 342 342 341 338 337 336 335 333
339 341 343 343 345 345 345 346 346 346 345 345 345 344 345 345 345 346 345 345 345 345 345 346 346 346 346 346 347 347 348 348 348 348 347 345 344 341 339 337 336 335 335 335 335 335 334 335 338 340 341 342 342 342 342 341 340 340 338 336 336 335 331
338 339 341 342 343 343 344 345 345 346 346 345 345 344 345 344 344 344 343 344 344 344 345 346 345 346 345 346 346 347 348 348 348 348 347 347 346 344 342 339 337 335 335 335 335 335 335 335 338 340 341 342 342 342 341 339 338 338 338 336 336 336 331
337 338 339 340 342 342 343 344 344 345 345 344 344 344 343 343 343 344 344 344 344 344 345 345 345 346 346 346 347 347 348 348 348 348 348 347 347 346 345 343 341 338 335 334 334 334 335 336 338 340 341 342 342 341 341 339 338 337 337 336 336 336 334
337 337 338 338 340 341 342 342 343 344 344 344 344 343 343 343 343 344 344 344 344 344 343 344 344 345 346 346 346 346 347 347 348 348 348 348 347 347 347 346 344 341 337 333 333 334 335 337 339 340 341 342 342 342 341 340 338 337 336 336 335 336 336
338 338 337 337 338 339 340 341 342 343 342 343 343 343 343 343 344 344 344 344 344 344 344 345 346 345 345 346 345 346 347 347 348 348 348 348 348 348 347 347 346 344 341 336 333 333 333 335 338 339 341 341 342 342 343 342 340 337 335 335 336 336 336
339 339 338 338 338 338 339 340 341 341 341 342 342 343 343 343 344 344 344 344 344 344 345 346 346 345 345 346 346 347 347 348 348 349 349 349 348 348 348 347 347 346 345 342 336 333 333 334 336 338 340 341 342 342 343 343 341 338 336 335 335 336 336
338 339 339 339 339 338 338 338 340 340 341 342 342 343 343 343 343 343 344 344 344 344 345 345 345 345 345 346 346 347 347 348 349 348 349 349 348 349 348 348 348 347 347 345 340 335 333 333 334 336 339 340 341 342 342 343 342 340 338 336 335 335 336
339 339 339 340 339 339 339 338 339 340 340 341 341 342 343 343 343 344 343 344 344 345 345 345 345 345 346 346 346 347 347 348 348 348 349 349 348 349 349 349 348 348 347 346 343 338 333 333 334 335 337 339 341 342 342 343 342 341 340 338 337 336 335
338 338 338 339 339 340 339 338 339 339 339 341 341 342 343 343 343 343 343 344 344 344 344 345 346 346 346 347 346 347 348 348 349 349 349 349 349 349 349 349 349 348 348 347 346 342 335 333 334 335 337 338 340 342 342 342 342 342 341 340 338 337 336
336 337 337 339 339 340 340 339 340 339 339 340 340 342 342 343 343 343 343 344 344 344 344 345 346 346 347 347 347 348 348 349 349 349 349 349 349 350 349 349 349 348 348 348 347 345 339 334 333 335 336 338 339 341 342 342 342 342 342 340 339 339 337
334 336 336 337 338 339 340 340 341 340 340 340 340 341 342 342 343 343 343 344 344 344 345 345 346 347 347 347 348 348 349 349 349 349 349 349 349 350 350 349 349 349 349 349 348 347 342 336 334 334 336 338 339 340 341 341 342 341 341 341 340 339 339
333 334 334 336 338 338 339 340 341 341 341 341 340 340 342 341 342 343 343 343 344 344 345 345 346 347 347 348 348 348 348 348 349 349 349 349 349 350 350 349 350 349 349 349 348 348 344 338 334 334 336 337 339 340 340 340 341 341 341 341 341 341 340
331 331 331 334 335 337 339 339 340 341 341 342 341 341 341 342 342 343 343 343 344 345 345 346 346 347 348 348 348 348 348 348 349 349 349 349 349 349 349 350 350 349 349 349 349 348 344 339 335 334 335 337 338 339 339 339 340 341 341 340 341 341 341
328 327 328 331 333 336 338 338 340 341 341 342 342 342 342 342 342 343 343 343 344 345 345 345 346 347 347 348 348 347 348 348 349 349 349 350 350 349 350 350 350 349 350 350 349 347 344 341 337 335 335 336 337 338 338 339 339 340 340 340 340 340 340
327 328 328 329 331 334 336 338 339 340 341 342 342 343 343 342 342 343 343 344 344 344 345 346 346 347 347 348 347 347 348 349 350 350 350 350 350 349 350 350 350 350 350 350 350 347 345 343 339 336 335 335 337 338 338 338 338 339 339 340 339 339 340
329 330 329 329 331 333 335 337 339 340 341 342 342 343 343 343 343 343 343 344 344 344 345 346 346 347 347 347 347 347 348 349 350 350 350 349 350 349 350 350 350 350 350 351 350 349 346 344 340 336 334 334 336 337 337 337 337 338 339 339 339 340 340
330 329 329 330 330 332 334 336 338 340 340 341 342 343 343 343 344 344 344 344 344 344 345 346 346 346 347 347 347 348 349 349 349 350 350 349 350 349 350 350 350 350 351 351 351 350 348 344 340 336 335 334 335 335 336 336 336 337 338 339 340 340 340
328 328 328 330 331 332 334 335 336 338 339 340 342 342 342 343 343 344 344 344 345 345 346 346 346 346 347 347 348 348 349 349 349 350 350 350 350 350 350 350 350 350 350 351 351 350 348 344 339 337 335 334 333 334 334 335 335 336 337 338 339 340 341
328 329 327 330 334 334 335 335 336 337 339 339 340 341 342 343 343 344 344 344 345 345 346 346 346 347 347 348 348 349 349 350 350 350 350 350 351 351 350 350 351 351 350 351 351 351 348 344 340 337 335 334 333 333 333 334 334 335 336 337 338 340 342
332 334 333 335 338 338 338 337 336 337 339 339 340 341 342 342 343 343 344 345 346 346 346 346 346 347 348 348 349 350 349 350 350 350 351 352 352 352 351 351 352 351 351 351 352 352 350 345 341 338 335 334 333 333 333 333 333 334 335 335 337 340 342
337 338 338 340 341 341 339 338 337 339 340 340 341 341 341 342 343 344 345 345 346 346 346 347 347 348 348 348 349 350 350 350 351 352 352 353 353 353 352 352 352 352 352 352 352 352 352 349 345 341 337 335 334 333 332 332 333 333 334 335 337 341 343
342 341 341 342 343 343 342 339 338 339 341 341 341 341 342 342 342 344 345 345 346 347 347 347 348 348 348 348 349 350 350 351 352 352 353 353 354 353 353 353 353 353 353 353 353 353 354 353 351 347 343 339 336 333 333 332 332 333 333 335 338 342 344
345 345 344 343 343 343 342 342 341 340 341 341 342 342 343 343 343 343 344 345 346 346 347 348 348 348 348 349 349 350 351 351 352 353 353 353 353 353 353 353 354 354 354 353 353 354 354 354 354 352 349 344 339 335 334 333 333 333 333 336 340 342 344
347 346 345 344 344 343 342 343 344 343 343 342 342 343 343 343 343 344 344 346 347 347 347 347 347 347 348 348 349 350 350 351 352 353 354 354 354 353 354 354 354 354 354 353 354 354 354 355 355 354 353 350 345 341 338 335 334 333 335 338 341 343 344
346 345 344 343 343 342 341 341 342 345 346 345 345 345 345 344 345 344 345 346 347 347 347 346 346 347 347 348 350 351 351 352 352 352 353 353 353 353 354 354 355 355 354 354 354 354 355 355 355 355 355 354 351 349 344 341 338 336 337 341 342 343 345
346 345 344 344 343 343 342 341 341 343 344 345 346 346 347 347 347 346 346 346 346 347 346 346 347 348 349 350 351 351 351 351 352 352 351 350 351 352 353 354 354 354 354 354 354 355 355 356 356 356 355 355 354 353 350 346 343 340 341 343 343 344 347
348 347 347 347 345 343 342 342 342 341 341 341 343 345 347 349 349 348 348 346 346 347 346 347 348 349 349 350 350 350 351 351 352 352 352 352 352 353 353 353 354 354 355 355 355 355 355 356 356 356 356 356 355 355 353 351 349 346 345 345 346 347 350
347 345 344 344 344 345 346 345 344 344 343 343 343 343 345 347 349 351 350 349 349 349 348 349 349 350 350 351 351 351 351 351 351 352 353 353 353 353 353 353 354 355 356 356 357 357 356 357 357 357 357 356 356 355 355 354 353 352 350 349 348 349 351
347 345 342 341 343 346 347 345 345 346 346 345 345 344 345 346 349 351 352 352 352 352 352 352 351 352 352 352 352 352 352 352 352 352 353 354 353 354 355 355 355 356 356 357 357 357 357 357 358 357 357 357 357 356 355 354 354 353 353 352 351 351 353
343 342 342 342 344 345 344 346 346 346 347 347 346 346 346 347 350 352 354 355 354 354 354 354 354 354 354 354 354 354 353 354 353 353 353 353 353 354 354 355 355 356 357 358 359 358 358 358 358 357 357 357 357 356 354 353 354 354 354 353 352 353 354
337 336 335 336 338 338 338 342 345 345 347 348 347 347 347 347 348 350 351 352 353 354 354 355 356 357 356 356 357 356 355 355 355 355 354 354 354 354 354 355 356 356 357 358 359 359 359 358 358 358 358 357 357 357 355 354 353 354 354 354 354 355 356
339 339 338 336 335 333 332 333 334 335 338 342 344 346 347 347 347 347 347 348 348 348 349 351 353 355 357 358 359 359 358 357 356 356 356 355 355 356 355 357 357 357 358 358 359 359 359 359 359 358 358 358 357 357 356 355 354 354 354 354 355 356 357
341 343 345 345 345 343 341 340 339 338 337 338 340 342 345 347 348 347 347 346 345 345 345 346 349 352 356 358 359 360 360 359 358 358 357 356 356 356 356 357 357 358 358 358 358 358 359 359 359 358 358 358 358 357 357 356 356 355 353 354 356 358 359
339 341 343 345 346 346 346 345 345 345 345 344 344 344 345 347 347 347 347 346 346 345 345 346 347 350 353 356 359 360 361 361 361 359 359 358 357 357 357 357 357 357 358 358 358 358 358 358 359 359 358 358 358 358 357 357 356 355 354 354 357 359 359
340 340 341 342 343 344 345 344 344 345 345 346 346 346 345 345 345 346 345 345 344 344 344 344 345 346 348 351 353 356 359 361 362 362 361 360 359 358 358 358 357 358 358 358 358 358 358 358 357 358 358 359 358 358 358 357 355 354 356 358 359 359 358
340 340 340 341 342 342 342 343 343 344 344 344 344 344 343 343 343 342 342 342 342 342 342 342 343 343 344 345 347 350 354 357 360 361 361 361 359 358 358 358 358 358 358 358 358 358 358 358 358 358 358 358 358 359 358 357 356 356 357 359 359 359 357
340 340 340 341 341 342 342 342 343 343 343 343 343 342 342 342 342 342 342 342 342 342 343 343 343 343 344 345 345 347 349 352 355 357 359 360 360 358 358 358 358 359 359 359 358 359 359 359 359 359 359 359 358 358 357 356 356 357 358 358 357 356 351

ECMWFFLT1_850_thetae_045.txt.gz
Theta_e
349 350 350 350 350 349 348 347 346 346 344 344 344 343 342 342 343 344 343 343 344 344 345 345 345 346 346 346 346 347 347 347 347 346 345 344 342 340 338 337 337 337 337 337 337 337 336 336 336 336 336 337 337 338 339 341 342 342 343 344 344 342 339
348 349 350 350 350 349 349 347 346 346 344 343 343 343 343 341 340 341 340 341 342 342 343 344 345 345 345 345 345 346 346 347 347 347 347 347 345 343 341 339 338 337 337 337 337 336 336 336 336 335 335 335 335 337 338 340 342 342 342 342 343 341 339
346 347 348 349 349 349 348 348 347 347 345 344 344 343 343 341 338 338 338 339 339 340 342 343 343 344 344 344 344 345 345 346 346 347 346 347 346 346 345 343 340 338 337 337 337 336 336 335 335 335 335 335 335 335 338 340 341 341 341 341 341 340 339
341 344 346 346 347 347 348 348 347 347 346 344 343 342 342 340 338 338 338 338 339 338 338 339 340 342 343 344 344 344 345 345 345 346 345 346 346 346 347 346 344 342 340 338 337 337 336 335 335 335 335 335 335 335 337 340 341 341 341 341 340 340 339
338 340 343 344 345 346 347 347 347 347 347 346 344 343 342 341 341 340 340 340 340 339 337 337 338 340 342 342 343 343 343 343 344 345 345 345 345 346 347 347 346 345 343 339 337 336 336 335 335 335 335 335 335 336 337 340 340 340 341 340 340 339 339
338 338 339 340 342 344 345 345 346 346 346 346 345 343 343 342 342 342 341 341 341 341 341 341 341 341 341 341 342 342 342 343 343 344 345 345 345 346 346 347 347 346 346 343 340 337 335 335 334 334 335 335 336 337 338 339 340 340 340 340 339 338 338
337 336 336 337 339 341 342 343 344 345 345 345 345 345 344 344 344 343 342 342 342 342 342 342 342 341 341 341 342 343 342 342 343 343 344 345 345 345 346 346 347 346 346 345 344 340 337 334 333 333 333 335 336 338 338 339 340 340 341 341 340 339 338
335 336 335 336 337 337 340 341 342 343 345 345 345 346 345 345 345 344 344 343 342 343 343 343 342 342 342 342 342 342 342 343 343 343 344 344 345 345 346 346 347 346 346 346 345 345 341 337 334 332 332 333 335 337 338 339 339 340 341 342 342 340 338
335 336 335 336 337 337 339 339 340 342 343 344 344 345 345 345 345 345 344 343 343 343 343 342 343 342 342 342 342 342 343 343 343 344 344 345 345 345 345 346 346 347 347 347 346 346 345 341 337 334 332 332 333 335 337 338 340 340 340 341 342 342 340
333 334 336 337 337 337 338 338 338 340 341 342 342 344 345 345 345 345 344 344 343 343 342 342 343 342 342 343 342 343 343 343 344 344 344 345 345 345 346 346 346 347 347 347 347 346 346 345 343 339 335 332 332 333 334 336 339 340 340 341 341 343 342
332 333 335 336 337 338 338 337 338 338 339 340 341 342 344 343 344 344 344 344 343 343 343 343 343 343 342 343 343 344 343 343 343 344 344 345 345 345 346 346 346 347 347 347 347 347 347 347 346 344 339 334 332 333 334 335 337 339 340 341 341 342 342
330 332 333 334 335 337 338 338 338 338 338 339 340 341 342 342 343 343 343 344 343 343 343 343 343 343 342 343 344 344 343 343 343 344 344 344 345 345 345 346 346 347 347 348 348 347 347 347 347 346 343 337 333 333 334 334 336 338 339 340 341 341 342
329 331 330 332 334 335 337 338 338 338 338 338 339 339 340 341 341 342 342 342 342 343 343 343 343 343 343 343 344 343 343 343 343 344 344 344 344 345 345 346 346 347 347 347 348 348 348 347 347 347 345 341 336 333 333 334 335 337 338 340 340 341 341
328 328 328 330 331 332 335 335 337 338 338 338 339 339 339 340 340 340 341 341 342 342 343 342 343 343 343 343 344 343 343 343 343 343 344 344 344 345 345 345 346 347 347 347 348 348 348 348 348 347 346 344 340 335 333 333 334 336 337 339 340 340 341
326 326 327 328 328 328 330 332 334 336 337 338 339 338 339 339 340 340 340 341 341 341 342 342 342 342 343 343 343 343 343 343 344 344 345 345 345 345 345 346 346 347 347 347 348 348 348 348 348 348 347 346 343 339 335 333 334 335 337 338 339 340 340
326 327 327 328 329 328 328 329 330 332 335 338 339 339 339 339 339 340 340 341 341 341 341 341 342 343 343 343 343 343 343 344 344 344 345 345 345 345 346 346 347 347 347 348 348 348 349 348 348 348 348 348 346 342 337 334 333 334 335 337 338 339 339
327 327 327 328 329 329 328 328 329 331 333 336 337 338 339 339 340 340 340 341 341 341 341 341 342 343 343 343 343 344 344 345 345 345 345 345 346 346 346 346 346 347 347 348 348 348 348 349 349 349 348 348 348 344 339 334 332 334 335 336 337 338 339
326 327 326 327 330 329 328 328 329 331 332 332 335 337 338 339 340 340 340 341 340 341 341 341 342 342 342 343 344 344 345 345 345 345 345 346 346 346 346 347 347 347 348 348 348 349 349 349 349 349 349 349 348 345 340 334 332 333 334 335 336 337 338
326 327 326 327 328 328 327 327 329 331 331 332 333 335 337 339 340 340 341 341 341 341 341 342 342 342 342 343 344 344 345 345 345 346 346 346 346 347 347 347 347 348 348 348 348 348 349 349 349 349 349 349 349 346 342 336 333 333 333 334 335 337 338
325 325 326 326 327 327 326 326 329 332 332 333 333 334 337 338 339 341 340 340 341 341 341 342 342 342 343 343 344 344 344 345 345 345 346 346 347 348 348 348 348 348 348 349 349 349 349 349 349 349 349 350 349 348 344 339 335 334 334 334 334 336 337
325 325 325 326 326 326 327 327 330 334 336 336 335 335 337 338 339 340 341 341 342 341 342 342 342 343 343 343 344 345 345 345 346 346 346 347 347 348 348 348 348 349 349 349 349 349 349 349 349 349 349 350 350 349 346 341 337 336 335 334 334 335 336
327 326 326 327 327 328 329 329 332 337 338 337 337 336 336 338 339 340 341 341 342 342 342 342 342 343 344 344 345 345 345 346 346 346 347 347 348 349 349 349 349 349 350 350 350 350 350 349 350 350 349 350 350 350 348 345 343 341 339 338 337 337 337
331 330 329 329 330 331 332 334 337 340 339 338 338 337 337 338 339 340 341 342 342 342 342 342 343 343 343 344 344 345 346 346 346 347 347 348 348 349 348 349 349 349 349 350 349 349 349 349 350 350 350 350 350 350 350 349 349 346 342 342 342 341 340
336 337 336 335 336 336 336 338 341 341 339 338 339 339 339 339 339 340 341 342 342 343 343 343 343 344 344 344 344 345 345 345 346 347 347 348 348 348 348 349 349 349 349 349 349 349 349 349 350 350 350 350 350 350 349 350 350 347 343 342 342 342 341
342 341 341 340 340 340 339 341 343 342 340 340 340 340 341 340 340 341 341 342 342 343 343 343 343 344 344 345 345 345 345 345 346 347 347 348 348 348 349 349 349 349 349 350 350 350 350 350 350 349 349 349 349 350 349 350 350 347 343 342 341 342 343
345 344 344 343 341 340 340 343 344 344 343 341 341 341 341 341 341 341 341 342 342 343 343 344 344 345 345 345 345 345 346 346 347 347 347 347 348 349 349 349 349 350 350 350 351 351 351 351 351 351 351 350 349 348 349 350 351 348 345 342 341 341 343
348 346 346 346 344 343 344 345 346 345 345 344 344 343 343 343 342 342 342 342 343 343 343 344 344 345 345 346 346 346 347 347 347 348 348 348 349 349 349 350 350 351 350 351 351 351 351 352 351 352 351 351 352 352 350 350 350 349 347 345 342 340 342
351 350 350 350 349 347 346 346 346 346 346 347 347 346 345 345 344 344 344 344 344 344 345 345 346 346 347 347 347 347 347 347 347 348 348 348 350 350 351 351 351 351 351 351 352 352 353 352 353 354 353 354 355 355 356 355 354 352 350 347 342 340 341
352 352 352 352 351 348 346 344 344 345 345 346 348 348 348 348 347 347 346 346 346 346 346 347 347 347 348 348 348 348 348 348 348 349 349 349 349 349 350 351 352 352 353 353 353 353 354 354 354 355 356 356 356 356 356 356 355 354 354 352 346 341 340
350 351 351 351 351 349 347 344 344 345 346 347 348 349 350 349 349 349 348 348 349 348 349 349 349 349 350 349 349 350 350 349 350 349 350 350 350 351 352 352 352 353 353 354 354 354 355 356 356 356 357 357 357 356 355 356 355 355 354 355 354 347 340
348 349 350 351 350 350 349 347 347 347 348 349 349 349 350 352 351 352 351 351 351 351 351 351 351 351 351 351 351 351 351 351 351 351 351 351 351 352 352 353 353 354 354 355 356 356 357 358 358 358 357 357 357 356 355 354 354 355 355 355 356 354 349
346 347 347 348 349 350 349 349 349 348 347 348 348 349 350 351 352 353 353 353 354 354 353 353 354 354 354 355 355 354 353 353 353 353 352 352 352 353 353 353 354 354 355 355 357 358 359 359 359 359 358 358 357 355 356 356 355 355 356 356 355 355 355
344 344 345 345 346 347 347 347 348 347 346 346 347 347 347 348 348 349 349 350 351 351 351 351 352 353 355 357 358 358 357 356 355 355 354 353 353 353 353 354 355 355 356 356 357 359 359 358 358 359 358 359 359 358 358 359 357 355 356 356 355 356 355
343 343 344 344 345 345 344 344 344 345 345 345 345 346 346 346 347 346 346 347 347 346 347 347 347 348 349 352 355 357 358 358 357 356 355 355 355 354 354 355 355 356 356 356 356 358 359 358 359 359 358 358 359 359 360 359 358 356 356 356 356 356 355
343 343 343 343 343 342 342 342 343 344 345 344 345 345 345 345 345 344 344 344 343 343 343 343 343 345 345 347 350 353 357 359 360 359 358 357 357 356 356 356 356 356 358 357 357 357 357 357 358 358 358 358 358 359 359 359 357 356 356 356 356 356 356
343 343 343 343 343 343 343 343 343 343 343 343 343 343 343 342 342 342 342 341 341 341 341 340 341 342 342 344 345 347 352 356 358 359 360 360 359 359 358 357 356 356 357 357 357 357 357 358 358 359 359 359 358 358 358 358 356 355 356 356 356 356 356
342 343 343 343 343 343 342 342 341 341 341 342 342 342 342 342 341 341 341 341 341 341 341 341 341 341 342 342 343 343 345 347 349 351 353 355 355 356 356 357 357 357 357 357 357 357 357 357 357 357 358 358 359 358 357 357 357 357 357 356 356 356 356
341 341 341 341 340 340 340 339 340 340 340 340 340 340 341 341 341 341 341 341 340 339 339 338 338 338 339 339 340 341 342 343 343 343 343 342 343 343 344 344 345 346 348 351 353 355 357 358 358 358 358 358 358 358 358 358 358 357 357 357 357 356 356

ECMWFFLT1_850_thetae_048.txt.gz
Theta_e
349 351 354 354 356 357 357 358 358 358 358 355 350 348 348 347 345 343 339 338 338 338 339 340 341 341 342 342 340 340 340 339 338 338 338 338 339 338 338 338 338 339 339 339 337 337 337 337 338 338 338 338 338 340 341 340 340 339 340 344 346 348 347
348 349 352 354 355 356 357 358 358 358 357 355 350 347 346 346 343 341 339 338 337 337 338 338 339 341 341 341 340 340 341 339 338 339 338 339 339 339 339 338 338 338 338 338 338 337 338 337 338 338 338 337 337 338 339 338 339 337 338 341 344 346 346
347 348 350 352 355 356 357 358 358 358 357 356 353 347 345 344 340 338 337 337 337 337 337 338 338 338 339 340 340 340 340 339 339 340 339 340 341 341 341 340 339 339 338 338 337 337 337 337 337 338 337 337 337 337 337 336 337 336 336 339 341 344 346
347 348 349 351 354 356 356 358 358 357 356 355 351 346 343 342 340 338 336 335 335 336 336 337 337 338 338 338 339 340 341 340 341 343 342 342 345 345 344 343 341 341 340 339 338 338 337 337 337 338 337 337 337 336 337 336 336 335 336 338 340 342 344
345 347 348 351 353 355 357 357 357 356 354 353 350 345 341 342 341 340 337 335 334 334 334 335 336 337 338 338 338 339 340 341 342 344 343 344 346 346 346 345 344 344 342 341 341 339 337 337 336 337 337 337 337 337 336 336 336 335 335 337 339 342 342
343 345 348 350 352 354 356 356 355 355 354 354 354 350 348 347 345 343 340 337 335 334 334 333 334 335 336 337 337 337 339 341 342 343 343 344 345 346 346 346 346 345 345 344 344 342 339 337 336 336 336 335 336 336 336 336 335 335 335 336 338 341 342
340 345 347 349 351 353 355 355 355 355 355 355 356 356 355 353 350 348 345 341 337 335 334 333 333 334 335 335 336 337 338 339 340 341 342 342 343 345 345 345 345 345 345 345 346 345 343 340 337 336 335 335 335 336 336 336 335 335 336 337 338 340 341
341 346 347 348 350 351 353 355 354 354 355 355 355 356 356 354 353 352 350 346 343 339 336 334 332 332 333 333 334 335 336 337 338 339 340 341 342 343 344 344 344 344 345 345 345 346 345 343 340 336 335 335 335 335 336 335 335 335 336 337 338 339 340
341 347 349 348 348 349 351 353 353 354 354 355 355 355 355 355 354 352 350 349 348 345 340 338 335 333 332 332 332 332 333 335 336 337 338 339 340 341 342 342 343 343 344 345 345 345 346 345 343 339 336 335 335 335 335 335 335 335 336 337 338 339 339
344 348 349 347 345 346 346 349 352 352 353 354 354 353 355 355 354 352 350 350 348 345 343 341 340 338 336 334 333 333 333 334 335 335 337 338 339 339 340 340 341 341 341 343 344 345 345 345 345 343 340 337 335 335 334 334 335 334 335 337 338 339 339
345 345 346 346 345 345 344 346 349 350 351 353 353 353 353 353 355 354 352 350 348 346 345 344 343 343 340 339 338 337 337 337 337 338 338 338 338 339 339 339 340 340 340 341 343 344 345 345 345 346 344 341 339 336 334 333 333 333 334 336 338 339 339
341 341 346 347 346 345 344 344 345 345 346 348 350 352 350 349 353 354 353 352 350 350 349 347 346 345 343 341 341 340 340 340 340 340 340 340 340 340 340 341 341 341 341 341 342 344 345 345 346 346 346 345 343 341 337 334 333 333 333 335 337 338 339
343 339 342 343 342 343 342 341 340 339 340 342 347 351 350 347 349 352 353 353 351 352 352 349 347 346 345 343 343 342 341 341 341 341 341 341 342 342 342 342 342 342 342 343 343 343 344 345 346 346 346 346 346 345 343 339 336 334 333 334 336 336 337
343 339 338 335 332 334 335 334 336 336 337 340 344 349 350 349 347 347 349 351 352 353 354 352 349 347 346 345 344 343 342 341 341 341 341 342 341 342 342 342 343 343 343 343 343 344 344 345 346 346 347 347 347 347 346 344 342 339 336 334 334 334 335
336 336 339 335 329 328 329 330 332 333 334 337 341 344 347 349 349 346 345 347 349 350 352 353 350 347 347 345 343 342 342 341 342 342 342 342 342 342 342 342 343 343 343 343 343 344 344 345 346 346 347 347 347 347 347 346 345 343 339 337 334 333 334
333 332 335 338 338 333 328 328 330 329 330 333 336 339 342 346 347 346 344 345 346 348 351 351 350 348 347 345 342 342 342 341 341 342 342 343 343 342 342 342 343 343 344 344 343 344 344 344 346 346 347 347 347 347 347 347 347 344 341 339 336 333 333
332 331 329 334 342 339 330 328 329 328 329 329 330 334 337 340 342 343 346 346 343 344 347 349 350 349 346 345 344 344 344 342 341 341 342 343 343 343 343 342 343 343 344 344 344 344 345 345 345 346 347 347 347 348 348 347 347 345 342 341 339 337 335
330 332 330 329 336 337 330 328 329 327 328 328 329 331 332 336 339 341 343 344 344 344 347 349 349 346 344 344 345 345 343 342 342 342 342 343 342 343 343 343 343 343 343 344 344 345 345 345 345 346 346 348 347 348 348 348 348 347 344 343 342 341 340
328 330 329 329 334 336 330 328 329 327 327 327 328 330 331 333 337 338 339 342 346 348 348 347 346 344 344 345 345 344 343 342 343 342 342 343 343 343 344 343 343 343 344 344 344 345 345 345 346 346 346 347 348 348 348 348 348 348 347 345 344 343 343
331 331 331 331 335 335 329 327 328 326 326 327 328 331 334 333 333 336 337 339 343 345 345 344 343 343 343 344 343 342 342 342 343 342 342 343 343 344 344 343 344 344 344 345 346 345 346 346 346 346 346 347 348 348 348 349 348 348 348 347 346 345 345
332 331 333 335 336 333 328 326 327 326 327 327 328 333 335 334 336 340 340 339 339 341 341 341 342 341 341 342 341 341 342 342 341 342 342 343 344 344 344 344 344 345 345 346 346 346 346 346 346 346 346 347 348 348 348 348 349 349 348 347 346 346 346
331 334 338 342 341 335 329 326 326 326 326 327 330 334 337 338 340 343 343 340 338 339 340 340 341 341 340 340 340 341 341 341 341 342 343 343 344 344 345 344 344 344 345 346 346 346 346 346 347 347 346 348 350 351 348 348 349 348 348 347 345 345 348
337 339 339 338 336 331 328 326 326 327 327 329 333 336 339 342 344 345 345 343 339 338 340 340 340 341 340 341 341 341 342 342 342 343 343 344 344 344 344 344 344 345 345 345 346 347 347 346 347 347 347 348 350 351 348 349 351 350 348 348 346 344 347
337 336 334 333 332 332 331 329 329 330 330 334 337 337 339 341 343 344 345 344 341 339 340 340 340 341 341 341 341 341 342 343 342 343 343 343 343 344 343 344 344 345 346 346 347 347 348 349 349 348 349 349 349 349 348 350 352 351 349 349 347 344 344
344 339 337 337 335 335 335 334 334 335 336 338 339 338 338 338 341 344 345 342 340 339 340 340 340 341 341 341 342 342 342 342 342 342 343 343 343 344 344 344 345 345 346 346 347 347 348 349 350 350 351 351 351 352 351 352 353 353 351 350 348 347 346
345 342 343 343 340 338 339 338 339 341 341 340 339 339 339 339 342 346 345 341 341 342 341 340 341 341 341 341 341 342 342 342 343 343 343 343 344 344 345 345 346 347 347 347 348 349 350 350 351 352 353 353 355 355 353 352 353 354 353 351 350 351 350
344 343 344 345 342 342 344 344 343 343 343 341 340 341 341 340 343 347 346 340 340 342 343 343 342 341 342 342 342 342 343 343 343 343 344 344 344 344 345 346 347 349 350 351 351 352 352 353 354 356 356 356 357 358 357 356 356 356 355 353 353 353 352
348 348 348 347 345 347 349 348 344 343 344 342 341 342 342 341 343 348 348 343 341 343 346 347 345 342 343 342 342 343 344 345 345 345 345 345 346 346 346 347 348 349 350 351 353 354 354 355 358 357 358 359 359 359 360 359 358 358 356 354 355 355 353
350 350 350 351 351 352 352 351 347 344 344 344 343 343 345 345 345 347 349 351 351 349 349 348 345 344 344 344 344 344 346 347 348 347 347 346 346 347 347 348 348 349 350 351 354 356 358 360 361 359 359 360 359 359 359 359 359 359 357 356 357 356 354
350 350 351 352 352 353 355 355 353 351 348 346 344 346 348 348 347 345 346 349 349 347 346 346 345 344 344 345 345 346 346 347 348 348 348 347 348 348 348 349 350 351 352 354 355 357 360 362 362 361 361 361 360 359 359 359 359 359 358 357 357 356 355
350 351 351 351 351 352 353 355 355 354 353 350 347 346 348 348 346 345 345 346 345 345 346 346 346 347 348 347 348 348 348 348 348 349 349 348 349 350 350 351 353 355 357 359 359 359 360 361 360 360 360 360 360 360 360 360 360 359 358 358 357 358 357
349 350 351 351 351 351 352 353 354 354 354 353 350 348 349 347 347 347 347 347 347 348 348 347 348 348 348 349 350 350 351 353 354 354 354 354 355 356 356 357 359 360 361 361 361 360 361 360 360 360 360 360 361 360 360 360 359 358 360 359 359 359 359
348 349 350 350 350 351 351 352 352 352 353 353 353 352 351 350 351 351 350 351 353 352 351 353 356 356 354 355 357 356 357 358 359 359 360 360 360 360 360 361 361 361 361 361 361 361 361 360 360 361 360 360 361 361 361 361 359 360 360 360 359 359 359
347 347 348 349 349 350 350 351 351 351 351 350 350 351 351 351 351 351 350 351 351 350 350 353 357 360 360 360 360 360 360 361 361 361 361 361 361 361 361 361 361 361 362 361 361 361 361 361 361 361 361 361 361 361 361 361 360 360 360 360 360 360 359
346 346 347 347 348 348 348 349 349 349 349 348 348 348 348 347 346 346 346 346 346 348 349 350 352 355 356 354 354 356 357 358 360 360 360 361 360 359 359 359 360 360 360 361 361 361 361 361 361 361 361 362 361 361 361 361 361 361 360 360 360 360 360
345 345 346 346 346 346 347 347 347 347 347 347 347 346 346 345 342 342 342 341 342 344 346 347 349 350 350 350 351 352 354 355 357 358 359 359 359 359 359 359 359 360 360 359 360 360 360 361 361 360 360 360 360 360 360 360 360 360 360 360 361 360 360
344 344 345 346 346 346 346 345 346 346 346 346 346 346 346 345 344 343 342 342 343 343 342 342 343 343 344 345 345 347 349 351 352 353 354 355 355 355 355 354 354 354 355 356 356 356 356 356 356 356 357 357 358 358 359 359 360 360 359 360 360 360 361
344 344 344 345 345 345 345 345 346 346 346 346 346 346 346 346 345 344 345 345 344 343 341 339 338 338 340 340 341 342 344 344 344 343 341 340 340 339 338 338 338 338 338 339 340 339 339 339 340 341 342 343 344 345 346 349 351 353 356 358 359 360 360

ECMWFFLT1_850_thetae_051.txt.gz
Theta_e
344 344 348 354 357 357 360 362 363 363 364 364 364 362 361 361 361 360 353 343 338 337 338 337 336 336 336 335 336 336 335 334 334 334 334 334 334 336 337 336 336 336 337 339 339 338 336 339 347 352 348 342 342 344 344 343 343 344 345 343 340 342 345
344 343 346 348 355 358 359 362 363 364 364 365 365 363 362 362 361 359 353 345 339 337 337 337 337 336 335 336 336 335 334 334 334 334 334 335 335 335 336 336 336 335 335 338 341 341 338 336 338 343 344 340 341 344 345 346 345 343 343 342 340 341 344
344 342 344 346 352 358 359 361 364 364 364 365 366 364 364 362 359 355 351 346 341 338 337 337 338 337 336 337 336 335 335 335 335 335 335 336 335 335 336 336 336 336 335 336 338 341 341 339 336 337 338 338 339 342 346 347 347 345 342 340 339 340 343
345 342 343 346 353 358 359 361 363 364 364 364 366 365 364 363 359 355 351 347 341 338 337 337 337 338 337 337 337 336 336 336 336 336 336 336 336 337 337 337 336 336 337 336 336 339 342 343 340 337 337 338 338 339 342 345 346 346 344 339 338 338 339
344 344 342 345 352 357 359 360 362 364 364 364 365 365 365 365 363 361 356 350 343 337 335 336 337 337 337 337 337 337 336 336 337 337 336 336 337 338 338 337 336 336 336 337 337 337 339 342 343 340 338 338 338 339 340 341 343 345 345 341 337 337 337
341 344 343 343 348 355 359 360 361 363 363 363 365 366 366 366 365 364 361 356 349 342 337 336 336 336 337 337 337 337 337 337 337 336 337 337 337 338 337 335 336 336 336 337 338 338 337 338 341 342 341 339 338 341 341 340 339 341 343 343 338 336 336
340 343 344 342 345 352 358 359 360 361 362 363 363 365 366 366 365 365 364 361 355 349 341 337 336 336 335 336 336 337 336 336 337 336 337 337 337 338 337 335 336 335 337 339 340 340 339 337 339 340 342 342 340 342 343 340 339 339 341 343 339 336 336
338 342 344 344 344 349 355 359 359 360 362 362 362 364 365 365 366 364 364 363 360 356 347 338 335 334 335 335 335 336 336 336 337 336 336 337 337 337 337 336 336 335 337 341 342 340 339 340 341 340 342 344 343 344 346 343 339 339 339 341 339 335 335
337 340 342 342 343 345 350 357 359 359 361 361 360 363 364 364 365 364 364 364 362 359 350 341 336 332 331 334 334 335 336 335 336 336 336 336 336 337 337 336 337 336 337 341 343 342 341 342 344 343 343 345 345 346 348 347 342 339 340 340 338 335 335
336 338 341 343 343 344 347 354 359 358 360 362 360 361 363 364 365 364 364 364 362 359 353 348 345 338 331 331 332 333 335 335 336 336 336 335 335 336 336 337 339 338 336 339 344 345 344 343 344 346 344 345 346 346 347 348 343 339 341 340 337 336 335
341 344 346 347 346 347 349 354 359 358 358 360 360 360 362 362 363 363 363 364 362 361 358 356 354 347 336 329 331 332 332 333 335 335 335 335 335 335 335 339 345 346 341 336 339 345 349 347 343 344 346 344 346 347 346 345 341 338 340 340 337 335 335
345 348 351 350 348 348 350 353 358 358 357 359 360 360 361 362 363 362 362 363 362 362 362 361 359 354 343 334 331 331 331 331 332 333 334 333 334 335 337 342 351 354 351 343 337 339 347 352 347 342 344 345 345 346 346 345 342 338 337 338 337 336 335
342 348 352 352 350 350 349 351 355 358 359 360 360 360 360 361 361 362 362 362 361 361 363 363 362 359 352 343 337 332 329 330 331 331 332 332 332 335 340 345 350 355 356 354 347 339 342 352 353 344 341 344 344 345 346 345 343 340 335 335 336 337 336
341 347 353 354 353 353 353 352 353 358 361 359 358 359 359 360 360 361 362 362 361 361 361 362 363 362 358 352 346 339 331 329 330 329 330 331 331 332 337 343 348 352 356 359 356 347 341 349 354 349 341 341 344 344 345 345 345 341 337 334 335 337 337
337 341 346 350 353 354 352 350 348 353 359 359 357 359 358 358 359 360 360 361 361 360 360 361 362 362 362 357 351 345 338 334 333 331 331 332 332 332 334 338 343 348 353 358 361 356 349 349 356 355 347 341 341 343 344 345 345 343 340 336 334 337 338
332 336 338 343 350 350 347 346 342 342 349 352 354 358 359 358 358 359 360 360 360 360 359 359 361 362 361 359 353 349 345 341 339 337 336 337 336 337 336 337 340 344 348 355 361 360 356 354 358 360 357 349 343 342 344 345 345 344 342 339 336 336 338
331 334 335 339 349 352 350 351 345 338 337 340 342 348 352 356 358 358 358 360 359 359 358 358 360 361 360 360 357 353 350 346 343 342 342 341 340 340 340 340 342 344 347 352 356 358 359 358 358 360 362 360 352 346 344 344 346 345 344 343 341 339 339
331 332 333 335 341 346 349 353 352 345 341 340 341 340 341 349 357 358 357 358 359 359 358 357 360 360 359 360 359 356 352 348 346 345 345 345 344 344 343 343 343 344 346 347 350 353 356 356 354 354 358 363 362 357 349 345 345 346 345 344 343 342 342
331 332 333 332 333 334 337 343 349 351 351 350 350 349 344 344 348 351 353 356 357 358 358 356 358 360 360 360 359 355 352 349 347 346 345 346 346 347 348 346 344 345 346 347 349 350 351 352 351 350 351 357 362 363 358 352 346 345 346 346 345 344 345
333 332 332 333 333 334 332 336 345 350 349 346 345 350 354 349 345 347 351 354 355 356 357 356 357 358 359 360 358 355 353 351 348 346 346 347 349 350 349 347 345 345 346 348 350 350 350 349 350 350 348 349 355 360 361 359 354 348 346 346 347 346 346
333 334 336 333 332 336 339 343 352 354 352 350 347 348 352 352 351 353 354 352 351 353 355 355 355 357 359 359 357 355 353 351 349 348 349 349 350 349 348 347 345 346 347 348 349 349 348 349 349 350 349 347 350 355 359 360 358 355 350 348 347 347 347
334 335 332 331 338 349 350 347 350 352 349 348 347 348 350 352 354 356 355 352 351 351 353 353 353 354 357 358 357 354 353 351 350 351 350 350 349 348 347 346 345 346 347 349 351 351 351 350 349 350 351 350 349 351 353 355 357 356 354 350 348 348 348
335 332 331 337 346 352 347 339 336 336 335 332 334 339 345 349 354 356 355 355 354 354 354 352 351 352 354 356 355 355 353 351 350 349 348 348 346 344 344 345 345 347 348 349 352 354 354 353 351 351 352 353 352 350 351 353 355 355 354 352 351 349 348
329 334 342 347 348 349 349 347 342 335 331 328 327 330 334 341 351 357 357 356 358 359 357 353 350 351 351 352 353 355 354 352 350 348 347 346 344 344 347 347 348 350 351 351 353 356 357 359 360 358 356 356 357 356 355 356 356 355 353 353 353 352 350
346 350 353 353 351 350 349 344 337 331 332 334 333 333 332 334 347 357 358 358 359 361 361 357 354 352 351 352 355 357 356 356 355 353 349 348 347 348 350 350 351 353 353 352 352 355 359 362 363 363 362 360 361 361 359 359 359 357 355 354 354 354 353
357 354 353 355 355 349 343 340 338 338 346 353 352 349 343 339 346 355 359 359 360 362 362 362 360 357 355 356 357 358 358 357 355 352 349 349 349 349 349 349 351 352 352 352 354 357 361 363 363 364 365 365 365 364 362 361 362 360 358 357 355 355 354
356 354 353 353 349 342 346 356 355 347 348 353 351 348 348 348 351 356 359 359 361 364 364 363 362 361 359 357 355 355 355 352 349 346 346 348 349 349 349 350 352 355 357 359 362 364 365 365 364 364 365 365 365 365 364 364 363 362 360 358 357 356 355
357 357 356 355 351 348 355 362 360 352 351 355 353 350 352 356 358 359 361 361 363 363 363 363 363 361 360 358 355 354 355 353 351 351 352 354 355 354 354 354 357 361 363 363 364 365 365 365 364 364 364 364 364 364 364 364 364 363 362 361 359 359 358
356 356 355 356 357 358 360 361 359 358 359 363 365 362 358 359 361 362 362 364 365 363 361 361 362 362 362 361 360 359 360 361 360 361 361 362 362 360 359 359 359 361 362 361 362 365 365 365 364 363 363 363 363 363 363 363 363 363 363 362 361 361 360
356 356 357 357 357 358 359 360 361 361 359 360 365 366 364 363 364 364 365 367 366 364 363 363 364 364 364 363 362 361 362 364 365 365 365 366 364 362 361 360 359 360 360 360 362 364 364 364 364 364 364 363 362 363 362 362 363 362 362 362 362 362 362
354 354 356 357 355 355 357 359 360 360 358 357 361 365 366 367 367 367 368 367 364 364 365 366 367 367 366 364 363 361 362 363 365 366 367 366 365 363 362 361 362 363 363 363 363 364 363 363 363 363 363 363 363 363 362 362 362 362 361 361 361 361 361
352 352 354 355 354 354 356 357 357 358 358 357 358 361 363 364 364 364 364 362 361 363 366 366 366 366 365 366 365 363 363 364 365 366 367 366 365 364 364 363 364 364 364 364 363 362 363 363 363 363 363 363 363 363 363 363 362 362 362 362 362 361 361
351 352 353 354 353 353 355 355 355 356 356 356 357 358 359 359 360 360 360 360 361 363 364 365 365 363 364 366 366 364 365 365 364 365 365 365 365 364 364 364 364 364 364 364 363 363 364 363 363 363 362 362 362 362 363 363 362 363 363 362 362 362 361
350 351 352 352 352 353 354 354 353 353 353 354 354 355 355 356 357 357 359 361 362 362 363 365 365 364 365 365 366 366 366 364 363 364 364 364 363 362 362 363 363 363 363 363 363 364 364 364 365 365 364 364 364 363 363 363 363 363 363 362 362 362 361
349 350 351 351 351 352 353 353 352 352 351 351 351 352 352 353 354 354 356 358 359 361 363 364 365 365 365 365 366 366 365 364 363 362 362 361 361 361 361 362 363 363 363 363 363 363 364 364 365 364 363 363 362 363 363 363 363 363 363 362 362 361 361
348 349 349 349 349 350 351 350 350 350 350 350 350 351 350 351 352 352 354 355 356 358 359 360 361 361 361 361 363 363 364 364 363 362 362 363 363 362 360 361 362 362 361 361 362 362 362 362 362 362 361 361 360 361 361 359 359 360 360 360 361 360 360
348 349 349 348 349 349 348 348 348 348 348 349 349 349 349 350 350 350 351 352 353 354 355 356 356 355 356 356 357 358 359 359 359 359 361 361 361 361 360 360 360 360 361 361 361 361 360 360 359 358 357 356 354 352 351 348 347 347 347 348 349 349 350
348 348 348 348 349 348 348 348 348 348 348 348 348 348 348 349 348 348 349 349 350 351 352 352 352 351 351 351 352 353 354 353 353 354 354 353 353 354 355 352 349 349 350 351 350 350 349 347 345 344 342 339 337 336 336 334 333 334 334 334 334 335 335

ECMWFFLT1_850_thetae_057.txt.gz
Theta_e
351 353 353 353 354 353 352 353 352 353 353 353 354 356 357 358 357 358 358 358 357 355 353 350 347 343 340 338 335 333 333 333 334 333 333 333 331 331 331 333 337 339 338 335 333 334 334 335 338 340 340 341 341 340 340 341 341 342 344 345 344 344 344
351 353 353 354 353 352 351 351 351 352 353 352 354 355 358 358 358 358 358 358 358 356 354 351 348 344 339 336 335 334 334 333 333 334 333 332 332 331 330 331 333 334 336 336 335 336 336 336 336 337 339 341 341 341 341 341 341 341 343 344 343 343 343
352 351 353 353 354 353 351 351 351 352 353 352 353 355 357 358 359 359 359 359 358 357 355 352 349 347 341 338 335 334 334 334 333 333 333 332 331 331 331 330 330 332 334 337 338 338 338 337 337 337 338 339 339 340 340 341 341 341 341 342 343 342 342
350 350 351 351 353 352 352 352 351 352 353 352 352 353 356 358 359 360 360 360 360 358 357 353 350 348 345 342 339 336 334 333 333 332 332 331 331 330 331 331 330 331 333 334 336 338 340 340 338 336 337 337 336 337 337 339 340 340 340 341 342 341 341
349 349 350 350 351 351 351 351 353 353 353 352 353 353 354 356 358 360 361 361 361 360 357 355 352 349 347 345 343 339 336 333 332 331 332 331 331 331 331 331 330 330 331 333 334 338 340 341 339 338 337 335 336 335 336 337 338 340 341 342 343 342 341
348 348 350 349 349 350 350 351 352 353 353 353 354 354 356 356 358 359 360 361 361 360 359 357 355 352 350 347 344 341 338 336 334 332 332 332 331 331 330 329 330 330 330 331 334 335 338 340 341 339 337 336 337 336 336 335 336 337 339 341 342 343 342
348 348 349 349 349 351 350 351 352 352 353 354 354 355 356 355 357 357 359 360 361 361 360 359 357 354 351 348 343 340 338 337 335 334 333 333 332 331 329 329 330 330 331 331 332 334 336 339 340 341 340 339 337 336 336 336 335 335 336 338 340 342 342
349 348 348 349 349 350 351 351 350 351 352 352 353 355 355 356 357 358 359 361 361 361 361 360 358 355 353 350 346 341 338 335 334 334 334 334 333 331 329 329 329 330 331 332 332 332 334 337 340 342 344 342 340 338 337 336 336 336 336 336 337 339 341
348 348 347 347 347 349 351 351 352 352 351 352 353 355 356 357 358 360 360 361 361 361 361 360 359 356 353 352 348 344 340 338 336 335 335 335 334 332 330 330 330 331 331 332 332 332 332 335 339 341 344 345 344 342 339 336 336 336 336 335 336 337 339
347 348 347 346 346 348 349 350 352 353 353 354 355 357 359 360 360 361 361 361 361 361 361 360 359 357 355 352 349 347 344 342 340 338 337 337 335 333 332 332 331 331 332 332 332 333 334 334 338 342 344 344 345 345 342 339 337 336 336 336 336 336 338
345 347 347 347 346 348 349 350 350 351 352 354 355 359 361 361 362 362 361 362 362 362 361 360 360 359 357 354 350 349 346 345 342 340 339 337 335 334 333 333 333 333 332 333 333 334 335 336 338 341 344 344 344 344 342 341 339 337 336 336 336 336 337
345 346 347 347 347 349 349 350 350 351 352 353 356 360 363 363 363 363 363 362 362 362 362 362 361 361 360 357 354 351 348 345 343 341 339 337 336 334 334 334 334 334 334 334 334 335 336 338 339 341 342 343 343 343 342 341 340 339 337 337 337 337 338
345 345 347 347 348 349 350 351 353 354 357 359 361 363 364 364 364 363 363 363 363 363 363 363 364 363 362 360 358 354 350 345 342 340 339 338 336 335 334 335 335 335 335 335 335 336 337 338 339 340 340 340 342 343 343 342 341 341 340 340 340 340 339
347 344 344 346 347 349 351 352 354 358 360 362 363 364 364 365 364 364 363 363 363 363 364 365 365 365 364 363 360 357 352 347 342 339 338 338 337 337 336 335 336 335 336 336 336 336 336 337 338 338 339 340 341 343 344 344 343 343 342 343 343 343 342
347 344 343 345 346 349 351 354 356 358 360 362 363 364 365 365 366 365 364 364 364 363 364 366 366 366 365 364 362 360 355 350 344 341 339 339 339 338 337 337 336 336 337 337 337 335 336 337 338 339 340 341 342 344 345 345 345 344 343 343 343 343 343
347 349 348 346 347 348 348 350 352 352 358 362 364 364 365 365 365 366 365 364 364 364 365 365 367 367 366 365 364 362 359 354 349 344 342 340 339 338 337 337 337 337 337 337 337 336 337 339 341 342 341 342 343 345 346 345 345 345 344 343 343 342 342
351 355 355 352 349 349 350 352 354 355 359 362 363 364 364 365 365 365 365 365 365 365 364 365 367 367 367 366 365 363 362 359 355 349 344 341 339 338 337 338 339 340 339 340 339 338 339 340 342 343 345 345 345 345 346 346 345 345 345 345 345 344 344
347 350 355 357 355 352 351 353 356 359 363 363 364 364 364 364 366 365 366 366 365 366 365 366 366 367 367 367 366 365 364 362 359 355 350 344 341 338 336 337 339 341 342 343 342 341 341 341 342 343 345 348 348 348 347 346 345 346 347 347 347 346 345
340 343 346 351 355 357 356 356 356 359 363 363 362 363 363 364 365 365 365 365 366 366 366 366 367 366 367 367 366 366 365 364 362 360 356 351 345 341 338 338 340 342 344 343 343 343 343 342 342 342 345 348 350 349 348 346 346 347 348 349 349 348 347
339 343 341 341 344 348 351 354 356 357 361 363 364 363 363 363 362 363 364 365 365 366 366 366 366 367 367 367 367 367 366 365 363 362 360 357 352 348 344 342 340 341 342 343 344 345 345 344 344 344 345 348 349 349 348 347 346 347 349 349 350 350 350
338 338 338 339 338 338 341 343 345 346 349 351 356 361 362 363 363 362 363 363 364 365 365 366 365 366 366 366 366 366 366 365 365 363 362 360 358 355 350 347 344 342 343 344 345 343 343 343 344 343 343 346 348 350 350 349 349 349 350 350 352 353 355
351 349 351 352 349 347 347 341 337 341 343 344 346 350 352 355 357 360 361 362 364 364 364 365 365 365 365 365 366 366 366 366 364 363 363 361 361 359 356 351 349 345 345 345 344 343 343 343 343 344 344 345 348 350 351 351 351 352 353 354 355 357 359
360 360 361 361 359 358 357 352 350 353 353 353 352 351 352 351 349 351 354 357 361 364 363 363 364 364 363 365 365 365 365 366 365 364 363 362 362 361 359 356 353 350 349 348 346 345 344 343 342 343 344 346 348 349 350 351 353 354 355 357 360 361 362
358 357 355 352 351 353 351 348 349 353 353 352 349 349 353 356 353 351 352 352 354 358 361 363 362 363 363 363 363 364 365 365 365 364 364 364 362 362 362 359 357 355 354 351 350 348 345 344 344 344 346 348 349 349 350 352 354 355 356 358 361 363 364
356 356 352 347 347 351 351 347 342 339 340 340 336 334 341 353 358 358 356 355 353 352 355 357 359 360 362 363 361 363 364 364 365 365 365 364 364 363 363 361 360 359 357 355 354 352 350 349 349 349 349 349 351 352 352 354 355 356 358 359 361 363 364
353 352 352 350 349 351 354 354 346 337 336 343 343 338 336 342 351 357 359 359 358 356 352 351 352 355 358 362 362 361 362 363 365 366 365 365 364 363 363 362 362 361 361 360 358 355 354 354 353 353 353 353 354 355 356 357 358 359 360 361 361 362 362
353 354 356 357 354 349 347 348 344 340 344 352 355 352 347 343 342 345 353 357 359 361 358 354 352 351 352 356 360 360 361 361 363 365 365 365 365 364 363 364 363 364 364 363 362 360 358 358 357 356 357 356 357 357 358 358 359 359 361 361 361 362 362
356 356 357 359 357 353 351 351 347 345 349 353 360 364 361 356 348 341 342 348 354 360 362 359 358 355 353 354 357 359 361 361 362 364 365 365 365 364 364 364 364 366 365 365 364 363 362 361 361 360 359 360 360 360 360 360 360 361 361 362 362 363 363
353 353 354 357 356 352 354 357 355 352 351 351 361 369 366 362 360 354 345 345 349 355 361 363 361 359 357 355 356 358 360 361 362 364 364 365 365 364 364 364 364 366 366 366 365 365 364 363 362 362 362 361 362 362 362 363 364 364 365 365 365 365 365
351 352 353 356 356 353 354 358 357 358 356 350 354 366 367 363 364 363 358 355 353 356 362 363 362 361 361 359 358 359 361 361 362 363 364 365 365 365 365 365 365 366 366 367 366 366 365 364 364 364 364 363 363 364 364 364 365 366 366 367 366 366 366
350 352 352 353 355 353 354 357 357 358 359 353 353 364 368 365 365 365 365 363 361 360 363 364 363 363 362 362 361 360 361 362 362 363 364 365 365 366 366 366 366 367 368 368 367 366 366 366 366 366 366 365 364 364 365 365 366 366 366 366 366 365 365
348 350 350 352 353 352 352 355 356 357 358 357 357 363 366 365 367 367 367 367 366 364 363 364 364 364 364 363 363 362 362 363 364 364 365 365 366 367 367 367 368 368 368 368 368 367 368 367 367 368 368 367 365 364 365 365 365 365 364 364 364 364 363
348 349 348 350 352 350 350 353 356 356 356 356 358 361 362 363 365 366 368 369 368 366 365 365 364 364 364 365 365 363 363 363 365 367 368 368 368 368 367 368 368 368 368 368 368 368 368 367 368 369 368 367 367 365 365 365 365 364 364 363 363 363 363
347 349 349 349 350 349 350 354 355 355 354 354 354 357 359 361 362 363 365 367 366 366 366 366 365 365 365 366 365 365 364 365 366 368 369 369 368 368 368 368 368 368 368 368 368 368 368 368 368 368 367 367 366 365 365 364 364 364 364 364 363 363 363
344 346 348 350 350 348 349 352 354 354 354 352 350 351 355 358 359 361 362 363 363 363 365 366 366 366 365 365 365 365 366 366 367 367 368 369 368 368 369 369 369 368 367 367 367 368 367 367 366 366 366 366 365 365 365 365 364 364 363 363 362 362 362
343 345 348 350 350 349 349 351 353 353 352 350 349 350 353 354 356 360 362 364 364 363 363 365 366 366 366 367 366 366 366 366 367 367 368 368 368 367 368 369 369 369 368 368 367 366 365 365 364 364 365 365 364 364 365 365 364 363 362 362 361 360 359
344 347 350 350 350 349 349 350 351 351 350 349 348 350 351 352 353 356 360 363 365 365 365 365 365 366 368 368 367 367 366 365 366 366 367 367 367 367 367 368 367 367 367 367 366 365 365 365 365 364 364 364 363 364 363 363 362 361 359 358 356 353 350
343 346 348 350 350 349 349 350 351 350 349 348 348 349 350 350 350 353 356 360 364 365 366 367 366 367 368 366 366 366 366 365 366 366 365 365 365 364 364 365 365 364 364 364 365 365 364 364 364 364 364 363 363 362 359 357 355 353 351 348 344 341 338

ECMWFFLT1_850_thetae_060.txt.gz
Theta_e
349 351 350 351 352 352 353 352 351 350 349 350 350 350 350 350 350 350 350 351 351 350 350 350 349 349 347 346 343 342 341 340 339 338 338 338 337 336 333 330 329 331 332 332 331 332 332 334 335 337 338 339 338 338 338 338 341 341 342 344 345 346 345
349 351 351 351 352 352 352 352 350 351 350 350 350 350 351 351 350 351 350 350 351 351 350 350 350 349 348 346 343 342 343 340 338 337 336 337 336 335 332 328 328 329 331 333 334 334 334 334 335 336 338 338 338 338 338 338 339 339 341 343 344 345 345
349 350 351 351 352 351 351 352 351 351 351 351 351 351 351 351 350 351 351 351 351 351 351 351 351 350 348 347 346 344 344 342 339 337 335 334 333 332 331 330 328 328 329 331 333 333 334 334 334 335 337 338 339 339 339 339 339 339 339 341 342 343 343
349 349 351 351 352 351 351 352 351 351 352 351 352 351 351 351 351 351 351 352 352 351 352 352 352 351 350 349 348 347 345 344 341 338 335 333 332 331 332 331 329 329 330 331 332 332 331 332 332 333 335 336 338 340 340 341 340 340 340 340 340 341 341
349 350 350 351 352 351 351 352 350 351 351 351 352 352 352 352 352 352 353 352 353 353 353 353 353 352 351 349 349 347 346 344 341 339 336 334 333 333 333 332 331 329 329 330 332 332 331 331 331 332 334 335 336 338 340 340 340 340 339 339 339 339 339
349 349 350 351 351 351 351 351 350 350 351 351 352 352 353 353 353 353 354 353 354 353 353 354 353 353 352 351 350 348 346 344 343 341 339 337 335 334 333 332 331 330 329 329 330 330 330 330 331 332 334 334 335 337 338 338 338 338 338 339 339 339 338
349 349 349 351 351 351 351 351 350 350 351 352 353 354 354 354 354 354 354 354 354 354 355 355 355 354 354 353 351 349 347 345 343 341 340 339 337 335 333 333 332 331 329 329 329 329 329 330 330 332 333 334 334 334 335 335 335 335 336 337 339 339 339
348 349 350 351 351 351 351 351 351 351 351 352 353 354 355 355 355 355 355 355 354 355 356 355 356 355 355 354 352 350 348 345 343 342 341 340 339 337 335 334 333 332 331 330 328 328 328 329 329 330 331 333 333 333 333 334 334 334 334 335 336 337 338
349 349 349 351 351 351 351 351 352 352 352 352 352 354 354 354 355 355 355 355 355 356 355 355 356 356 356 356 354 352 349 347 346 345 343 342 340 338 336 335 333 333 333 331 330 329 328 329 330 330 330 331 332 333 333 333 334 334 334 334 334 335 335
349 349 349 350 350 351 351 351 352 352 351 352 352 353 354 353 354 355 355 357 357 357 356 357 357 356 356 356 355 353 351 350 348 347 345 344 341 338 337 335 335 334 334 333 332 331 329 329 330 330 331 331 331 332 332 332 333 333 334 334 334 334 334
347 348 348 349 350 350 352 352 352 352 351 352 351 352 352 352 353 355 355 357 357 357 357 357 358 358 357 358 357 356 354 351 349 348 346 345 342 340 338 337 336 335 334 333 333 332 331 330 330 330 331 331 330 331 331 331 332 333 333 333 334 335 335
347 349 348 348 349 350 351 351 352 352 351 351 350 351 352 352 353 355 355 357 357 357 358 358 359 359 359 358 358 357 355 353 351 349 346 344 343 341 340 339 337 336 334 333 333 332 331 330 330 330 330 331 330 331 331 331 332 332 333 334 334 335 336
347 347 346 348 349 349 350 350 351 352 351 351 349 350 351 352 353 353 355 356 357 358 358 359 360 360 359 359 358 358 357 355 353 349 346 344 342 340 340 339 338 336 335 333 332 332 331 331 330 330 330 330 330 331 331 331 333 333 334 334 335 336 336
347 346 347 348 348 348 349 349 350 351 351 351 351 351 352 353 353 353 354 356 357 358 359 359 359 359 359 359 359 359 358 356 354 351 348 345 343 341 340 339 338 337 335 333 332 332 331 330 330 331 331 331 331 332 332 332 333 335 335 336 337 337 337
347 346 346 347 348 348 349 349 350 350 350 351 351 351 353 353 354 355 355 356 356 357 358 358 358 359 359 360 360 360 358 357 356 354 352 349 346 343 341 340 339 338 337 335 334 332 332 332 332 332 332 332 332 332 333 334 335 335 335 335 336 337 337
346 346 346 346 347 348 348 349 349 348 349 351 351 351 352 352 354 354 355 355 356 357 357 358 360 360 361 361 360 360 359 358 357 356 354 352 350 346 343 342 341 340 339 337 335 334 333 333 333 333 332 333 333 333 334 335 335 335 334 335 335 337 338
345 346 345 345 346 347 347 348 349 349 351 350 349 349 350 351 353 354 355 356 357 357 359 359 361 361 361 361 361 360 360 359 358 358 357 355 353 350 347 345 343 343 341 339 337 335 335 334 334 334 334 334 333 333 334 335 334 334 334 334 336 339 341
344 345 345 346 345 345 347 348 348 349 349 349 348 348 348 351 354 355 356 357 358 360 360 360 362 362 361 361 361 361 361 360 360 359 358 357 356 354 352 350 347 346 344 342 339 338 337 336 335 335 335 335 334 334 334 333 332 333 334 335 337 340 344
344 344 344 345 345 345 346 348 349 348 348 347 347 347 348 350 353 356 358 359 361 361 361 362 362 362 362 362 361 362 361 361 362 362 361 360 359 357 355 353 351 348 346 344 342 340 339 337 336 335 336 337 337 336 335 333 333 333 334 336 337 340 343
346 346 345 345 345 345 346 348 349 349 349 349 348 348 350 352 353 357 358 359 361 362 362 362 362 362 362 362 362 362 362 362 363 363 363 362 361 360 358 355 353 350 349 347 345 344 341 339 337 336 337 338 338 338 336 334 333 335 336 338 338 340 344
353 351 349 346 346 346 347 347 349 351 353 355 355 355 356 357 359 360 361 362 362 363 363 363 363 362 363 362 363 363 363 364 364 364 365 364 363 362 360 358 355 352 351 349 348 346 343 340 339 337 337 338 340 340 338 336 335 337 338 339 340 342 345
358 357 356 355 354 353 352 352 351 352 355 357 359 361 361 360 362 362 363 363 363 363 364 364 364 363 363 363 363 364 364 365 365 366 366 365 365 364 362 360 359 355 353 351 350 349 346 344 343 342 340 340 341 342 341 338 338 339 339 339 341 345 349
359 359 360 360 361 362 361 360 360 360 359 359 361 362 361 362 362 363 364 364 363 364 364 364 364 364 363 364 364 364 365 365 366 366 366 366 366 364 364 363 361 359 356 353 351 350 349 347 346 345 345 345 345 345 344 340 340 342 343 344 347 350 351
357 357 358 357 359 361 361 361 362 362 363 364 364 364 364 364 363 364 364 364 364 364 365 364 365 365 364 365 365 365 366 365 366 366 366 366 366 366 365 364 363 362 360 357 355 353 350 348 347 348 349 348 348 348 347 346 346 347 349 349 351 352 353
355 353 352 352 353 353 355 356 355 354 356 357 359 361 361 362 363 363 364 364 364 364 364 364 365 364 365 365 365 365 365 365 366 366 366 366 366 366 366 364 364 363 362 360 359 356 354 352 350 349 349 350 350 351 351 352 352 353 353 353 353 355 356
355 353 350 347 345 343 345 349 350 350 351 351 351 353 354 356 357 359 360 362 362 364 363 363 363 364 365 364 365 365 365 365 366 366 365 366 366 365 365 365 365 364 363 362 361 359 358 356 354 351 351 350 350 351 352 353 354 354 355 355 356 356 357
355 354 352 349 344 339 336 338 340 341 343 344 343 341 344 349 353 355 357 359 359 360 361 362 361 362 362 364 364 365 365 365 365 365 365 365 364 365 365 365 364 364 363 363 362 361 360 358 357 356 354 353 352 352 352 353 354 354 355 355 356 357 358
351 351 350 348 345 342 338 335 335 335 337 339 338 334 333 338 345 350 354 356 357 359 359 359 359 359 359 359 359 361 362 364 364 365 364 364 364 365 364 364 365 365 364 363 363 363 361 361 359 359 357 356 355 354 354 355 355 355 356 356 356 358 358
350 350 350 349 350 350 347 342 338 337 337 339 343 348 345 340 340 343 346 349 352 355 357 358 358 357 357 356 356 355 356 358 361 362 363 364 364 364 364 364 365 364 364 364 364 363 362 362 361 360 360 360 358 358 357 357 357 357 357 358 359 359 360
349 349 349 349 352 353 353 353 351 349 346 343 347 357 361 357 352 346 342 343 345 346 349 352 355 356 358 358 356 355 354 354 356 360 362 363 364 364 364 365 365 365 365 365 365 364 364 364 364 363 363 362 361 361 360 360 360 360 360 361 361 361 361
348 348 348 347 348 350 352 355 356 355 355 352 350 356 363 363 360 356 353 349 347 346 346 345 347 351 354 356 357 358 357 356 356 358 361 363 364 364 364 364 364 366 366 365 366 365 366 366 365 365 365 365 363 363 363 363 362 362 362 362 362 362 363
347 348 348 347 347 347 350 353 354 354 355 355 354 357 362 363 362 362 362 359 356 355 353 352 351 350 352 355 356 358 358 358 357 359 362 362 363 364 364 364 365 365 366 366 367 367 367 367 366 366 366 366 365 365 364 364 364 364 364 363 363 364 366
345 348 349 348 346 346 348 351 353 353 353 353 352 355 359 362 363 364 364 364 364 363 361 360 360 359 358 358 359 359 360 359 359 360 361 363 363 365 364 365 365 366 367 367 367 367 367 367 367 367 367 367 366 365 366 366 365 365 365 365 365 365 366
344 346 348 348 347 347 346 347 350 351 352 352 351 350 352 356 360 363 363 365 366 367 365 363 362 363 363 362 362 362 362 360 360 361 362 364 366 366 367 368 367 367 367 367 367 367 367 367 367 368 367 366 366 365 366 366 366 366 366 365 365 365 364
343 345 346 347 347 347 347 346 347 349 350 351 350 349 348 349 354 359 362 363 365 367 367 365 363 363 363 363 363 363 363 363 362 361 363 364 366 368 368 368 368 368 367 367 367 367 367 367 367 367 367 367 367 366 367 367 367 366 365 365 365 364 364
339 342 344 344 344 345 346 346 347 348 348 348 348 348 347 347 350 355 358 360 362 364 364 365 365 364 363 363 364 364 364 363 363 363 365 365 366 367 367 367 367 368 367 367 367 367 368 368 368 367 367 367 367 367 367 367 367 367 366 365 364 363 362
336 340 342 341 341 342 345 346 347 347 347 348 347 347 347 347 348 351 355 358 361 362 362 363 364 365 365 365 365 365 365 364 364 365 366 366 366 366 367 367 369 369 369 370 369 368 368 368 368 368 367 368 368 368 367 366 366 365 364 363 363 362 362
331 336 340 343 343 344 345 346 347 347 347 347 348 348 347 346 346 348 352 356 361 363 363 362 362 363 365 365 365 365 365 365 366 366 366 367 368 368 368 368 368 369 369 369 369 368 368 368 367 367 367 367 366 366 365 364 363 363 362 362 361 359 357

ECMWFFLT1_850_thetae_063.txt.gz
Theta_e
346 348 348 348 349 349 349 348 348 349 348 349 350 349 350 350 351 352 352 352 351 351 350 350 349 349 349 348 346 345 344 343 342 342 340 339 338 337 337 338 338 338 338 337 334 331 330 330 331 335 337 336 336 338 337 337 337 340 343 344 345 345 345
346 348 349 349 349 349 349 349 349 348 348 349 349 349 350 351 351 351 351 351 351 351 350 350 349 349 348 349 347 346 346 345 344 343 341 340 338 337 338 338 339 338 338 337 332 329 329 330 330 333 337 338 338 339 338 337 337 338 341 342 343 344 344
346 347 348 349 350 349 350 349 349 349 349 349 349 349 350 350 350 351 351 351 351 350 351 349 349 349 348 349 349 348 347 346 346 345 342 339 337 337 337 338 339 339 339 337 332 329 330 330 329 332 335 336 337 339 339 338 337 337 338 340 340 341 342
346 347 348 349 350 349 350 350 350 349 349 349 349 349 349 350 350 351 350 351 351 351 351 349 349 349 349 349 348 348 348 346 345 344 342 340 338 337 337 338 339 339 338 337 332 329 330 332 331 331 334 334 335 336 338 337 337 337 337 338 338 339 339
345 347 347 348 350 350 351 351 350 350 349 349 350 349 350 350 350 350 350 351 351 350 350 349 349 349 349 349 348 349 348 346 345 343 342 341 340 339 338 337 338 338 338 337 333 329 329 332 333 333 334 334 334 336 337 338 338 338 338 337 337 337 338
346 346 348 348 349 350 350 351 350 350 350 349 349 349 349 349 350 350 350 350 350 350 350 349 349 349 349 349 349 349 348 348 346 344 342 341 341 340 337 336 337 336 336 336 333 329 328 331 333 333 334 332 332 334 337 338 339 339 339 338 338 338 338
345 346 347 347 348 349 350 350 351 350 351 350 349 349 350 350 350 350 350 350 350 350 350 350 350 350 349 349 349 349 349 348 348 345 343 342 341 339 337 336 336 334 336 336 334 330 329 330 332 332 332 331 331 332 334 336 338 339 340 340 339 339 338
345 346 347 347 348 349 349 350 351 351 351 350 349 350 349 350 350 350 350 350 350 350 350 350 350 350 349 350 349 349 349 349 349 347 345 343 341 339 338 337 335 334 335 335 332 330 329 329 331 332 332 331 330 331 333 334 335 338 339 339 339 338 338
345 346 346 348 348 349 349 350 350 351 350 350 350 350 350 350 350 350 350 350 350 350 350 350 350 349 349 350 350 350 350 350 350 349 347 345 342 340 339 338 336 335 335 333 332 331 330 329 329 330 331 331 330 331 332 333 334 335 337 336 336 336 336
345 346 346 347 348 349 349 349 350 350 351 351 351 351 350 350 350 350 350 351 350 351 350 350 350 350 350 350 350 350 350 351 351 350 349 348 344 341 339 338 337 336 335 333 332 332 331 330 329 329 329 330 330 330 331 332 333 333 333 334 334 334 334
345 346 346 347 347 349 349 350 350 350 350 351 350 350 350 350 351 351 350 351 351 351 350 351 351 351 350 351 350 351 351 351 351 351 350 349 347 344 341 339 338 337 336 334 334 333 332 331 330 330 329 329 328 329 329 331 331 332 332 331 332 332 333
344 346 347 347 347 349 349 349 351 350 350 351 351 351 351 350 351 351 351 352 351 352 352 351 351 352 352 352 351 352 352 352 352 352 352 350 348 346 342 341 339 338 336 335 334 333 332 332 331 330 329 328 328 328 329 330 330 330 330 331 331 332 332
345 346 346 347 348 348 349 349 350 350 350 350 350 350 351 351 352 352 352 352 352 352 353 352 352 352 352 352 353 353 353 352 353 353 352 352 350 348 345 342 340 339 336 336 334 333 332 331 331 331 329 328 328 328 329 329 329 329 330 330 331 331 332
345 346 346 347 347 348 349 350 349 350 350 351 350 350 350 351 351 352 352 353 353 354 354 354 354 353 353 353 353 353 353 352 352 353 353 353 352 350 348 344 342 340 337 336 335 334 332 332 331 330 329 329 328 328 328 329 329 330 329 330 330 331 331
346 345 346 347 347 348 350 349 349 350 350 350 350 350 350 351 351 352 353 354 354 354 355 355 354 354 355 355 354 353 353 353 354 354 354 355 354 353 351 348 345 343 340 338 337 335 334 333 331 331 330 329 328 328 328 329 329 329 330 330 330 330 331
345 345 346 347 348 348 349 349 349 349 350 350 350 350 350 350 351 352 353 354 355 355 355 355 355 355 355 355 355 354 354 354 354 354 355 354 355 354 353 351 348 346 344 341 339 337 335 335 334 333 331 330 329 329 328 329 329 329 329 330 330 331 331
344 346 346 346 348 348 348 349 349 349 350 351 350 350 349 350 349 350 352 353 354 354 355 355 356 355 355 355 355 354 355 355 356 356 356 356 355 355 354 353 351 349 347 345 342 340 338 337 336 334 333 331 331 330 329 330 330 330 330 330 330 330 331
344 344 345 346 347 348 348 349 349 350 350 351 350 350 349 349 349 350 351 352 353 354 355 356 356 356 355 355 355 355 355 356 356 356 357 357 357 357 356 355 354 352 350 348 345 343 341 339 337 336 335 334 333 332 331 331 331 331 330 331 330 331 331
343 344 345 346 347 347 348 348 349 350 349 349 350 348 348 348 348 348 348 349 352 353 354 355 356 356 355 354 354 355 355 356 357 357 357 357 358 358 358 357 356 354 353 350 348 346 343 341 338 337 336 336 335 333 332 332 332 331 331 331 331 331 333
343 345 344 345 346 346 347 348 348 348 349 349 348 348 347 348 347 347 347 348 350 352 353 354 354 354 354 354 354 355 356 357 357 357 358 358 358 359 358 358 357 356 355 354 352 349 346 342 340 338 337 336 336 335 334 333 332 332 332 332 332 333 334
342 344 345 344 346 346 347 347 348 348 348 348 349 348 349 350 349 350 349 349 351 351 352 353 353 353 353 354 355 355 356 357 358 358 359 360 359 360 360 359 358 358 358 357 356 353 350 348 344 341 339 338 338 337 336 334 334 334 334 333 334 335 337
343 344 344 344 345 345 346 346 347 348 348 348 348 349 349 350 351 351 351 351 352 352 352 353 354 354 354 355 356 356 357 358 359 360 360 360 360 360 360 360 360 360 360 359 358 357 355 353 350 346 343 341 340 339 337 334 334 335 335 335 336 338 341
347 345 345 345 344 345 345 345 346 347 347 348 349 349 350 350 351 352 352 352 353 352 354 354 354 355 355 356 356 357 359 360 360 360 361 360 361 361 361 361 362 361 362 362 360 360 358 356 354 350 348 345 343 341 338 335 336 337 336 337 338 341 343
355 352 349 347 345 344 344 345 346 347 347 348 349 349 350 350 351 352 352 353 353 353 354 355 355 356 356 358 359 359 360 361 361 361 361 361 361 362 362 362 362 363 363 363 363 362 360 359 357 354 351 349 346 343 341 337 336 337 338 339 341 343 345
359 359 357 354 352 350 350 350 350 350 350 351 352 351 351 351 350 351 351 353 353 354 355 356 357 358 359 360 361 361 362 362 362 362 362 362 362 362 363 363 363 364 364 364 364 363 362 361 359 358 356 354 351 349 346 343 340 340 340 341 342 345 346
359 359 360 361 359 358 358 358 357 357 358 358 358 358 357 357 356 355 355 356 356 357 358 359 360 361 361 362 362 363 362 363 362 362 362 362 363 363 364 363 364 365 364 365 365 364 364 363 361 360 359 357 355 354 351 350 348 345 344 343 345 346 348
357 357 357 359 360 361 362 362 362 362 362 362 362 362 362 363 363 361 362 362 363 362 363 363 363 363 363 363 363 363 363 363 364 363 363 364 363 364 364 364 365 365 364 364 365 364 364 364 363 362 360 359 359 357 356 354 353 351 350 349 348 349 349
354 355 353 352 353 356 358 360 360 360 360 359 359 360 361 362 362 363 364 363 364 365 365 365 365 364 365 364 364 364 364 364 363 364 364 364 365 365 364 364 364 365 365 364 364 364 364 364 364 363 362 361 360 358 358 357 356 355 355 353 353 352 352
351 353 353 350 348 346 346 346 349 349 348 349 350 351 353 356 357 358 360 360 361 362 362 363 364 364 364 365 364 365 365 365 365 365 365 365 365 365 365 365 364 365 365 365 365 365 365 364 364 363 363 362 361 360 360 359 358 358 356 356 355 355 354
348 351 353 354 352 347 339 334 336 336 336 337 337 337 340 344 346 348 351 353 354 356 357 358 359 359 361 361 362 362 362 363 364 365 365 365 365 365 365 365 365 365 365 365 365 365 365 365 364 363 363 363 362 362 361 360 360 359 359 358 358 357 357
348 349 350 352 353 352 347 340 336 334 333 333 332 331 331 334 337 341 345 347 348 349 350 350 351 352 354 355 356 358 358 358 359 361 362 363 364 364 365 365 365 365 365 365 365 365 364 365 364 364 364 363 362 362 362 362 361 360 360 359 359 359 359
349 348 348 348 350 351 350 348 343 338 337 336 335 335 336 338 339 341 344 347 349 349 349 349 349 348 348 349 351 353 355 356 356 357 358 359 361 362 362 363 364 364 364 364 365 365 365 364 365 364 364 364 363 364 363 363 363 363 363 362 361 361 361
348 349 348 348 347 347 347 346 345 343 342 340 340 340 342 345 347 348 350 353 354 355 356 356 356 354 353 353 352 353 355 357 357 358 359 359 360 361 361 363 364 364 364 365 365 365 365 365 364 364 365 364 365 364 365 365 365 364 364 364 363 363 363
346 348 348 348 348 347 346 345 344 344 343 342 341 340 341 344 346 349 353 356 359 360 361 362 362 361 360 359 358 357 358 359 359 360 359 359 359 360 362 363 364 364 365 365 365 365 365 365 365 365 366 366 366 366 366 366 366 366 365 365 365 365 364
343 346 347 347 347 347 347 346 345 344 343 342 341 339 339 339 340 342 346 352 356 359 361 363 364 363 362 362 361 360 360 361 361 360 359 358 359 360 362 364 365 366 366 366 366 366 366 367 366 367 367 366 367 367 367 367 367 366 365 365 365 365 364
336 342 344 346 346 346 346 346 346 346 345 343 341 340 339 340 340 340 341 346 351 353 356 360 363 363 363 363 362 362 361 362 362 361 360 359 359 359 362 363 365 366 367 367 368 368 368 368 368 367 368 368 367 367 367 366 366 366 365 365 365 365 365
330 337 341 343 345 346 346 347 347 347 346 344 342 341 340 340 341 341 341 344 348 351 352 355 359 361 363 363 363 363 363 363 362 362 361 360 360 361 362 364 365 366 367 368 368 369 368 368 367 366 367 367 367 367 366 366 366 366 365 365 364 364 364
326 330 337 342 345 346 346 347 347 347 347 346 344 342 339 339 341 342 343 345 349 352 353 353 355 357 358 361 363 364 363 363 363 362 362 361 362 362 363 364 365 366 366 366 367 369 369 368 367 367 367 366 367 367 366 366 366 366 364 363 362 362 361

ECMWFFLT1_850_thetae_069.txt.gz
Theta_e
351 351 351 350 351 351 350 350 350 349 350 349 349 349 349 349 349 349 349 349 349 349 349 350 350 350 350 349 349 348 348 346 344 341 339 339 339 337 336 337 338 339 339 339 339 338 337 337 338 338 338 338 338 337 337 337 337 337 338 338 339 339 339
350 350 351 351 351 350 350 350 349 349 349 349 349 349 349 349 348 348 348 349 349 348 349 349 350 350 350 350 350 349 348 347 346 344 342 341 340 339 338 338 338 338 338 339 339 338 337 337 337 338 337 337 337 337 337 337 336 337 337 337 338 338 338
347 349 350 350 350 349 350 349 349 349 349 349 349 349 349 349 347 347 348 349 349 349 348 349 349 349 350 350 350 350 348 347 346 345 343 342 342 342 341 340 339 339 338 338 338 338 338 338 338 338 338 337 337 337 337 336 336 336 336 337 337 337 338
345 347 349 348 348 349 349 349 349 349 349 348 348 349 349 348 347 346 347 347 348 349 348 348 349 349 349 350 350 350 349 347 346 345 344 343 343 343 342 341 341 340 339 338 338 338 338 338 338 338 338 338 337 337 336 336 335 335 336 336 336 337 337
344 345 348 348 349 349 349 349 349 348 349 349 349 349 348 348 347 347 347 347 348 348 347 347 348 349 349 349 349 350 349 348 348 346 344 344 344 343 343 342 341 341 339 338 338 338 337 338 338 338 338 338 338 337 336 335 335 335 336 336 336 336 337
345 345 346 346 347 349 348 348 348 348 348 349 348 349 348 348 348 348 347 348 348 348 348 348 348 348 349 349 349 349 349 348 348 347 346 345 343 342 342 341 341 340 339 338 338 338 337 337 337 337 337 338 338 338 336 334 333 334 336 337 337 337 337
343 343 343 344 345 348 348 348 348 348 348 349 349 349 348 349 348 349 348 348 348 348 349 348 348 348 348 348 349 349 348 347 347 347 348 347 345 343 341 340 339 339 338 338 337 337 337 337 337 337 337 337 338 338 336 334 332 333 335 337 338 338 338
340 340 341 342 343 346 347 347 347 349 349 349 350 349 348 349 349 349 349 348 348 348 349 348 348 348 347 348 348 348 348 347 347 347 347 348 347 345 343 341 339 339 339 338 337 337 337 336 336 336 336 337 337 337 336 333 333 333 333 336 337 337 337
338 338 338 340 343 344 346 346 347 349 348 348 349 348 348 349 349 349 348 349 349 348 348 348 348 347 347 347 347 347 348 348 348 347 347 348 347 346 345 342 340 339 338 338 337 337 337 336 336 335 335 336 335 335 334 333 333 333 333 333 335 335 336
338 338 339 340 343 345 347 347 348 348 347 348 348 348 349 349 349 349 349 349 348 348 348 348 348 347 346 346 347 348 348 348 348 348 348 348 347 347 346 344 342 339 338 338 337 337 336 336 335 336 336 335 335 333 332 332 333 333 333 332 332 334 335
336 338 339 341 344 345 347 347 347 347 347 348 348 348 348 348 348 349 348 349 348 349 348 348 348 348 346 346 347 348 347 348 348 349 348 348 347 346 346 346 345 342 339 338 337 336 335 335 335 335 335 334 333 331 330 330 331 333 333 333 333 333 334
333 336 338 341 342 344 345 345 345 346 347 347 347 348 348 348 348 348 348 349 349 348 349 349 348 348 348 347 348 348 347 348 348 348 348 348 347 346 347 347 347 345 342 340 337 336 335 334 334 334 333 332 331 330 329 329 330 332 333 333 333 332 332
328 331 335 339 341 342 343 344 345 346 346 346 347 347 347 348 348 348 348 348 348 348 349 348 349 348 348 347 348 348 347 347 347 348 348 347 347 347 347 347 347 346 345 343 340 338 336 334 333 332 332 331 330 329 328 328 329 330 331 332 332 331 332
326 327 331 336 340 341 342 344 344 345 346 346 347 347 347 347 347 348 348 348 348 349 348 348 349 349 348 348 348 347 346 347 347 348 348 347 347 347 347 347 347 347 347 345 343 340 336 334 332 331 331 331 330 329 329 329 328 328 329 331 331 331 330
326 326 328 333 337 340 341 342 343 345 346 346 347 347 347 347 347 347 347 348 348 348 348 348 348 348 348 348 348 347 346 346 347 347 348 347 347 347 347 347 347 347 347 346 344 341 339 336 334 333 331 331 331 330 330 329 328 328 328 329 330 330 330
325 325 326 328 332 335 338 339 342 343 345 346 346 347 346 347 348 347 347 348 348 348 348 348 348 348 348 348 348 347 346 346 347 347 348 348 347 347 347 347 347 347 347 347 346 344 341 339 336 334 333 332 332 331 331 330 329 328 328 327 328 328 328
333 329 328 326 326 329 331 336 340 343 345 347 346 347 347 347 347 347 347 348 348 348 348 347 348 348 348 348 348 347 347 347 347 348 347 348 348 348 348 348 347 348 348 348 348 346 344 342 340 337 335 333 333 332 332 331 330 328 328 328 328 328 328
346 338 333 330 327 327 328 334 339 342 344 346 346 347 347 348 347 347 348 348 348 348 348 347 348 348 348 348 348 347 348 347 348 348 348 348 348 348 348 348 347 348 348 348 348 348 347 346 344 340 337 335 334 332 332 330 329 328 328 328 328 328 329
353 344 338 334 330 328 330 335 338 340 342 344 345 346 346 347 348 348 348 347 348 348 348 348 348 348 349 348 348 348 347 348 347 348 348 347 347 348 347 348 348 347 348 349 348 349 349 349 347 344 341 338 335 333 332 331 329 328 328 329 328 328 329
355 346 337 335 335 332 332 335 337 340 341 343 344 345 347 347 348 348 348 347 348 348 348 348 349 349 348 348 349 348 348 348 347 348 347 347 347 347 347 347 348 348 349 348 349 349 350 350 350 348 346 342 339 335 333 332 330 328 328 328 328 329 329
356 349 340 338 339 337 335 336 338 341 342 343 346 347 348 348 348 348 348 348 348 348 349 349 348 349 349 348 349 348 348 348 348 347 347 347 347 348 348 347 348 349 348 349 349 350 350 351 351 350 348 346 343 340 337 334 331 330 329 329 329 329 330
357 353 346 342 341 339 338 338 339 342 344 344 346 347 347 348 349 348 348 349 348 348 349 349 349 349 349 349 348 348 348 348 347 347 347 347 347 348 348 348 349 348 349 349 349 350 350 351 351 351 351 350 348 346 342 336 334 333 331 331 331 332 332
356 353 346 341 341 339 340 341 341 343 345 345 347 347 347 348 348 349 349 348 349 349 349 349 349 349 349 348 349 348 348 348 348 348 347 348 348 348 349 349 349 349 350 350 350 350 351 351 352 353 353 352 352 351 346 340 336 335 334 333 333 335 335
356 353 343 339 341 341 341 342 343 344 345 346 347 347 348 348 349 348 349 349 349 349 349 349 349 349 349 349 349 348 348 348 348 348 348 348 349 349 349 350 350 351 350 351 352 352 352 352 353 353 354 354 355 355 352 346 343 340 339 338 337 338 338
354 352 344 340 342 342 341 343 343 344 345 346 347 348 348 348 348 349 349 349 349 350 350 349 349 349 348 348 348 348 348 348 348 348 349 349 350 350 350 350 351 351 352 352 352 353 353 353 354 355 356 356 356 357 356 354 352 348 345 344 344 344 344
353 351 347 342 342 342 344 343 344 345 345 346 346 347 348 348 348 349 349 349 350 349 350 349 348 348 348 348 348 348 348 348 349 349 350 350 350 350 351 351 352 352 352 353 354 354 355 355 356 356 357 358 358 358 358 357 356 354 351 349 349 349 350
354 353 351 347 343 343 345 344 345 345 345 345 346 347 347 348 348 349 349 350 350 349 348 348 348 347 348 348 348 348 348 350 350 350 351 351 351 352 352 353 353 354 354 355 355 356 356 357 357 358 358 359 359 360 359 360 359 358 356 355 354 354 354
353 353 353 351 346 344 345 345 346 346 345 346 346 347 348 348 349 349 349 349 349 348 347 347 347 347 348 348 349 348 350 350 350 350 351 352 352 353 353 354 354 354 356 356 357 357 358 358 359 359 359 360 360 361 361 361 361 361 360 359 358 357 357
352 352 353 353 350 348 347 346 347 347 347 348 348 347 348 349 349 349 349 349 348 348 347 348 348 348 348 348 350 349 349 350 349 350 351 352 352 353 354 355 355 356 356 357 358 358 359 359 359 360 360 360 360 361 362 362 363 362 362 361 361 360 359
351 352 353 354 354 353 350 348 347 348 348 348 348 348 348 349 349 349 349 348 348 348 348 348 348 348 349 348 350 349 349 350 350 351 352 353 354 354 355 356 356 357 358 359 359 359 359 360 360 360 361 361 361 362 363 363 363 363 363 362 362 361 360
349 350 350 352 355 355 354 352 350 349 349 348 348 348 348 348 349 350 349 349 349 349 349 349 349 350 350 349 350 350 351 351 353 354 355 356 356 357 357 358 358 359 359 359 360 360 360 361 361 361 362 362 362 363 363 364 363 364 363 363 362 362 361
348 348 348 350 352 354 356 356 354 352 350 349 349 349 349 350 349 350 350 349 349 349 349 350 350 350 350 351 352 354 355 356 356 357 358 359 359 359 360 360 360 360 361 361 361 361 361 362 362 362 362 363 363 363 364 364 364 364 364 363 363 363 362
348 348 348 348 348 351 354 357 358 356 354 352 352 350 350 351 350 350 350 350 350 351 350 350 352 353 355 356 357 358 359 359 360 360 361 361 361 361 362 362 362 362 362 362 362 362 363 362 363 363 363 363 364 364 364 364 364 364 364 364 363 363 363
346 347 348 348 346 347 350 351 354 356 357 357 357 355 354 354 354 353 353 352 352 352 353 354 356 356 358 360 360 361 362 362 362 362 362 362 362 362 362 362 362 362 363 362 362 363 363 363 363 363 363 363 364 364 364 364 364 364 364 364 363 363 363
344 347 347 348 347 347 347 347 347 351 353 355 358 359 359 359 359 358 358 358 358 358 359 359 360 361 361 362 362 362 361 361 360 361 361 361 361 361 362 362 362 362 362 362 363 363 363 363 363 363 363 363 363 363 363 364 364 363 364 363 364 364 363
342 347 346 348 348 346 347 347 346 346 347 349 352 356 359 360 362 362 362 362 362 361 361 361 361 360 360 359 359 358 356 355 356 357 358 357 358 360 361 361 361 361 362 363 362 362 362 363 363 363 363 364 364 364 364 364 364 364 364 364 364 364 363
338 345 345 347 348 347 346 347 346 345 345 345 346 349 352 355 358 360 362 362 361 360 360 358 357 357 357 356 356 354 354 354 353 353 353 354 356 358 360 361 360 360 361 362 362 362 362 362 362 363 364 364 364 364 364 365 365 365 365 364 365 364 365
334 341 344 345 347 348 348 347 346 345 345 344 344 344 346 349 352 354 357 359 359 359 359 357 355 355 355 355 356 356 356 356 355 354 354 354 356 358 359 360 361 360 361 362 362 362 362 363 363 363 363 364 365 365 365 365 366 365 365 366 365 365 365

ECMWFFLT1_850_thetae_072.txt.gz
Theta_e
350 352 354 355 357 356 358 358 359 359 358 359 359 357 357 357 356 356 352 346 343 344 345 346 347 349 350 350 350 351 350 348 345 341 340 339 338 338 338 337 337 335 335 335 336 338 339 339 340 339 342 344 343 344 345 345 345 345 344 344 345 345 344
348 351 352 355 356 356 357 358 357 358 358 359 359 357 358 357 356 355 352 348 344 343 344 345 346 348 350 351 352 351 351 350 347 345 344 341 338 338 338 337 336 335 335 335 336 338 339 339 339 339 342 343 342 343 344 345 346 347 344 342 344 346 344
345 349 351 353 356 355 356 357 358 358 358 358 358 357 356 356 354 351 349 347 344 344 344 344 346 346 348 351 351 351 351 351 350 349 347 343 338 338 337 337 336 336 335 334 336 337 338 339 339 339 340 341 341 342 343 344 345 346 344 342 344 345 344
342 345 348 352 355 356 356 356 358 358 357 357 357 356 356 354 351 348 346 344 343 344 344 344 345 346 348 349 349 349 351 351 350 350 349 345 341 340 338 339 337 337 336 336 336 338 338 338 338 339 338 339 340 341 341 342 342 343 343 342 344 345 343
343 342 345 351 354 355 356 356 357 357 357 357 357 357 356 354 351 348 345 343 342 343 343 343 344 345 346 347 348 349 349 349 349 349 349 348 347 344 341 340 339 339 339 338 337 338 338 338 338 338 337 337 338 339 340 341 341 342 342 342 344 342 342
342 343 343 348 353 355 356 355 356 356 356 357 357 358 357 356 353 351 348 344 342 343 343 343 344 345 346 346 348 348 348 349 348 349 349 349 350 347 343 341 341 340 340 339 339 337 337 337 337 337 337 337 338 338 339 340 341 341 339 340 342 339 340
339 342 344 347 351 354 355 355 355 356 355 356 357 358 358 358 356 354 353 349 344 344 344 343 343 344 345 346 347 348 348 348 348 349 350 349 347 345 343 342 341 341 341 341 340 339 338 337 336 337 337 337 337 338 339 339 339 340 338 337 339 337 337
337 342 346 348 350 351 353 354 355 355 356 356 356 358 358 358 357 357 355 353 348 345 345 345 344 342 343 345 345 347 347 348 349 348 349 347 345 344 343 342 341 342 342 341 340 339 338 337 336 336 336 337 337 337 338 338 338 340 338 335 335 335 335
336 342 346 347 348 349 352 355 355 355 356 356 355 357 357 358 358 358 357 355 353 348 345 347 347 345 342 343 344 345 346 348 348 349 348 346 346 344 343 341 340 340 340 340 340 339 337 337 336 336 336 336 336 336 337 338 338 340 339 335 333 333 333
336 341 345 346 345 348 350 353 356 355 355 356 355 357 357 357 358 358 358 357 355 353 349 350 352 349 344 343 344 345 346 347 348 348 348 347 347 345 344 344 343 340 339 339 338 338 337 336 336 336 335 335 335 335 336 336 337 338 338 334 331 331 332
339 344 348 348 347 349 350 353 355 355 356 356 355 356 357 357 358 358 358 357 357 356 355 354 354 352 346 343 344 345 345 346 347 348 348 347 346 344 344 347 348 343 338 338 338 338 337 335 335 336 335 335 334 335 335 335 336 336 335 334 332 331 331
341 346 350 352 350 351 351 353 356 355 355 356 355 356 357 357 358 357 357 357 357 358 358 356 356 355 350 344 344 345 345 346 346 347 347 346 346 346 346 349 351 347 340 336 337 338 337 336 336 336 335 334 334 334 334 334 334 334 333 333 332 331 330
339 341 344 347 349 350 351 353 356 357 355 355 355 356 356 357 357 357 357 357 357 358 358 357 357 356 352 346 345 346 345 345 346 346 346 346 346 348 349 350 352 350 344 338 337 338 337 336 335 335 335 335 334 334 334 334 334 333 331 331 331 332 331
337 337 342 345 348 350 352 354 356 356 355 355 355 355 356 357 356 357 357 357 357 358 358 358 357 355 352 349 347 346 345 344 345 346 347 347 346 348 349 350 351 349 345 341 338 338 336 336 335 335 334 334 334 334 334 334 333 332 331 330 330 331 332
336 334 338 344 348 350 351 353 355 354 353 354 354 354 355 356 356 357 357 357 357 358 358 358 356 355 352 350 347 346 345 344 345 346 347 347 347 348 348 349 348 347 345 343 341 340 338 338 339 336 333 332 333 333 333 333 332 331 329 328 328 329 330
338 335 337 340 346 349 349 350 351 350 350 352 354 354 355 356 356 357 356 357 357 357 357 357 356 354 352 350 347 347 346 345 345 345 346 347 348 347 348 348 347 346 346 344 343 343 342 341 342 341 338 333 332 333 333 331 331 330 328 327 327 328 328
345 347 347 345 344 347 348 350 352 351 350 349 350 352 355 355 355 356 356 357 358 357 357 357 353 352 350 348 348 347 347 345 345 345 345 346 346 347 347 348 348 347 347 346 345 345 345 344 344 345 345 341 335 332 331 331 331 330 328 327 327 327 328
354 355 355 356 354 351 347 349 354 353 348 345 348 351 353 354 356 356 355 356 357 357 357 357 354 351 349 349 348 347 347 347 346 345 345 345 346 347 347 347 347 347 347 346 346 346 346 347 346 346 348 349 345 339 333 331 331 330 329 328 327 327 327
357 357 358 360 361 359 353 347 350 352 347 343 347 350 350 352 354 353 353 354 356 357 357 358 356 353 350 349 348 347 347 347 347 346 345 346 346 346 347 347 347 348 347 347 347 347 347 347 348 347 348 349 349 345 339 335 332 331 330 329 329 328 328
357 358 359 360 361 363 358 348 346 350 350 345 344 346 349 352 352 353 354 354 356 356 357 357 356 354 350 349 348 347 347 347 347 347 346 346 346 346 346 347 347 347 347 347 347 348 347 347 348 348 347 348 348 347 344 340 336 332 330 331 330 329 329
356 358 359 360 361 362 360 351 343 345 353 352 347 348 354 355 354 355 355 354 354 355 355 355 354 352 351 348 347 347 347 347 348 347 347 347 346 346 346 347 348 348 348 348 348 348 347 347 348 348 348 348 348 347 346 344 339 333 329 330 330 330 331
355 357 358 359 360 362 361 355 345 342 350 354 352 352 354 355 355 355 356 354 352 353 353 352 352 351 349 347 347 347 347 348 348 348 348 347 347 347 347 347 348 348 348 348 348 348 347 347 348 348 348 349 349 349 348 345 340 336 332 330 330 332 333
354 355 357 358 360 361 359 354 347 344 349 354 354 352 354 356 355 355 356 355 353 352 352 351 351 349 347 347 347 347 346 348 348 347 348 348 348 347 347 347 348 347 348 348 348 348 348 347 348 348 348 348 349 349 348 347 343 339 336 333 333 334 334
352 355 356 357 360 360 354 350 349 348 351 355 354 352 355 356 356 356 355 354 352 351 350 349 349 347 347 347 347 347 347 347 348 348 348 348 348 347 347 348 348 347 348 348 348 348 348 348 348 348 347 348 349 349 349 348 346 343 340 338 338 337 337
352 354 355 357 359 358 352 350 351 350 353 356 353 353 356 356 355 356 354 352 351 351 349 349 347 346 347 347 347 347 348 347 348 348 347 347 347 347 348 347 348 347 347 347 347 348 348 348 348 348 348 349 349 350 350 350 349 348 345 342 341 341 342
352 353 355 356 358 357 353 353 353 353 354 354 353 356 357 356 355 355 352 350 351 350 348 347 346 347 347 347 347 348 348 348 347 347 347 347 347 347 348 348 348 348 348 347 348 348 349 350 350 349 349 350 350 351 351 351 352 351 349 347 345 345 346
351 352 354 355 356 356 355 355 355 354 353 354 355 357 356 356 355 354 351 349 349 348 347 347 347 347 348 347 348 348 348 348 347 347 347 348 347 348 348 348 348 349 348 349 350 350 350 351 353 354 354 353 354 354 354 354 354 354 354 352 350 349 350
349 350 353 354 356 356 357 356 355 354 355 356 356 356 355 354 353 350 349 348 347 346 347 348 347 348 348 348 348 348 348 348 348 347 348 347 348 348 348 348 349 350 351 351 352 352 352 352 353 355 357 357 357 357 358 358 357 356 356 356 355 354 354
347 349 351 354 354 355 357 359 357 355 356 358 357 356 356 353 350 348 347 345 346 347 349 348 347 347 348 348 349 348 348 348 348 348 348 348 348 348 348 349 350 351 352 353 353 355 356 356 356 357 358 360 360 360 361 361 360 359 358 358 358 357 357
347 348 350 353 354 355 357 359 359 357 356 357 357 356 357 355 351 347 347 346 346 348 349 348 348 349 348 349 348 349 349 348 348 348 348 348 349 349 349 350 350 351 352 353 355 358 360 360 361 361 361 361 362 362 362 362 362 362 360 360 359 360 360
346 348 350 352 354 356 357 357 359 360 358 357 357 357 357 356 352 347 348 349 349 348 350 350 349 349 349 349 349 349 349 349 348 349 349 350 350 350 351 352 351 352 353 353 357 361 362 362 362 363 362 362 363 363 363 363 364 363 363 362 361 361 362
347 348 350 352 353 355 357 357 358 360 360 359 359 359 359 358 356 351 350 351 350 348 350 351 350 350 349 349 349 349 349 349 350 349 349 350 350 351 351 352 353 353 353 355 360 362 363 363 363 364 364 364 364 364 364 364 364 365 365 364 363 362 363
345 348 349 350 351 353 356 357 358 358 359 360 361 361 361 361 360 357 353 351 352 351 350 350 350 349 349 349 349 349 349 350 351 352 352 351 351 353 353 352 355 356 354 355 360 364 364 364 364 364 364 365 365 365 365 365 365 365 365 365 364 364 363
342 347 348 348 349 351 352 354 357 357 357 359 360 361 362 362 362 362 358 353 352 353 351 349 349 349 350 350 350 350 350 350 351 355 357 355 354 358 360 358 358 360 359 357 360 363 365 365 365 365 365 365 366 365 365 365 366 366 366 365 365 364 364
339 344 348 347 347 347 348 350 354 355 357 358 358 359 361 361 361 361 359 353 352 353 351 349 349 350 349 350 350 349 351 351 351 355 360 362 361 362 364 364 363 364 364 363 362 363 365 365 365 365 365 365 365 365 366 366 366 365 366 366 365 365 365
336 340 346 347 345 345 346 347 349 351 354 356 358 358 359 359 359 359 358 355 355 356 353 350 350 350 351 351 352 353 354 354 354 357 361 365 367 365 362 363 363 364 364 365 365 365 364 365 365 365 365 365 365 365 366 366 365 366 365 366 365 364 363
334 336 340 344 345 345 345 345 345 348 350 352 355 357 358 359 359 359 360 360 360 359 355 351 349 352 355 355 355 355 356 355 357 360 362 364 368 368 365 362 363 363 363 365 366 366 364 363 364 364 365 365 365 365 365 365 365 365 365 365 364 364 363
331 333 336 339 342 344 345 345 344 346 347 348 350 353 356 359 361 361 361 363 365 365 362 357 354 355 359 359 356 355 355 355 357 359 361 364 366 368 367 365 363 362 362 363 364 365 364 363 363 363 363 364 363 364 364 365 365 365 365 364 364 363 363

ECMWFFLT1_850_thetae_075.txt.gz
Theta_e
347 349 351 354 354 355 359 362 361 361 361 362 362 360 359 360 360 361 362 359 352 349 346 343 343 342 342 342 342 343 343 345 346 345 348 348 347 348 343 336 335 338 345 348 344 341 339 340 348 353 351 344 343 345 345 346 345 346 345 343 347 346 342
347 347 349 352 353 355 361 362 362 362 362 362 363 361 360 360 360 361 363 360 352 348 346 344 344 344 343 343 344 344 344 347 348 348 349 348 344 346 345 341 339 337 339 347 350 349 346 341 341 347 347 343 344 345 345 346 345 345 346 344 345 345 342
347 348 350 352 353 357 361 362 362 362 361 362 362 361 361 361 361 362 363 361 355 350 347 345 345 345 344 345 345 346 346 348 349 348 348 346 341 341 343 340 340 340 338 341 349 352 350 345 339 339 341 341 343 345 344 345 346 345 346 344 343 344 342
346 347 350 351 353 357 360 362 362 362 362 362 363 362 362 362 362 363 362 361 356 352 347 345 346 344 345 346 346 347 348 347 348 347 347 346 343 340 342 341 339 343 344 342 346 350 351 349 343 337 338 339 340 344 343 343 345 345 346 345 344 344 343
343 345 348 349 352 355 358 361 363 362 362 362 363 363 363 363 363 363 362 360 357 352 346 344 346 344 344 346 346 347 348 347 346 347 347 348 348 344 343 345 343 344 348 347 346 345 346 351 349 341 338 338 339 343 342 340 342 343 344 345 344 343 344
338 341 346 348 351 351 353 359 361 362 361 361 362 363 364 363 364 363 364 362 359 357 353 350 346 344 343 345 346 347 349 347 345 346 347 346 347 345 342 346 346 345 348 350 350 346 339 344 349 345 339 339 341 345 346 342 340 341 343 344 344 343 345
336 338 343 346 350 350 351 357 360 361 361 360 362 363 364 364 364 364 364 363 362 360 358 353 347 344 343 343 345 347 348 348 345 345 346 345 346 345 342 343 345 346 348 349 350 350 343 337 342 345 342 341 344 348 350 348 342 340 341 342 344 342 343
337 338 339 344 349 349 350 353 356 359 361 359 360 362 363 363 364 364 364 364 363 362 360 357 351 346 343 343 344 346 346 346 347 345 345 348 348 346 345 343 343 345 348 349 348 349 347 340 337 341 342 343 348 350 352 352 345 342 343 341 342 343 341
336 337 339 342 345 346 348 351 356 359 360 360 359 362 363 363 364 364 363 364 365 363 361 359 356 351 346 344 344 345 345 346 347 346 345 349 351 348 349 347 343 342 345 349 349 345 345 344 340 339 337 341 348 349 350 351 344 341 345 343 340 342 341
335 337 340 342 342 343 346 349 354 359 360 360 360 361 362 362 364 364 364 364 363 364 362 360 360 357 349 345 344 344 346 346 347 348 347 350 351 350 353 352 347 343 340 344 351 348 344 344 344 342 336 335 343 343 342 345 341 337 342 342 338 339 341
336 337 339 341 343 343 342 347 353 357 359 360 360 360 362 362 363 364 363 364 363 363 363 361 361 359 351 346 347 348 347 346 348 351 351 350 353 353 353 355 353 349 342 340 349 353 348 343 344 345 339 334 337 339 336 338 337 336 340 343 340 336 337
337 341 341 340 342 342 340 345 353 356 358 361 360 361 362 362 363 363 362 363 364 363 363 362 361 362 356 350 351 349 347 345 348 352 352 350 354 356 355 355 356 354 347 340 345 354 354 347 341 341 339 334 335 336 335 335 335 336 338 343 345 339 334
337 342 344 344 345 345 343 347 355 359 360 361 361 360 362 362 362 362 363 363 364 363 363 362 362 363 360 356 355 351 346 344 345 351 353 349 351 357 357 355 356 356 352 345 343 350 356 353 344 338 335 334 334 334 334 334 334 335 335 339 345 345 337
335 340 344 347 348 348 349 352 358 362 361 362 361 359 360 363 361 362 362 363 363 363 362 362 362 363 362 359 356 352 345 342 343 348 353 352 351 356 358 357 355 356 356 353 347 348 352 355 352 343 336 333 333 333 333 333 333 335 334 334 340 344 340
333 335 338 341 344 346 350 354 359 363 363 361 361 359 359 361 361 361 362 363 364 362 362 363 362 363 364 360 355 350 344 343 343 346 352 355 354 354 357 358 356 355 358 357 351 349 351 353 355 352 345 335 332 333 333 333 333 333 334 333 334 338 340
336 336 337 339 343 346 349 352 356 362 364 362 361 359 359 360 362 362 362 362 363 362 362 363 362 363 365 362 356 352 348 345 344 345 350 355 354 352 355 359 358 356 358 358 355 351 351 352 355 356 353 344 336 333 333 334 334 332 333 333 331 332 336
342 343 344 342 343 345 348 351 354 361 364 363 362 360 358 359 361 361 362 362 362 362 361 363 363 363 365 364 360 356 353 349 345 344 348 353 353 350 351 356 358 357 358 359 358 352 349 351 353 355 357 354 347 338 333 334 335 333 331 331 331 330 331
344 345 345 346 346 351 353 352 351 358 363 361 360 359 358 359 360 362 362 362 361 361 362 363 364 364 365 365 363 359 356 351 346 345 345 347 349 347 346 351 356 359 359 360 358 352 347 349 352 354 355 357 357 352 344 340 337 333 331 330 330 330 330
347 345 344 346 349 351 355 355 353 356 361 361 360 358 356 358 359 361 361 361 361 361 361 362 364 364 365 366 364 362 358 353 348 345 344 345 345 345 344 345 351 356 358 359 358 352 347 346 350 353 354 355 359 359 356 353 347 335 330 332 331 330 330
351 350 348 350 352 352 356 362 364 359 358 359 362 360 356 356 358 361 361 360 362 361 360 362 364 365 365 366 365 363 362 358 351 346 345 344 343 343 343 343 346 350 354 357 356 350 347 349 352 352 350 351 357 360 359 359 356 345 333 331 332 330 330
354 353 353 354 356 358 360 364 365 363 357 356 358 360 360 357 356 360 361 361 362 362 360 362 364 365 366 367 366 364 363 362 357 349 345 345 344 343 343 343 345 347 350 354 356 351 346 349 352 351 347 346 353 359 359 357 358 354 342 333 331 331 330
352 352 354 355 356 358 360 362 363 365 364 360 356 356 359 359 356 359 360 362 362 362 361 362 363 365 367 367 366 364 363 363 361 355 348 345 344 344 344 345 346 347 348 351 356 356 351 348 350 350 348 346 348 354 357 357 356 355 347 337 333 333 332
350 351 353 355 355 356 359 361 362 363 364 362 356 354 358 359 356 358 360 362 362 362 361 361 364 366 366 366 366 364 362 361 360 356 350 347 347 345 345 345 345 346 347 349 354 358 357 352 350 350 350 349 347 349 352 354 354 351 347 341 337 335 335
348 350 353 354 356 357 357 360 363 362 361 359 354 352 357 359 356 358 360 362 364 363 362 362 365 365 364 364 364 363 359 359 358 354 351 349 348 346 345 345 345 345 346 346 349 356 359 358 356 355 352 350 348 347 347 351 352 349 346 344 341 339 339
346 348 351 354 355 356 357 359 360 358 357 357 353 349 354 359 358 358 360 362 364 364 363 363 365 364 361 361 362 361 358 358 357 353 351 349 347 347 347 346 345 345 345 346 346 352 358 361 360 359 358 354 352 350 348 349 351 350 347 344 343 342 342
344 346 350 353 354 356 357 358 358 357 357 357 353 351 355 359 359 358 360 363 364 364 363 363 362 362 362 361 361 359 358 358 356 351 349 348 348 348 349 348 347 346 346 346 347 350 355 359 360 360 360 359 358 356 354 351 351 351 349 345 343 344 344
342 345 349 352 353 355 356 357 360 360 359 356 353 354 356 358 360 359 360 363 364 362 362 363 363 364 364 361 358 358 360 361 357 352 351 351 350 349 350 350 350 348 347 348 350 354 357 359 359 360 361 360 360 360 359 357 354 351 349 346 345 346 348
340 343 347 350 353 355 356 357 359 361 359 356 355 357 358 358 360 359 361 363 363 360 360 364 366 365 363 358 357 360 362 361 358 353 355 355 351 349 349 349 349 350 351 352 353 356 358 359 359 360 360 361 360 361 361 361 358 356 352 350 349 349 350
339 342 346 349 352 355 357 358 359 360 358 356 356 357 357 359 360 359 361 364 362 360 363 366 366 364 360 356 358 360 361 360 358 354 357 358 353 349 349 348 349 351 351 352 355 358 359 358 358 360 361 361 361 362 363 362 362 361 358 356 354 352 352
338 341 346 350 352 354 357 359 360 360 358 356 357 357 358 359 360 361 363 364 362 361 365 366 365 364 361 357 357 359 361 362 359 354 357 361 358 353 351 349 349 352 352 352 356 359 361 361 360 359 361 363 363 364 364 362 363 362 361 359 358 357 356
337 340 345 349 352 354 357 360 360 360 359 357 356 357 359 360 360 361 363 364 363 363 364 366 366 364 362 358 357 359 361 362 359 356 360 364 361 355 353 352 351 352 355 356 358 360 363 364 362 361 361 363 364 364 363 363 363 363 362 362 362 361 359
337 341 344 348 352 355 358 360 360 361 362 360 357 358 359 359 360 363 365 365 365 364 364 366 365 364 362 361 360 360 362 364 363 361 360 364 363 358 354 354 353 354 358 360 362 362 364 364 364 362 362 364 364 364 363 364 364 364 363 363 363 363 361
336 340 343 346 350 354 357 359 361 362 362 362 360 360 360 359 361 364 365 365 365 363 365 367 365 363 364 365 363 363 364 364 364 364 363 365 365 362 359 357 356 358 360 362 362 363 363 363 363 364 364 364 364 364 365 364 365 365 365 364 364 364 363
334 339 342 344 346 352 355 357 359 361 362 363 362 362 361 361 362 364 365 365 364 363 366 368 366 365 367 367 365 365 364 363 363 365 366 366 365 365 364 363 362 363 363 360 361 363 364 363 364 365 364 365 365 365 365 366 366 366 366 364 365 365 365
332 337 340 342 344 347 350 353 355 358 361 362 363 364 364 363 363 364 365 365 364 364 367 367 366 366 368 368 367 366 364 363 364 365 367 367 366 365 366 365 364 365 366 363 362 363 364 364 364 365 365 365 366 365 366 366 366 366 366 366 366 365 365
330 334 338 340 343 345 347 350 353 355 357 360 361 363 365 365 364 364 364 364 364 365 367 367 366 367 368 369 369 367 364 365 366 366 367 368 366 365 366 366 365 365 367 366 364 363 364 364 365 365 366 365 365 365 366 366 366 365 365 366 366 366 366
328 332 335 338 341 343 345 346 350 353 355 356 359 361 362 364 364 365 364 365 365 365 367 367 366 367 369 369 369 368 366 366 366 367 367 368 367 366 366 366 366 365 365 367 366 365 365 364 365 366 366 365 364 365 365 365 365 365 365 365 366 366 365
327 329 331 334 337 340 342 342 345 349 351 353 354 357 359 361 362 363 364 366 365 364 366 368 367 366 367 367 368 368 366 366 368 368 367 368 368 368 367 366 366 366 365 366 367 367 366 365 365 365 366 365 365 364 364 364 364 364 365 366 366 365 365

ECMWFFLT1_850_thetae_078.txt.gz
Theta_e
350 350 351 351 353 354 354 353 352 353 355 356 356 357 357 358 359 359 360 361 359 357 355 352 350 345 340 338 337 336 334 331 329 328 328 329 329 331 336 339 337 334 334 332 332 332 332 338 347 346 341 338 341 341 341 343 344 343 343 344 345 345 343
349 349 349 350 354 354 352 351 351 353 353 354 357 357 358 359 359 359 359 361 360 358 355 353 350 346 342 338 338 338 337 336 334 331 331 331 330 332 338 342 341 338 335 335 334 334 333 335 342 345 341 338 340 341 341 343 343 343 343 343 343 342 342
350 350 349 351 355 354 352 352 352 352 354 355 357 357 357 359 359 359 359 360 360 359 357 354 350 346 343 340 339 338 337 337 336 335 335 334 333 335 339 344 345 342 339 338 339 341 341 338 339 340 338 336 338 341 343 343 342 343 343 343 342 342 341
349 349 348 351 355 353 351 352 352 354 355 355 357 357 358 359 360 359 360 361 360 359 358 355 350 346 344 342 341 340 339 339 338 337 337 337 337 337 340 345 348 347 343 340 341 346 348 345 340 339 336 335 336 340 342 343 343 343 342 342 342 341 339
350 348 350 352 352 352 351 352 355 356 357 356 358 360 359 359 360 360 361 362 362 359 357 354 350 347 345 343 341 341 339 340 339 339 340 340 341 340 342 346 347 347 346 341 340 345 351 350 346 341 337 334 335 338 342 343 343 343 343 343 342 341 340
348 348 351 352 351 352 353 353 355 356 357 357 358 360 360 360 360 362 363 364 364 361 359 355 352 349 347 344 342 341 341 341 341 342 342 342 344 343 342 345 346 345 346 342 339 344 349 351 350 346 338 335 336 336 339 341 343 343 342 342 342 341 341
348 347 348 351 353 354 352 353 354 356 357 358 358 359 361 360 361 362 364 365 366 365 362 358 354 350 348 345 344 343 342 343 342 343 343 344 346 346 342 343 345 344 345 343 340 342 347 349 351 349 342 337 336 337 337 338 339 341 341 341 342 340 341
347 346 348 351 353 353 352 354 355 355 357 358 357 358 360 360 361 363 364 366 367 367 365 362 357 353 350 347 345 344 344 343 343 343 345 345 346 346 344 344 345 343 344 346 344 343 345 346 347 348 345 340 338 338 339 338 337 339 339 339 340 340 339
343 345 348 351 350 352 352 353 354 354 356 357 356 356 358 360 362 363 364 366 367 367 367 364 362 357 354 350 348 346 345 345 345 344 345 345 345 345 344 344 344 343 345 347 346 345 345 345 345 347 345 341 339 339 340 341 338 339 339 337 338 339 338
339 342 345 348 348 351 353 352 353 354 354 355 355 355 358 361 364 363 364 366 367 368 368 366 365 362 357 353 350 348 347 347 346 345 345 346 345 344 345 344 343 343 345 347 348 346 345 344 343 345 344 342 341 340 341 342 341 340 339 336 335 337 338
336 340 343 346 347 349 351 352 353 353 352 352 353 355 360 364 364 365 365 366 367 368 368 368 367 365 360 355 352 349 348 347 347 346 345 345 345 344 345 349 347 343 343 346 347 348 348 345 343 343 342 343 342 341 339 341 341 339 340 338 336 335 336
333 338 339 342 347 348 348 349 353 353 351 351 353 357 362 364 365 365 364 366 366 367 368 368 368 367 363 358 354 350 348 347 346 345 345 345 346 345 347 353 354 350 345 343 346 351 351 348 345 344 342 340 340 340 339 339 339 339 339 339 338 336 335
336 341 340 342 347 348 348 347 350 354 354 355 358 361 363 364 365 365 365 366 367 367 368 368 368 367 365 362 358 353 349 347 345 345 345 346 348 350 351 355 358 356 350 344 344 351 354 352 348 347 344 338 337 338 337 337 338 337 336 337 339 339 336
338 341 340 342 345 346 347 348 350 352 354 357 361 361 362 364 365 365 365 365 366 367 367 368 367 366 365 363 360 356 351 348 347 346 345 347 349 353 355 355 356 358 356 348 344 348 354 356 352 350 348 343 337 336 335 334 335 336 334 334 337 338 338
336 339 341 343 345 345 347 349 351 351 352 357 362 361 361 363 364 365 365 365 365 366 366 367 367 366 365 363 361 358 353 351 350 349 348 349 349 352 355 355 356 358 358 354 349 347 350 355 355 353 352 349 342 338 337 334 334 334 333 333 334 336 336
339 342 341 343 345 347 348 351 355 356 356 358 362 361 361 363 364 364 365 365 365 365 366 367 366 366 365 364 361 359 356 354 353 351 351 351 349 350 353 356 356 358 358 357 354 351 349 352 355 356 354 352 347 342 340 338 334 333 333 332 332 334 335
344 345 344 344 348 349 350 350 354 360 364 363 362 362 361 362 363 363 364 365 365 365 365 366 366 364 365 365 363 361 359 356 355 354 353 352 351 350 351 355 357 357 357 358 356 354 352 351 354 357 356 355 351 345 342 341 336 332 331 331 331 332 333
344 345 345 346 347 350 350 349 352 357 362 362 362 362 361 361 363 364 364 364 364 365 365 365 366 364 364 365 365 362 361 358 356 356 354 353 352 351 350 353 356 357 356 357 357 355 354 352 352 355 357 358 356 351 344 340 337 333 331 330 330 331 331
347 348 348 348 348 349 352 354 356 359 361 360 359 358 359 360 362 362 363 363 363 365 364 364 366 365 364 365 364 363 362 359 358 356 355 354 353 352 351 352 356 356 355 356 357 356 355 353 352 353 355 358 359 357 352 346 341 335 331 331 330 330 331
351 352 352 351 352 353 354 354 353 355 358 361 359 356 354 358 360 362 362 362 363 364 364 363 365 365 364 365 364 364 362 361 360 358 356 355 354 354 353 352 354 356 355 355 356 357 357 355 354 352 353 355 357 358 357 354 350 342 335 331 330 329 331
350 351 352 353 354 355 355 355 355 356 357 360 360 357 355 355 358 360 362 362 363 363 363 364 364 364 364 364 364 364 363 362 361 359 357 356 355 355 355 354 354 355 356 355 356 358 358 357 356 354 353 354 356 356 357 358 357 353 344 335 331 330 331
348 349 351 352 353 354 356 357 358 358 358 358 360 361 359 354 353 357 361 362 362 363 363 362 363 364 364 364 364 364 364 363 363 361 358 357 356 356 356 355 354 355 356 356 357 358 359 358 358 357 355 353 354 355 357 358 358 358 354 344 337 338 338
345 347 349 351 352 353 355 356 357 357 358 361 363 365 364 358 354 355 359 362 363 363 362 362 363 364 365 364 364 365 365 365 364 363 361 359 357 356 356 355 354 355 355 356 357 360 361 360 358 358 357 355 353 353 355 357 357 358 356 351 345 345 345
342 344 346 348 350 352 354 356 358 358 358 360 359 359 360 359 358 358 359 361 363 363 362 361 363 364 364 365 364 365 366 366 366 364 362 360 359 357 356 356 355 355 354 354 357 362 363 361 359 358 357 357 355 352 351 353 356 357 356 353 351 350 348
338 340 343 345 347 350 353 354 355 354 354 355 355 354 354 355 357 358 358 359 361 363 362 362 362 364 364 364 364 366 368 367 367 366 363 361 361 359 359 357 356 354 353 352 357 362 362 361 360 359 358 358 357 355 351 350 352 353 352 350 348 349 348
335 337 341 343 345 348 350 350 352 353 356 358 359 358 358 356 355 356 359 359 360 363 363 361 361 363 364 364 365 366 367 367 367 367 364 363 363 363 363 361 357 354 354 353 353 357 359 360 362 362 361 360 358 356 354 351 350 350 348 345 344 345 346
336 339 342 343 345 348 349 350 353 356 359 359 361 361 362 359 355 353 357 360 360 362 363 362 361 364 364 365 366 366 367 368 367 366 364 364 364 365 365 364 360 356 355 353 352 352 355 358 360 362 362 361 359 359 358 355 353 351 350 348 347 346 347
337 341 343 345 347 348 349 350 353 356 356 356 358 362 362 358 354 352 357 361 359 360 363 363 362 363 365 366 367 367 369 369 367 365 366 367 366 366 367 368 364 360 356 354 352 352 354 355 357 359 360 360 359 360 360 359 357 354 354 353 352 351 350
336 339 342 344 346 347 349 351 352 355 358 358 360 362 360 356 353 352 355 360 359 359 362 364 363 363 364 366 366 368 369 369 367 367 368 368 366 366 368 369 365 361 358 356 355 354 353 354 355 355 357 359 359 359 359 360 359 357 356 356 356 355 354
334 337 340 343 345 348 350 351 353 356 361 362 361 360 359 357 355 353 356 360 360 360 363 364 364 363 364 365 366 368 369 369 368 369 369 368 366 366 368 367 364 362 360 358 357 356 355 355 354 353 355 356 357 358 358 359 359 359 358 357 358 358 357
332 335 338 341 343 347 351 353 355 359 362 363 361 360 359 357 356 357 359 360 360 361 363 364 365 364 365 366 367 368 369 369 369 370 370 368 367 368 368 365 362 362 361 359 357 357 357 356 355 354 353 353 355 357 358 358 359 359 359 358 358 358 357
330 333 337 340 342 346 350 353 356 359 363 364 363 361 359 357 357 358 361 361 361 363 363 364 365 365 365 367 368 367 368 369 369 369 369 369 369 368 366 364 361 361 361 361 359 359 358 357 356 356 355 354 355 357 358 359 359 359 359 358 357 357 357
329 332 335 339 341 343 348 353 356 359 362 363 364 362 360 359 358 360 362 362 362 363 363 364 365 366 366 367 368 367 368 368 369 369 368 369 369 368 366 365 363 361 361 360 360 360 360 359 359 358 357 357 357 357 357 359 360 360 360 358 356 355 357
327 330 333 338 340 341 345 350 354 358 362 363 363 364 362 360 359 360 362 363 364 364 364 364 365 366 366 367 368 369 368 367 369 369 368 368 369 368 367 367 365 362 360 358 359 361 361 360 360 360 360 359 357 356 358 359 360 360 360 358 356 356 357
327 328 331 335 338 339 342 346 350 355 360 362 363 364 364 362 360 360 362 363 364 364 364 364 366 366 367 368 368 368 368 368 368 368 368 368 369 368 368 368 365 362 362 360 359 361 361 361 361 361 361 361 359 357 357 358 358 358 359 359 359 358 359
326 327 330 332 335 337 340 342 345 350 356 359 361 363 364 364 362 362 364 364 365 364 363 364 366 367 367 367 367 366 367 368 368 368 367 368 368 367 368 368 366 364 364 363 360 360 361 361 360 360 360 361 360 358 358 357 357 356 358 361 362 362 361
325 327 329 330 332 335 337 339 342 346 350 354 357 359 362 364 364 364 364 365 365 365 365 364 366 367 367 368 367 367 368 368 368 367 367 367 367 367 367 367 366 366 366 365 363 360 361 361 361 360 360 360 361 361 361 360 360 360 361 363 365 364 364
324 325 327 329 330 332 334 335 338 341 344 347 351 354 356 359 362 363 364 365 365 365 365 366 367 367 366 367 368 368 367 367 367 368 366 367 367 367 365 364 364 365 365 366 365 363 361 361 363 363 363 362 362 363 363 363 363 364 364 366 366 365 365

ECMWFFLT1_850_thetae_081.txt.gz
Theta_e
352 351 351 353 354 353 353 353 352 352 352 352 352 352 352 352 352 352 352 352 352 351 350 348 347 346 342 337 332 329 327 327 328 327 326 326 325 325 326 327 328 329 328 328 328 329 329 330 329 329 331 335 337 339 340 341 342 343 345 351 355 352 347
351 351 352 351 353 353 353 353 353 353 352 352 353 353 353 353 352 353 353 354 353 353 352 350 349 347 343 339 336 332 329 327 327 327 326 326 326 325 326 326 327 328 328 328 329 330 330 331 331 330 330 333 336 337 339 340 342 343 342 346 350 348 344
350 351 353 352 352 352 352 353 353 353 352 353 353 354 354 354 354 354 354 355 355 354 353 352 350 349 345 342 340 336 331 329 327 326 326 326 326 325 326 326 326 326 327 328 330 331 331 331 332 331 331 332 334 336 338 339 340 342 342 343 345 343 342
350 351 351 352 353 352 352 353 352 352 352 353 353 354 355 355 355 355 355 356 356 355 355 354 352 351 349 346 342 339 335 332 330 328 326 326 326 326 326 326 326 327 327 329 330 331 331 332 333 334 333 331 332 335 337 339 339 340 341 341 342 342 341
350 351 352 352 352 353 352 353 353 352 352 352 353 354 356 356 356 356 356 357 358 357 357 356 354 353 351 349 345 341 338 336 333 332 330 328 327 326 327 327 327 328 328 329 330 330 331 332 334 335 334 332 330 333 336 339 339 339 339 339 341 340 339
351 352 352 352 351 353 353 353 354 353 353 353 354 355 356 356 356 357 357 358 358 358 358 357 356 355 353 352 348 345 341 339 337 335 334 333 331 329 328 328 328 329 329 330 331 331 331 331 332 334 335 333 331 332 334 337 339 339 339 339 339 340 338
352 351 351 351 352 353 353 354 354 354 353 353 353 355 356 356 357 357 358 358 358 359 359 359 358 356 355 353 351 348 345 341 339 337 337 336 334 333 332 331 331 331 331 332 332 333 332 331 331 332 335 335 333 332 333 335 338 339 340 339 339 339 339
351 350 350 350 351 352 352 353 352 353 352 353 353 355 356 355 357 357 358 358 359 359 359 359 359 358 357 355 354 351 348 345 342 339 338 337 337 336 335 334 334 333 334 335 334 334 334 333 331 331 334 335 334 333 332 333 335 337 338 339 338 339 339
350 349 349 350 351 352 353 352 351 351 351 351 352 352 354 355 355 356 358 359 359 359 359 359 359 359 358 357 356 354 352 348 345 341 340 339 337 337 337 337 336 337 337 337 335 336 336 335 333 332 333 335 335 333 332 333 334 335 336 337 338 338 337
350 349 349 350 352 353 354 352 351 350 351 352 352 352 353 353 355 356 359 360 360 360 360 360 360 360 359 358 356 356 354 351 348 344 342 341 340 338 338 339 339 339 339 338 337 336 337 339 337 335 334 335 335 335 334 334 335 335 335 335 336 336 336
348 350 350 350 352 352 352 352 351 351 351 352 352 353 354 354 355 356 358 359 360 361 361 361 360 360 361 359 358 357 355 353 350 347 344 342 341 340 341 341 341 342 340 340 338 337 338 341 341 339 338 337 335 334 334 333 334 335 336 335 336 336 336
349 349 350 351 350 352 351 351 351 353 353 354 354 355 355 355 357 356 357 358 360 360 362 362 362 362 361 361 360 359 356 354 351 348 345 344 343 342 342 342 343 343 343 341 340 339 339 341 343 342 341 339 336 334 333 332 333 334 335 335 336 336 335
347 348 351 350 350 351 352 352 353 353 354 354 354 354 355 356 357 358 359 359 360 361 362 364 363 364 363 362 362 360 358 355 352 348 346 344 343 343 344 345 344 345 344 342 341 341 341 342 343 343 341 340 339 336 334 333 333 333 333 334 334 335 334
346 347 350 350 351 351 352 353 353 354 354 353 353 354 355 357 357 358 358 358 360 362 363 364 365 365 365 364 363 361 359 356 353 350 347 345 345 344 345 346 346 345 345 343 342 343 343 342 342 343 342 341 340 338 336 336 336 334 333 333 333 334 333
348 349 350 351 353 354 353 352 353 354 354 353 353 354 356 357 358 358 359 359 360 362 363 365 365 366 366 365 364 363 360 357 355 353 350 347 346 346 345 345 346 346 346 345 344 344 345 344 342 342 342 341 341 340 338 338 337 336 335 333 333 332 332
350 351 351 353 355 356 355 356 356 355 356 354 354 355 356 356 356 357 358 359 361 362 364 365 365 366 366 365 365 364 361 359 357 355 353 350 348 347 346 346 347 348 347 347 345 345 346 347 346 345 344 342 342 341 340 338 337 336 334 333 333 332 332
353 353 354 354 355 355 355 359 359 357 358 356 355 355 355 357 357 357 358 361 362 363 364 365 366 367 367 367 366 365 363 361 358 356 354 352 350 348 348 348 348 349 348 348 347 347 347 348 350 349 346 345 343 342 341 338 335 334 334 333 333 333 333
352 353 353 353 354 353 353 357 359 358 359 359 357 356 355 356 360 361 362 363 363 364 364 365 367 367 367 368 366 366 365 362 360 358 355 353 352 350 349 350 350 350 350 349 350 349 349 349 351 352 350 349 347 344 342 339 335 334 333 332 332 332 332
349 351 351 351 352 352 353 355 357 357 358 360 359 359 358 359 361 362 362 363 364 365 365 365 367 367 367 368 367 366 365 364 362 359 356 354 352 351 351 351 351 352 352 352 352 351 351 351 352 353 353 352 350 348 345 342 339 337 334 332 331 331 332
344 346 348 348 349 350 352 354 356 355 356 357 357 359 359 360 360 360 361 361 362 364 365 365 366 367 367 367 367 367 366 364 363 360 357 355 354 353 352 351 352 353 353 354 355 355 354 352 351 353 354 354 353 351 349 345 343 341 338 335 333 332 331
339 340 343 345 346 347 349 352 354 354 351 351 356 361 361 357 357 357 358 360 362 363 365 365 365 366 367 367 367 367 366 365 363 361 359 356 354 354 353 352 352 353 354 356 357 356 356 354 352 352 353 355 354 354 352 349 346 344 342 339 336 335 334
335 336 338 341 342 344 346 348 351 352 350 347 350 359 362 360 359 359 358 358 360 363 365 365 365 366 367 367 367 366 366 365 364 362 360 358 356 355 355 354 353 353 355 357 358 357 357 356 354 352 351 353 354 355 355 352 349 348 346 343 339 339 339
333 334 337 339 341 342 343 344 345 346 348 345 345 350 357 359 361 361 359 357 358 362 364 364 364 365 365 367 367 366 366 365 364 363 361 359 357 356 356 355 354 353 354 356 358 358 358 357 357 355 352 352 353 354 354 354 353 352 350 347 344 345 345
332 334 336 339 341 342 343 344 344 344 344 344 344 345 347 351 355 357 359 358 357 360 364 364 363 364 364 366 366 366 365 365 364 364 362 361 359 357 356 356 355 354 353 355 357 358 358 357 357 357 355 352 352 353 354 354 354 354 353 350 349 349 349
332 334 336 338 340 341 342 343 345 346 345 344 344 344 344 347 353 356 358 358 357 358 362 365 363 363 363 364 365 365 366 365 365 364 363 362 360 358 357 356 356 355 354 355 356 357 358 358 357 357 357 354 352 351 353 354 354 354 354 353 352 352 352
332 334 336 338 339 341 342 342 344 346 346 345 344 344 342 344 351 356 358 359 357 357 359 363 364 362 362 363 365 366 365 365 365 364 363 363 361 359 358 357 356 356 355 355 355 357 358 358 357 357 357 356 354 352 352 352 353 354 354 353 353 353 354
331 333 335 337 339 341 343 344 345 345 346 345 345 345 345 345 349 354 359 360 359 357 357 360 363 363 362 363 364 366 365 365 365 364 364 363 362 361 360 359 358 357 356 355 355 357 358 358 358 358 357 357 356 355 353 351 351 351 351 351 350 349 351
330 333 335 336 339 341 343 345 345 344 344 345 345 346 350 354 356 357 359 361 360 358 356 358 361 363 363 361 363 365 366 366 365 365 365 364 363 362 361 360 359 358 358 357 356 356 357 358 358 358 358 357 357 357 354 352 348 347 346 345 344 343 344
330 332 334 336 339 341 342 343 344 345 344 344 347 349 354 359 362 361 361 362 359 357 355 356 359 363 363 362 362 364 365 366 366 366 365 365 364 364 363 362 361 360 360 359 357 356 357 357 358 358 358 359 358 356 355 351 349 346 342 341 342 340 340
328 330 333 335 338 340 342 343 344 345 346 346 349 351 356 361 365 364 363 362 359 357 355 354 357 362 363 362 362 363 365 366 366 366 366 366 366 365 364 364 363 362 361 360 359 358 357 357 358 358 359 360 359 357 355 352 350 347 342 341 342 343 343
327 330 332 334 337 339 341 343 343 344 346 349 350 352 356 361 364 364 364 361 358 358 356 353 355 362 363 362 362 362 364 366 367 366 367 367 367 366 365 365 364 364 363 361 360 359 358 357 357 358 360 360 359 357 354 352 353 351 346 344 346 347 348
326 329 332 333 335 337 339 340 341 343 346 349 351 353 357 360 363 364 363 360 358 358 355 351 355 361 363 362 362 361 363 366 367 367 367 367 368 367 366 366 366 365 364 364 362 361 359 358 357 357 359 359 359 356 354 353 354 354 350 349 349 349 348
325 327 330 331 332 334 336 337 339 342 346 349 351 353 356 359 361 363 363 361 357 357 357 355 357 362 363 362 361 362 363 366 367 367 368 367 368 368 367 367 367 366 366 366 364 363 362 360 358 356 357 357 357 356 355 354 355 355 353 351 350 347 348
324 325 327 329 330 332 334 335 336 338 342 345 348 351 355 358 361 363 364 364 362 360 360 359 360 363 363 362 362 362 363 365 366 367 367 368 368 369 368 368 368 366 367 366 365 364 363 360 359 357 354 353 354 355 356 356 355 354 350 347 346 346 347
322 323 325 327 329 331 332 333 333 335 338 340 343 348 353 357 360 362 365 367 368 367 367 364 363 363 364 362 363 363 363 365 366 367 367 368 369 368 368 369 368 368 368 367 365 363 362 359 357 355 354 352 352 352 353 354 352 349 346 344 344 346 347
321 322 323 325 328 330 331 330 330 332 335 337 340 344 349 353 358 361 363 366 369 369 368 368 366 365 363 363 364 363 363 365 367 367 368 369 370 369 369 369 369 369 369 368 367 365 364 361 358 356 355 355 353 350 350 348 347 346 347 348 349 350 351
320 321 322 325 327 329 329 328 329 330 333 334 337 340 344 348 353 358 361 363 366 367 368 369 369 368 367 365 364 365 366 366 367 368 368 368 368 369 369 370 370 370 369 369 368 368 367 364 361 359 357 356 354 353 351 350 349 350 351 352 352 354 355
320 321 322 324 325 326 326 326 326 329 331 332 333 336 339 342 347 353 358 361 363 364 365 366 368 369 370 369 368 368 367 367 367 367 368 368 368 368 369 370 370 370 369 369 369 367 366 365 364 362 359 358 356 355 353 352 353 353 353 353 355 355 356

ECMWFFLT1_850_thetae_084.txt.gz
Theta_e
351 351 350 351 351 350 351 350 349 350 350 349 348 347 347 346 346 346 345 345 344 343 344 343 341 340 337 334 331 328 329 329 329 332 336 336 333 333 332 332 330 328 328 328 328 326 326 328 330 329 331 335 339 340 341 340 342 344 345 345 346 348 347
350 351 351 351 351 351 352 352 350 350 349 350 349 348 348 347 346 346 345 345 345 345 345 345 344 342 339 335 332 329 328 328 327 329 334 336 334 332 330 330 329 327 327 327 326 326 327 327 329 330 330 332 335 338 339 340 341 343 345 343 344 348 347
350 351 351 351 352 352 352 352 350 350 349 350 350 348 349 348 347 347 346 346 346 346 346 346 345 344 342 339 336 332 329 328 327 326 329 332 332 331 329 329 328 327 326 327 326 326 326 327 328 329 330 331 332 335 337 339 340 342 344 342 342 344 345
350 351 350 350 352 352 353 353 351 350 350 350 350 349 349 348 347 348 347 347 347 346 347 347 346 346 344 343 340 336 331 328 327 326 327 328 328 327 328 328 327 327 326 326 326 326 326 327 328 329 330 331 332 335 335 336 339 341 342 342 341 341 342
350 350 350 349 351 351 352 353 353 351 351 350 350 349 349 349 348 348 348 348 347 347 347 347 347 347 346 346 344 341 335 330 328 327 327 327 327 326 326 326 326 326 326 325 325 326 326 327 328 329 329 330 331 334 335 336 337 340 341 341 341 340 339
350 350 350 349 350 352 352 352 352 352 351 351 350 350 349 349 349 348 348 349 348 348 348 348 348 348 347 347 346 345 340 335 331 329 328 326 327 328 326 326 326 325 325 325 325 326 326 327 328 329 329 329 329 331 334 335 336 338 339 339 340 340 338
350 349 349 350 350 352 353 352 352 352 352 351 351 350 350 349 349 349 349 349 349 349 349 349 349 349 349 349 349 347 345 341 336 333 330 328 327 327 327 326 326 325 325 325 326 326 326 326 328 329 329 329 328 329 331 333 335 338 338 338 338 339 339
350 350 350 349 350 351 352 352 352 352 352 352 351 351 351 350 350 350 350 351 350 350 350 350 350 351 351 351 350 349 348 345 341 338 335 332 329 328 327 326 326 326 326 325 326 326 326 326 328 329 330 329 329 329 329 331 334 336 338 339 338 339 339
349 350 349 349 349 350 351 352 352 353 353 352 352 352 351 351 352 351 351 351 351 351 351 351 352 351 352 352 352 351 350 349 346 342 339 337 335 331 329 328 327 326 326 326 326 326 327 327 328 329 330 329 329 329 329 330 331 334 337 339 339 338 338
349 349 349 350 349 350 351 351 352 353 353 353 352 352 353 352 352 352 353 352 353 353 353 353 353 353 353 353 353 353 352 351 349 347 344 342 339 336 333 331 330 328 327 327 327 327 327 328 329 329 330 331 330 330 331 331 331 332 335 336 338 338 338
348 348 348 349 349 350 351 351 352 352 353 354 354 353 353 353 353 353 353 354 354 353 354 354 354 354 354 354 354 354 354 353 352 350 347 346 343 340 337 335 333 332 331 330 329 330 330 330 330 331 331 332 331 330 331 332 332 332 332 334 335 337 337
348 348 348 349 350 350 351 352 352 352 352 353 353 353 353 353 354 354 354 354 355 355 355 355 355 355 355 355 355 355 355 355 354 352 351 348 346 343 341 339 337 335 334 333 332 332 333 333 332 333 333 332 331 331 330 331 332 333 332 333 334 335 336
349 350 348 350 349 350 351 352 352 352 352 352 352 352 353 354 354 354 355 355 356 356 356 356 356 357 357 357 357 357 356 356 355 354 353 350 348 346 344 342 340 338 338 337 336 335 334 335 335 335 335 333 331 331 332 332 333 333 333 333 334 334 335
352 353 352 351 351 351 351 353 353 354 353 352 353 353 353 353 354 354 355 356 356 357 358 358 358 358 358 358 358 358 358 357 357 356 354 352 350 348 346 345 343 341 340 339 338 337 337 337 337 337 336 335 332 332 332 334 334 334 334 334 334 335 335
354 355 355 354 354 355 353 353 353 353 354 354 354 353 354 353 354 355 355 356 357 357 357 358 358 359 359 359 359 359 358 358 358 357 356 355 353 351 349 347 346 344 342 341 340 339 338 338 339 339 338 337 335 334 334 335 335 335 334 334 334 334 335
348 349 351 351 350 352 354 356 355 353 354 354 354 354 354 354 354 355 355 356 357 358 358 359 359 359 359 360 359 359 359 359 359 358 358 357 355 354 352 349 348 347 345 343 341 340 340 340 341 341 340 339 338 338 337 337 336 335 334 333 333 333 334
341 342 345 346 346 347 350 353 356 356 356 354 355 355 354 355 354 354 355 356 356 358 359 359 360 360 360 360 360 360 360 360 360 359 359 358 357 356 355 352 350 349 347 345 343 342 342 342 343 343 341 340 339 339 340 338 336 334 334 333 332 332 333
336 337 340 342 344 345 345 346 347 353 357 357 356 356 355 355 356 354 356 356 355 356 358 358 359 360 360 361 361 361 361 361 361 361 360 360 359 358 356 354 353 351 349 347 346 345 344 344 345 345 343 342 341 340 340 339 336 334 334 333 332 332 332
334 335 337 340 342 343 345 344 337 342 353 356 355 357 356 356 357 357 356 357 356 356 356 357 359 359 360 361 361 361 362 362 362 362 362 361 360 359 358 356 354 352 350 349 347 347 346 346 346 345 345 343 342 342 342 340 338 336 335 334 334 333 333
332 334 336 338 340 341 345 345 336 333 346 352 353 355 357 356 357 358 357 357 358 358 357 357 358 360 361 361 362 362 362 363 363 363 363 362 362 361 359 357 355 353 351 350 349 349 348 348 348 346 346 345 343 343 342 340 338 337 337 336 335 334 335
331 333 334 336 338 340 342 344 340 333 336 344 346 348 353 356 357 357 357 358 357 357 358 359 359 360 362 362 363 363 363 364 364 364 364 364 363 362 360 358 356 354 352 351 350 350 350 349 349 348 346 346 344 344 343 340 337 338 338 338 337 336 337
330 332 333 335 337 338 339 342 343 340 338 340 340 340 345 352 355 357 356 356 358 358 358 359 359 360 362 364 364 365 364 365 365 365 365 365 364 364 362 360 357 355 354 352 351 351 351 351 350 350 348 347 347 345 344 340 338 338 339 339 339 340 340
329 330 332 334 335 337 338 340 342 343 343 344 342 341 344 349 352 355 357 356 358 360 360 360 361 360 361 361 364 365 365 365 365 365 365 365 365 365 363 362 359 357 355 354 352 352 352 352 352 351 350 350 349 347 345 342 339 338 338 340 343 344 344
329 330 331 333 333 334 337 339 340 342 344 344 344 344 347 347 347 352 356 356 357 359 360 360 361 360 360 360 362 365 366 365 365 365 365 366 365 365 364 363 361 359 356 354 353 353 353 353 353 353 352 352 351 350 348 345 342 340 340 343 346 347 347
328 329 330 332 333 333 334 337 339 340 341 342 342 344 346 345 346 350 352 353 355 358 360 359 359 360 359 359 361 364 365 366 366 366 365 366 365 366 365 364 363 360 358 356 354 353 354 354 354 354 354 354 354 352 352 349 347 344 343 345 348 351 350
327 329 330 332 333 334 334 334 336 338 340 341 340 339 342 345 347 350 350 350 352 356 358 359 359 360 360 360 361 362 364 366 366 366 366 366 365 365 365 365 364 362 359 357 356 354 355 354 355 355 355 355 356 355 354 353 351 348 346 346 349 351 353
326 328 330 331 333 334 334 334 335 337 339 340 341 341 344 347 348 350 350 348 348 352 356 357 359 359 360 361 361 362 364 365 366 366 365 365 365 365 366 365 364 363 361 358 356 356 355 355 356 356 356 356 357 356 355 355 354 351 348 347 348 351 353
326 327 329 331 332 333 334 335 336 338 339 339 340 342 345 348 350 351 352 352 351 351 352 356 358 359 360 360 360 362 363 364 366 366 366 365 366 366 365 365 364 363 362 360 358 356 355 356 356 357 357 357 357 357 357 356 355 354 352 349 348 350 352
325 327 329 331 332 333 334 335 337 338 339 339 341 343 345 347 349 352 354 355 355 352 352 354 358 359 359 360 360 360 361 362 365 365 366 366 365 365 365 365 364 363 362 361 359 358 357 357 357 357 357 357 357 357 357 357 356 355 354 352 350 350 351
323 326 328 330 331 332 333 335 336 337 338 339 340 342 344 345 347 349 353 355 356 356 355 356 357 359 359 359 359 359 359 359 362 364 365 366 365 365 365 365 364 364 362 362 360 359 358 357 357 357 357 357 357 357 357 357 357 356 354 353 352 351 351
321 324 327 329 330 331 332 333 335 336 337 338 339 340 342 344 344 346 349 352 354 356 358 358 358 359 359 359 359 359 359 358 359 362 365 365 365 365 365 365 364 364 363 362 361 360 359 359 358 357 358 358 358 358 358 357 357 357 355 353 353 352 352
321 322 325 328 329 330 331 332 333 335 336 337 337 339 341 343 344 344 345 348 351 354 356 358 359 359 359 358 359 358 357 358 358 361 364 366 366 365 365 365 364 365 364 363 362 361 360 359 359 358 358 358 358 358 358 358 357 356 355 354 354 353 352
321 320 322 326 328 329 330 331 331 332 334 335 336 338 339 341 343 344 344 345 347 351 354 357 359 360 359 358 358 358 357 357 358 361 364 366 366 366 366 365 365 365 364 363 362 362 361 360 360 359 358 358 357 358 358 358 357 356 355 353 352 350 350
322 320 321 324 327 328 328 328 329 330 332 333 335 336 339 340 342 344 345 344 344 348 352 357 360 363 362 360 359 360 361 359 358 362 365 365 366 366 366 365 366 365 365 364 364 363 362 361 361 360 359 358 358 358 358 358 357 356 353 351 347 345 345
322 321 320 322 325 326 326 325 326 329 331 333 334 336 338 339 342 344 345 344 344 346 350 354 359 363 365 365 362 362 363 361 360 362 365 365 366 366 366 366 365 365 365 364 364 363 363 363 362 361 360 360 359 357 357 357 355 351 347 346 343 342 342
322 321 321 321 323 324 324 324 325 329 331 333 334 336 337 339 341 343 344 345 346 347 349 352 357 362 365 367 367 366 364 363 362 362 364 366 366 366 366 366 366 365 366 365 365 364 364 363 363 362 361 360 360 359 358 356 354 350 350 350 348 345 342
321 321 321 321 321 323 324 323 324 327 331 332 333 335 336 338 340 342 344 345 347 348 349 351 354 359 363 366 367 368 366 364 363 364 365 366 366 366 365 365 366 367 367 366 366 365 365 365 364 364 363 362 361 360 359 357 356 355 354 353 351 348 345
321 321 321 320 320 322 323 322 322 325 329 331 332 333 335 336 339 341 343 345 347 348 349 350 352 356 360 362 365 367 367 365 365 365 366 366 366 366 365 365 365 367 367 367 367 367 366 366 365 364 364 364 363 362 361 359 358 357 356 355 354 352 350

ECMWFFLT1_850_thetae_087.txt.gz
Theta_e
351 351 351 351 350 349 348 348 347 347 346 346 346 346 346 346 346 346 346 346 346 345 345 343 340 338 337 335 332 332 332 332 331 330 329 329 328 329 331 331 330 330 329 329 330 328 328 329 329 330 332 335 338 338 338 339 339 339 341 342 343 345 347
351 352 351 350 351 350 349 349 348 347 347 347 347 346 346 346 346 347 346 346 346 345 345 344 342 340 337 335 333 332 331 331 331 330 329 328 328 330 332 333 332 331 328 328 329 329 328 329 330 329 330 331 334 337 338 339 339 339 340 341 341 343 346
351 351 351 351 351 350 350 350 349 349 347 347 347 346 347 346 346 347 347 347 346 345 345 344 344 343 340 337 334 332 331 331 331 330 329 328 328 330 331 331 332 332 329 327 328 329 328 328 329 329 329 329 331 334 337 338 339 339 339 339 340 341 344
351 352 351 351 351 350 350 350 349 349 348 348 347 347 347 347 346 347 346 347 346 346 346 345 344 345 343 341 337 334 331 331 331 330 330 329 329 329 329 329 330 330 329 328 328 328 327 327 327 328 328 328 329 331 334 337 339 338 338 339 339 340 342
350 352 350 351 351 350 351 351 350 350 349 348 348 348 347 347 347 347 347 347 347 347 346 346 345 345 344 344 342 338 334 331 330 329 330 329 329 329 329 328 328 328 329 328 328 328 327 326 326 327 327 327 328 329 331 334 337 338 338 339 339 340 340
350 351 351 350 350 350 350 351 350 350 349 349 349 348 348 347 347 346 347 347 346 346 346 346 345 345 345 344 344 343 340 337 333 330 329 329 329 329 328 327 328 328 328 327 327 328 328 327 327 327 327 327 327 329 330 332 334 336 338 338 339 340 340
350 350 351 350 350 351 350 350 351 350 350 350 349 349 348 348 347 347 347 347 346 346 346 346 345 345 345 345 344 344 344 342 339 335 331 330 329 329 328 328 328 329 329 328 328 328 327 327 326 326 326 327 327 328 329 331 332 334 336 338 339 340 340
349 349 350 351 350 350 350 350 351 351 351 350 349 349 348 347 348 347 347 347 346 347 346 346 346 346 346 345 345 345 345 345 344 340 337 334 331 329 328 328 328 328 329 330 329 328 327 326 325 325 325 326 327 327 329 330 331 333 335 336 338 339 340
347 349 348 350 350 350 350 350 351 350 351 350 349 349 349 349 348 347 347 347 346 347 346 346 347 346 346 346 346 346 346 346 346 345 342 339 335 331 329 327 327 327 328 329 328 328 328 326 326 325 325 325 326 326 327 330 332 333 334 335 337 338 339
344 348 348 349 350 349 350 350 351 351 350 350 350 350 349 349 349 348 348 347 347 347 346 346 346 346 346 346 346 346 347 347 346 346 346 344 342 337 332 329 327 326 327 327 327 328 328 327 327 326 325 325 326 326 326 328 330 331 333 333 335 337 338
347 347 347 348 349 349 349 350 351 350 351 351 350 350 349 349 348 348 348 347 347 347 347 347 346 347 347 346 346 347 347 348 347 347 347 348 346 343 339 334 330 327 327 326 326 327 327 328 327 327 326 325 326 326 326 327 329 330 331 331 332 335 337
348 350 350 348 348 349 350 350 351 351 351 351 351 351 350 349 349 349 348 348 348 347 348 347 347 347 347 347 347 348 347 348 348 349 349 349 349 348 346 342 337 332 329 327 327 327 327 328 328 327 327 326 326 326 326 327 328 330 330 330 330 333 335
342 346 349 351 350 349 349 349 350 351 351 351 351 351 350 350 350 349 349 349 349 348 348 348 348 348 348 348 348 348 348 349 349 350 351 351 351 351 349 347 344 340 335 331 330 329 329 328 329 328 328 327 327 327 327 328 329 330 330 330 330 331 333
337 339 343 347 350 351 352 350 350 351 352 351 351 351 351 351 350 350 349 349 349 349 349 349 349 348 348 348 349 349 349 350 350 351 351 352 353 352 351 350 349 346 343 339 336 334 333 332 331 331 331 330 329 330 329 329 330 332 332 330 329 331 332
334 335 338 341 343 347 350 352 352 351 351 352 352 351 352 351 351 351 350 350 351 350 350 350 350 349 350 349 349 350 350 351 351 351 352 353 353 354 353 352 351 350 348 345 342 339 337 337 336 335 333 333 333 333 332 332 333 333 334 332 330 330 331
332 333 335 336 339 342 345 348 352 353 352 352 352 353 352 352 352 351 352 351 351 351 351 351 351 351 351 351 351 351 351 351 352 352 353 353 353 354 355 354 353 352 351 349 347 344 342 340 339 338 336 336 336 335 335 335 335 335 334 332 331 330 331
330 331 333 335 337 339 341 344 348 351 353 353 353 353 353 353 353 353 353 353 352 353 353 352 353 353 352 352 352 352 352 352 353 353 354 354 354 355 355 355 355 354 353 352 350 348 345 343 342 341 339 338 338 337 337 337 337 337 335 332 331 332 333
329 330 332 334 336 338 340 341 344 347 350 351 353 354 353 353 353 354 354 354 354 354 354 354 355 354 354 354 353 354 354 354 354 354 354 355 355 355 356 356 356 356 355 354 353 351 348 346 344 342 341 340 340 339 339 338 338 338 336 333 332 332 334
328 328 330 332 334 336 338 340 342 343 346 349 351 353 354 354 354 354 354 354 354 355 355 355 356 355 356 356 355 355 355 355 356 356 356 356 356 356 357 357 357 357 356 356 355 354 351 349 346 343 343 342 341 341 339 339 339 338 337 334 333 333 334
327 327 328 329 332 333 334 338 340 341 342 345 348 350 352 354 355 354 354 354 354 355 355 356 357 357 358 357 357 357 357 357 357 356 357 357 357 357 358 358 358 358 358 357 357 356 354 352 348 345 344 343 343 341 341 340 340 339 338 336 333 334 335
327 327 327 329 330 330 330 334 338 340 339 340 344 348 350 352 354 355 356 355 354 355 355 355 356 358 359 359 359 359 358 358 358 358 358 358 358 358 358 359 359 359 359 359 358 357 356 354 351 347 344 343 344 343 342 341 340 340 338 337 335 335 336
326 327 328 329 329 329 331 332 335 339 339 338 341 344 346 349 353 354 355 356 355 355 355 355 355 356 357 358 359 360 360 359 359 359 359 359 359 359 359 360 360 360 360 360 360 359 358 356 354 351 347 345 344 343 343 342 341 341 339 338 337 336 337
325 326 327 328 328 329 332 332 333 336 338 339 340 340 338 342 350 353 353 355 356 356 356 356 356 355 356 355 356 357 359 360 360 359 360 359 360 360 360 361 361 361 362 362 361 360 359 357 355 353 350 347 345 344 343 342 341 341 340 338 337 338 339
324 324 325 327 328 329 330 332 333 335 336 338 341 339 335 336 344 350 352 354 355 356 357 357 356 357 356 356 355 354 355 359 360 361 360 360 360 361 361 362 362 362 363 363 362 361 360 358 356 354 350 349 346 344 343 342 341 342 341 339 339 339 340
323 324 324 326 328 329 328 330 332 334 336 337 339 340 340 339 342 346 348 351 355 355 356 357 357 357 357 356 357 356 355 356 359 360 361 362 362 362 363 362 363 364 364 363 363 363 362 360 358 355 352 350 348 346 345 343 342 342 342 341 340 340 341
322 324 325 325 326 327 328 328 328 330 334 336 337 338 340 342 345 345 344 347 353 357 357 359 360 359 358 358 358 358 357 356 357 360 362 364 364 364 364 364 364 364 364 364 364 363 363 362 360 358 355 352 350 348 346 345 344 344 343 342 342 342 343
321 323 325 326 326 327 327 326 328 330 332 334 336 336 336 339 342 345 345 346 351 356 357 359 361 360 359 358 359 360 359 358 358 360 361 363 362 364 365 364 365 365 364 364 364 363 363 363 361 360 358 356 353 350 348 347 346 345 344 343 343 344 345
321 321 323 325 327 328 328 327 329 331 331 332 334 335 335 335 337 340 343 345 348 352 354 355 357 358 359 359 359 360 360 360 361 361 361 360 361 362 364 365 365 365 365 365 365 364 364 363 363 362 360 358 356 353 350 349 348 347 346 345 344 346 347
322 321 322 323 326 327 328 329 330 330 330 331 333 334 335 335 335 336 339 341 343 346 349 352 354 355 356 358 358 359 360 360 361 361 361 361 361 361 362 363 364 365 365 365 365 364 364 364 363 362 361 359 358 356 353 351 349 348 348 347 347 347 348
322 322 321 321 324 326 328 329 330 330 331 331 333 334 334 335 335 336 336 338 339 340 343 347 350 353 355 356 357 359 360 360 361 360 361 361 362 363 363 363 364 365 365 365 365 365 364 364 364 363 362 361 359 357 356 354 352 351 350 350 349 349 349
322 322 321 320 322 325 326 327 328 329 331 331 332 333 334 335 336 336 336 338 338 338 339 340 343 347 351 354 356 358 360 361 361 360 360 360 361 362 363 364 365 365 365 366 365 365 365 364 364 363 362 362 361 359 358 356 354 353 352 351 351 350 350
322 322 321 320 321 323 325 326 326 328 329 331 332 333 334 335 336 336 336 337 338 337 338 338 338 339 344 349 354 356 358 360 360 359 359 360 361 362 363 363 364 364 364 365 365 365 365 365 364 363 362 361 361 360 359 358 356 355 354 353 352 351 351
321 322 322 321 320 321 322 324 325 327 328 330 332 333 334 334 335 336 337 337 338 338 338 339 338 336 338 343 350 355 358 359 360 361 360 361 361 362 363 363 363 364 364 364 364 365 365 364 364 363 362 362 361 360 360 359 358 357 356 354 354 353 353
321 321 321 321 321 320 321 322 324 325 328 330 332 333 334 335 335 336 337 338 338 339 340 340 340 338 337 340 348 355 359 359 360 362 363 362 361 361 362 362 362 363 363 363 363 363 364 364 364 363 363 362 362 361 360 360 360 359 357 356 355 353 352
320 321 321 322 321 320 320 321 323 324 327 330 332 332 333 334 335 336 337 338 339 340 341 342 342 341 340 341 345 353 358 359 360 362 363 362 362 361 361 360 360 360 360 360 360 362 362 363 364 362 362 362 362 362 362 361 361 360 359 357 356 354 353
320 321 321 321 321 321 320 321 322 323 324 328 331 332 333 333 335 336 337 338 339 340 341 342 343 343 342 342 344 350 357 360 360 362 364 364 362 362 361 361 361 361 360 360 361 361 362 363 363 362 362 362 362 362 362 362 361 360 359 359 357 356 355
320 321 321 321 321 321 320 320 321 321 322 325 328 330 331 331 332 334 335 336 338 339 340 341 342 342 342 343 343 346 353 359 360 362 365 365 363 363 363 363 363 362 362 362 362 363 363 364 364 363 363 363 363 363 362 362 362 361 361 359 358 357 356
319 320 320 321 321 321 320 320 321 321 321 322 324 326 328 328 329 331 333 335 336 337 338 340 341 342 343 344 344 344 349 356 361 362 365 366 365 364 364 363 364 363 362 363 363 364 364 364 364 364 363 363 363 363 363 363 363 362 361 360 360 359 358

ECMWFFLT1_850_thetae_093.txt.gz
Theta_e
350 351 351 350 350 350 349 349 348 347 347 347 347 347 346 346 346 347 347 347 347 347 346 345 344 343 342 340 337 334 333 332 333 334 334 335 334 334 335 337 338 337 336 335 335 334 333 332 332 332 333 336 340 342 343 343 343 343 344 346 348 348 347
347 349 350 350 350 350 349 349 348 348 348 347 347 347 347 347 347 347 347 347 348 347 347 346 345 344 343 343 341 338 335 332 331 332 333 334 334 333 334 335 336 337 336 335 335 333 332 332 332 332 332 333 335 339 341 342 342 342 343 344 345 347 347
343 345 348 349 350 350 350 349 349 348 348 348 348 348 347 347 347 347 347 347 348 348 347 346 345 345 344 343 344 342 338 334 330 330 331 333 334 333 333 333 334 335 335 335 335 334 332 332 333 334 335 335 334 335 337 340 342 342 342 343 343 345 346
342 343 345 346 349 350 349 349 349 349 348 348 348 348 348 348 347 348 348 348 348 348 348 347 346 345 345 344 344 345 341 337 332 329 329 331 333 333 333 333 333 334 333 333 333 333 332 332 333 334 335 336 335 334 334 337 340 341 341 341 342 342 343
341 342 343 344 347 349 350 350 349 349 348 348 348 348 348 348 348 348 348 348 348 348 347 347 347 346 345 345 344 345 344 341 336 331 328 329 331 332 333 333 332 332 331 330 330 331 331 331 331 332 333 334 334 334 333 335 337 338 339 340 340 341 341
341 341 342 344 345 347 350 350 349 349 349 348 348 348 348 348 348 348 348 348 348 348 348 348 347 347 346 345 345 345 345 344 342 338 332 329 329 330 332 332 331 331 330 329 328 328 328 329 330 330 331 332 333 333 332 333 334 334 334 335 336 337 338
340 341 341 343 345 347 349 350 350 349 348 348 348 348 348 348 347 347 347 348 348 348 348 348 348 347 346 346 345 346 346 345 345 343 339 334 330 328 330 331 331 330 330 328 328 327 327 328 329 330 330 331 332 332 331 330 330 331 331 331 331 333 334
337 340 341 342 345 348 349 350 350 349 348 348 348 348 348 347 347 348 347 348 348 347 348 348 348 347 346 346 346 346 346 346 346 345 344 341 335 330 329 330 331 330 329 329 327 327 327 327 328 329 330 331 331 330 330 329 328 329 329 329 329 330 330
335 337 340 342 344 346 349 350 351 350 349 349 348 348 348 347 347 348 348 348 347 347 348 347 348 347 347 346 346 346 346 346 346 346 345 345 341 336 331 329 329 330 330 329 328 327 327 327 327 327 328 329 330 329 329 329 329 328 328 327 327 328 328
332 333 338 342 344 345 346 349 350 350 351 350 348 348 347 347 347 347 347 347 347 347 348 348 348 347 347 346 346 346 346 346 347 346 346 345 344 343 338 333 330 328 329 329 329 328 328 327 327 327 327 328 328 328 329 328 329 329 328 327 327 327 327
331 329 332 337 342 344 346 347 347 349 350 350 349 348 347 347 347 347 347 346 347 347 347 347 348 347 347 347 346 346 346 346 346 347 346 346 345 345 344 341 337 333 330 328 328 328 328 328 328 328 327 327 326 327 327 328 327 328 328 327 327 327 327
332 329 328 330 334 339 343 345 346 347 348 349 350 349 348 347 347 347 347 347 347 347 347 346 347 347 347 347 346 346 346 347 347 347 347 347 346 346 345 345 343 341 338 335 332 330 329 328 328 328 328 327 326 326 326 326 326 326 327 327 327 327 327
333 331 327 326 327 331 336 341 345 347 348 348 349 349 349 348 348 347 346 347 347 346 346 347 346 347 347 346 347 347 346 347 347 347 347 347 347 346 346 345 345 345 344 342 340 338 335 333 331 328 327 327 327 327 326 326 326 326 326 326 326 326 326
332 331 328 326 325 326 328 333 338 343 346 347 348 348 348 348 347 347 347 347 347 347 347 347 347 347 347 347 346 346 347 347 347 347 347 347 347 347 346 346 346 345 345 344 344 343 342 341 338 335 332 330 327 327 327 327 326 326 326 326 326 326 326
330 331 329 327 325 323 324 325 329 334 340 344 347 348 348 348 347 347 347 346 346 346 346 347 347 347 347 347 346 347 348 348 347 347 347 347 347 347 347 346 346 346 346 345 345 345 345 345 344 343 341 337 333 330 328 327 327 327 327 326 326 326 326
329 329 329 328 326 324 323 323 324 325 330 336 341 345 347 348 348 347 347 346 346 346 346 346 347 348 347 347 348 348 348 347 347 347 347 347 348 348 347 347 346 346 347 346 346 346 346 346 346 346 346 345 341 337 333 330 328 328 328 327 327 327 327
327 328 328 328 327 326 323 323 322 323 324 328 332 337 342 346 348 349 349 347 346 346 346 346 346 347 347 348 348 348 347 347 347 347 347 348 348 347 347 347 347 346 347 346 346 346 347 347 347 347 348 348 347 344 341 335 331 331 330 329 329 328 328
326 326 326 327 327 327 325 324 324 322 322 323 324 328 335 341 345 348 350 349 348 346 346 346 347 346 346 348 348 348 348 348 347 347 348 348 347 348 347 347 347 347 347 347 347 347 347 347 348 349 349 350 350 349 347 341 336 333 333 332 332 331 332
325 325 324 325 326 327 327 326 326 324 322 322 322 323 327 334 341 346 349 351 351 349 347 346 347 346 346 347 347 347 348 347 347 347 347 348 348 348 348 348 347 348 347 347 347 347 348 348 348 349 349 351 352 352 350 347 341 337 335 335 334 334 335
324 324 324 323 323 326 327 327 326 325 323 322 323 323 323 328 335 341 346 350 353 352 349 348 347 346 346 346 347 347 347 347 347 347 347 348 348 348 348 348 348 348 348 348 348 348 348 348 349 350 350 351 352 353 353 352 348 344 340 337 336 336 336
323 323 324 322 322 324 327 327 327 326 324 322 322 323 323 323 327 334 340 346 352 354 352 351 349 347 347 347 346 347 347 347 348 348 348 348 348 347 348 348 348 349 349 348 349 349 350 351 350 351 352 352 353 354 354 355 353 350 346 343 340 338 338
322 322 323 323 322 322 324 326 327 327 325 323 322 323 323 322 325 329 333 338 345 351 352 353 352 350 348 348 348 347 347 347 348 348 348 348 348 348 348 349 349 349 349 349 349 350 352 352 352 353 353 353 354 354 355 355 355 354 352 348 345 344 343
320 321 322 322 322 321 322 324 327 327 327 325 323 323 322 322 323 327 330 333 338 343 346 349 352 353 352 351 349 349 348 348 348 349 349 349 349 349 350 350 350 350 350 351 350 350 351 353 354 354 354 355 355 355 355 355 355 355 354 351 350 350 348
319 320 321 321 322 322 321 321 324 326 327 326 326 324 323 322 322 324 329 332 336 339 342 344 347 351 353 353 352 351 350 349 349 349 350 350 350 350 351 352 352 352 352 353 353 353 353 353 354 354 355 355 356 356 356 355 354 354 354 352 352 352 351
319 319 319 320 321 322 322 321 322 323 325 326 327 326 324 322 322 323 324 329 334 338 340 342 344 348 353 354 353 352 352 352 352 351 351 351 351 351 352 353 353 354 354 354 354 354 354 354 353 354 354 355 356 356 357 357 356 355 353 352 352 353 352
317 318 318 319 320 321 322 322 321 321 323 324 325 326 326 324 323 322 323 326 330 334 338 341 343 346 352 353 353 353 353 354 355 354 353 353 353 353 353 354 354 355 355 355 355 355 355 355 353 353 354 354 355 356 357 358 359 358 356 354 352 352 352
317 317 317 318 319 320 321 322 322 321 321 322 323 325 327 327 325 322 321 323 324 327 332 337 339 342 347 350 353 354 355 356 357 357 357 356 356 356 355 355 355 356 356 357 357 357 357 355 354 353 354 355 357 357 358 359 360 361 359 357 355 352 352
316 316 316 317 318 319 320 321 322 321 321 321 322 323 325 327 327 324 321 320 321 321 325 331 335 338 341 344 348 352 355 356 357 357 357 358 358 358 358 358 358 358 358 358 358 358 358 357 355 354 354 357 359 360 360 360 361 362 362 361 359 355 352
314 315 316 316 316 317 319 320 321 322 321 321 321 321 323 326 328 326 321 319 320 320 321 326 332 335 337 339 341 345 350 354 356 356 356 356 356 357 358 358 358 358 358 358 358 359 358 358 357 355 355 356 359 360 361 362 363 363 363 362 362 360 356
312 313 314 315 315 316 317 319 320 321 321 321 321 321 321 323 326 327 323 320 320 320 320 324 329 333 335 337 338 340 343 347 351 355 356 356 356 357 357 358 357 357 356 356 356 358 357 357 358 356 356 357 359 360 361 362 363 363 363 363 363 363 361
311 311 312 313 314 315 316 317 318 319 321 321 321 321 321 321 324 327 327 324 321 320 320 322 327 332 335 336 337 338 340 342 345 350 355 356 356 356 357 359 359 358 357 357 356 357 357 357 358 358 357 358 360 360 361 361 362 363 363 363 363 363 362
310 310 311 312 313 314 315 315 316 317 319 321 321 321 321 320 321 325 328 328 325 321 320 322 327 332 334 336 336 337 338 340 342 345 350 354 356 356 356 359 362 362 360 359 358 357 357 358 358 359 359 360 360 361 361 361 362 362 363 363 363 364 363
310 310 310 310 311 313 314 314 314 315 317 319 320 321 321 320 320 322 325 328 328 324 320 321 327 331 333 335 336 335 335 338 341 343 345 349 353 357 358 360 363 363 362 361 361 360 359 358 359 360 361 361 361 361 361 361 360 361 362 363 363 363 363
311 310 310 310 310 311 312 313 314 314 314 317 319 321 321 320 320 320 322 325 327 326 321 320 324 329 332 334 336 336 335 336 338 341 343 346 350 354 358 360 362 362 362 362 363 362 361 360 358 360 361 362 362 361 361 361 360 360 361 361 361 362 362
310 310 310 310 310 310 311 312 312 313 313 315 318 320 321 320 320 320 320 322 325 326 324 321 320 325 331 334 334 336 337 336 337 338 341 343 346 351 356 359 361 362 362 362 362 363 362 361 360 359 361 361 361 360 359 360 359 357 358 359 359 361 361
310 310 310 310 310 311 310 311 312 312 312 314 317 320 320 320 320 320 320 320 322 324 325 323 320 322 329 332 333 334 336 337 337 338 339 341 344 347 351 355 358 361 362 362 362 363 363 362 362 361 361 362 362 359 359 359 358 357 358 359 360 360 361
311 311 310 310 310 311 310 310 311 311 312 313 316 318 319 320 320 320 319 319 320 321 323 324 323 323 327 331 332 332 335 337 337 337 338 340 342 344 348 351 354 358 361 362 363 363 363 363 362 361 361 362 362 361 360 360 360 361 361 361 361 361 361
310 311 311 311 310 311 312 311 311 311 312 313 315 318 319 319 319 319 319 319 320 320 321 323 324 326 328 330 331 331 333 336 337 337 338 340 341 342 345 349 352 354 357 361 363 363 363 362 362 361 361 361 361 362 361 361 360 360 361 362 362 362 362

ECMWFFLT1_850_thetae_096.txt.gz
Theta_e
350 352 353 354 354 354 353 354 353 353 353 353 354 354 353 353 354 353 349 345 346 346 345 345 345 345 343 340 337 335 335 334 334 335 335 335 335 335 335 338 340 343 345 346 346 345 342 342 343 341 341 341 342 343 343 344 344 344 344 343 346 346 346
349 350 352 353 354 354 354 353 353 354 353 353 354 353 354 354 353 353 349 346 346 346 346 346 345 345 345 343 341 337 335 334 333 333 334 335 335 335 334 335 338 339 341 344 345 343 339 339 341 340 341 340 340 341 342 343 343 344 345 344 346 345 344
347 348 349 351 352 354 354 354 353 355 354 353 353 353 353 353 353 351 348 347 347 346 347 346 345 346 346 345 344 341 338 335 333 333 333 333 333 335 335 334 335 336 338 340 339 337 339 340 340 339 340 338 338 338 340 342 342 343 345 344 346 346 344
346 347 348 349 351 351 353 354 354 354 354 354 354 354 354 352 351 350 348 347 347 347 347 346 346 346 346 346 345 343 342 338 336 333 332 332 332 333 334 334 334 335 336 337 336 338 341 339 336 336 337 337 339 339 339 339 339 341 344 344 344 346 345
345 346 347 348 349 351 352 353 354 354 354 354 354 353 354 353 351 350 349 348 347 347 347 347 347 347 346 346 345 345 344 343 341 337 333 332 332 332 332 333 334 333 334 335 335 336 337 335 333 334 334 336 337 337 338 338 338 339 341 342 343 343 346
343 345 346 347 348 350 352 351 352 354 354 354 354 353 353 353 352 352 350 350 349 348 348 347 348 347 346 346 345 345 345 344 344 342 337 334 332 331 331 332 334 333 332 333 333 333 333 333 333 332 333 336 337 337 339 338 337 339 339 339 340 340 346
341 343 345 347 348 350 353 352 352 352 353 354 354 353 353 353 353 353 353 351 351 350 350 348 348 348 347 347 346 346 345 345 345 344 342 337 333 330 329 331 332 333 333 333 332 330 331 332 331 331 332 335 338 339 339 337 336 337 337 337 338 335 339
339 340 341 345 347 349 352 354 354 353 353 353 353 353 353 352 353 353 353 352 352 352 351 351 350 348 348 348 347 346 346 345 345 345 345 342 336 331 329 329 330 332 332 332 331 329 329 329 329 329 329 331 333 334 335 334 333 336 336 336 336 333 335
337 337 338 342 345 347 349 351 352 353 352 352 353 353 352 352 352 353 353 352 352 353 352 352 353 351 348 348 348 347 347 346 346 346 346 345 342 337 332 329 328 330 332 331 331 330 328 327 327 327 327 329 330 330 331 332 331 333 333 332 331 330 335
336 336 336 338 342 346 347 349 350 352 351 351 352 352 353 352 351 351 352 351 352 352 352 353 354 353 351 348 348 348 347 346 346 346 346 346 346 344 339 335 331 328 329 331 332 332 329 327 327 327 326 328 329 329 329 329 329 330 330 330 329 328 330
335 335 334 334 335 341 345 347 348 350 351 351 351 351 352 353 352 351 351 351 352 352 351 352 353 353 353 350 349 348 348 347 347 346 346 345 346 346 344 344 340 334 328 328 332 333 331 328 327 328 327 327 328 328 328 328 328 327 328 328 329 328 328
334 334 334 333 331 332 337 341 344 347 349 350 350 351 351 351 351 352 351 351 351 351 351 352 351 352 352 352 351 349 348 348 347 346 347 346 346 347 347 347 346 343 334 329 328 330 330 330 328 327 328 327 327 327 326 327 327 327 326 328 330 329 329
334 333 333 333 331 328 328 332 335 340 344 347 349 349 350 350 350 352 351 351 351 351 351 351 351 351 351 351 352 351 348 347 347 347 347 346 345 347 348 348 348 348 344 336 332 329 329 330 329 327 327 327 327 327 326 326 326 326 325 326 329 329 327
333 332 332 332 331 329 327 326 327 331 336 340 345 347 348 350 349 350 352 351 351 351 351 351 351 351 350 349 349 349 347 347 347 347 347 346 346 346 347 348 348 348 347 344 341 337 334 334 333 330 328 327 327 327 327 327 326 326 325 324 326 326 326
331 331 331 332 332 332 330 327 325 325 327 331 337 343 346 348 348 349 350 351 352 352 350 350 351 351 351 349 348 347 348 348 347 347 347 346 346 346 346 347 347 347 346 346 345 344 342 341 341 339 335 332 330 329 328 328 327 326 326 325 325 326 326
330 330 330 330 331 332 332 330 327 324 324 326 328 332 339 345 347 348 348 350 351 352 352 351 350 351 352 351 349 347 347 348 347 347 347 347 346 347 347 347 347 347 347 347 346 346 345 345 345 345 344 342 340 337 335 333 330 328 327 327 326 326 326
330 330 329 329 330 331 332 332 329 326 325 325 325 325 329 336 342 346 348 349 349 351 352 352 351 350 351 352 350 348 347 347 347 346 347 347 347 347 347 347 347 346 347 347 347 347 346 346 345 345 346 346 345 344 343 341 338 332 328 327 328 327 327
329 330 329 329 329 330 330 331 331 329 326 325 325 324 323 328 334 339 344 347 349 349 350 352 353 351 352 352 352 350 347 346 347 347 347 346 346 347 347 347 347 347 347 347 347 347 346 347 346 346 346 346 346 347 347 347 346 341 334 329 328 327 328
328 329 329 329 329 329 329 330 331 331 329 326 326 327 326 325 329 333 336 341 345 349 350 351 352 352 352 353 353 353 350 347 346 346 347 346 347 347 347 346 347 347 347 347 347 347 346 347 347 346 347 347 346 347 347 348 348 347 342 336 332 330 329
327 327 328 328 329 328 328 328 329 331 330 327 326 328 328 328 328 329 331 334 338 344 349 351 352 352 353 352 352 354 353 350 347 346 347 347 347 346 347 346 346 347 347 347 347 346 347 347 347 347 347 347 347 348 348 349 349 349 346 341 338 336 334
326 326 326 327 328 328 328 328 327 328 328 327 327 328 328 328 328 327 329 332 335 337 343 348 351 352 352 352 352 353 354 354 351 347 346 347 347 347 347 347 347 347 347 347 347 347 348 347 347 348 347 348 348 349 349 350 351 350 349 345 343 343 342
324 324 325 325 326 327 328 328 327 327 326 326 328 328 327 329 330 327 327 331 332 332 335 341 348 351 351 352 353 353 354 355 354 351 348 346 346 347 347 347 347 347 347 347 348 349 349 348 348 348 348 348 348 348 349 350 351 351 351 350 349 350 349
323 323 324 324 324 325 326 327 327 327 326 326 326 326 326 328 330 328 329 331 329 325 326 331 340 347 351 351 351 353 354 355 355 354 352 349 347 346 347 348 347 348 348 347 348 350 351 351 350 349 348 349 349 348 350 350 351 351 353 353 353 353 353
322 322 322 322 323 323 325 325 326 327 327 327 326 324 324 327 328 328 331 332 329 323 320 322 328 335 344 351 351 352 354 355 355 356 354 353 352 350 348 348 348 348 348 348 349 350 352 353 354 353 352 351 350 351 351 351 352 352 353 354 354 354 355
320 320 321 321 322 322 322 323 325 326 327 328 326 323 323 325 326 328 330 329 329 328 323 319 322 325 332 343 348 351 353 355 355 357 356 356 355 355 353 352 351 350 350 350 350 350 352 354 355 356 356 355 355 354 353 353 353 353 354 354 355 355 355
318 318 319 320 320 321 321 322 323 325 326 327 326 325 325 324 324 327 328 325 325 329 326 320 321 322 324 332 341 346 351 354 354 356 358 358 357 356 357 356 355 355 354 353 354 354 355 355 355 356 357 357 357 357 356 356 355 354 355 355 355 356 356
317 317 317 318 319 319 319 320 322 323 324 326 326 326 326 326 324 324 326 324 324 327 325 321 321 322 322 327 333 339 345 350 353 353 354 356 357 356 356 357 358 358 357 357 357 357 358 358 358 357 357 358 358 358 357 357 357 356 356 355 355 356 357
316 316 317 317 317 317 318 320 321 321 322 324 326 326 326 326 325 323 324 325 325 325 323 321 323 323 321 324 329 335 338 342 349 353 353 352 354 356 355 355 356 357 357 357 359 359 359 360 359 358 358 359 359 359 359 358 358 357 356 356 355 356 357
315 316 316 317 317 317 318 318 319 320 321 322 324 325 325 326 327 325 323 323 325 326 324 322 322 323 322 322 326 333 336 336 340 348 352 353 353 354 356 356 355 355 355 355 357 357 359 360 360 360 360 360 360 360 360 359 358 357 356 356 356 357 357
315 315 315 316 316 316 316 317 318 319 320 321 322 323 323 324 326 326 324 323 324 327 327 324 322 322 322 322 324 329 335 335 335 339 346 351 353 354 356 357 357 356 355 354 354 356 358 359 360 361 361 361 361 359 359 360 359 358 358 357 357 359 360
315 315 316 316 316 316 316 317 317 318 318 319 321 322 322 323 324 326 326 324 323 325 327 326 325 324 323 322 323 325 328 333 334 335 340 344 348 351 354 355 356 357 355 355 355 356 358 359 360 361 361 361 361 360 359 360 360 360 361 359 360 360 361
314 315 315 316 316 316 316 316 317 317 317 317 319 321 322 323 323 325 326 325 323 323 325 326 325 325 324 322 322 322 323 326 330 334 337 339 341 346 351 354 355 355 355 356 356 357 358 358 359 360 360 360 361 361 360 361 360 361 362 361 361 361 362
314 314 314 315 315 316 316 316 316 317 317 316 317 318 321 323 323 321 322 325 324 321 322 324 324 325 325 323 323 323 322 322 324 329 334 336 337 340 345 351 354 355 355 356 357 357 358 358 358 360 361 360 361 361 361 361 362 361 363 363 362 362 362
312 313 313 314 314 314 315 316 316 316 317 317 316 317 318 321 323 320 319 324 325 322 320 322 323 324 324 323 324 325 325 323 321 323 328 333 335 336 339 343 349 352 354 355 356 357 358 358 359 360 360 359 360 360 360 361 362 363 363 364 364 363 362
312 312 312 313 313 314 315 315 315 316 316 316 317 318 317 318 320 320 320 324 325 323 320 320 321 323 324 323 323 326 328 327 324 322 323 327 331 335 337 338 341 345 348 352 354 356 357 358 359 360 359 358 358 358 358 359 361 362 362 363 364 364 362
311 312 312 312 313 313 314 314 315 315 316 315 316 318 318 318 319 320 321 323 324 323 321 320 320 320 323 324 323 323 326 328 327 323 321 323 326 330 333 336 339 340 341 344 348 352 355 356 358 360 359 358 357 356 357 359 359 359 360 362 363 364 363
311 312 312 312 312 313 313 314 314 315 316 316 316 317 319 319 320 320 320 322 323 323 321 321 320 319 320 323 323 323 325 327 328 327 323 322 323 324 325 330 334 338 340 341 342 345 350 354 357 359 359 359 358 357 359 359 358 358 359 360 361 363 363
311 312 312 312 313 313 313 313 314 315 316 316 317 318 319 320 320 321 321 322 322 323 322 321 320 319 319 320 322 323 324 325 326 328 325 321 322 323 322 323 327 334 339 341 341 343 345 349 353 355 357 359 360 360 360 360 358 358 359 359 360 362 363

ECMWFFLT1_850_thetae_102.txt.gz
Theta_e
358 356 355 353 353 353 353 354 355 353 353 354 351 347 348 348 349 351 355 357 351 339 332 334 334 334 334 332 331 332 332 332 333 336 338 340 344 347 344 345 348 350 351 347 347 353 356 353 353 350 344 343 346 348 346 345 346 347 347 346 346 346 347
357 355 355 355 353 352 353 355 356 355 355 354 352 350 349 349 349 350 352 355 355 346 334 332 333 333 334 333 332 332 332 332 333 334 336 338 341 345 343 344 348 350 352 350 347 350 353 353 353 352 345 341 344 345 345 344 344 346 346 344 343 345 346
355 354 356 356 354 352 351 353 355 355 356 356 355 354 352 351 350 351 353 354 357 354 344 335 333 333 334 333 334 332 333 332 332 333 335 336 339 342 343 344 346 347 349 349 346 346 348 349 351 352 347 341 342 343 343 344 344 344 346 344 343 345 346
351 353 354 355 355 353 352 353 354 354 355 356 356 356 355 353 351 352 353 355 357 357 353 344 336 334 334 334 334 334 332 333 333 332 334 337 338 341 344 345 344 346 348 348 346 347 347 344 344 346 344 341 341 342 341 342 342 343 345 346 344 344 345
350 351 353 354 354 354 355 355 355 354 354 354 355 355 356 354 354 355 355 356 358 358 359 354 345 339 335 334 334 334 333 332 333 331 333 341 344 343 346 347 345 346 348 347 346 348 349 345 339 338 340 339 340 340 338 338 340 340 342 345 345 345 345
348 350 352 353 353 354 356 355 356 356 355 355 355 355 356 355 355 357 355 357 359 359 360 360 356 349 341 337 335 336 336 332 333 333 330 340 348 348 347 348 347 347 348 346 345 346 348 348 341 336 337 338 337 339 338 336 337 339 340 342 344 345 346
346 349 351 352 353 354 356 356 356 357 356 357 356 355 356 355 355 355 354 356 358 359 360 360 359 356 351 347 344 343 343 336 332 334 331 334 345 350 349 349 349 348 347 347 347 346 344 343 341 340 337 335 338 343 344 339 337 340 340 339 341 343 344
344 346 348 349 350 351 354 356 356 355 357 359 357 355 355 355 355 355 355 355 356 358 359 359 359 358 357 356 352 351 352 348 339 335 333 334 340 347 350 350 349 348 349 348 348 348 345 340 341 345 343 339 340 344 346 344 338 340 343 340 339 340 341
342 343 344 346 347 348 351 353 354 355 355 356 356 355 355 355 354 355 355 355 354 356 357 357 357 357 356 356 356 355 356 357 351 342 337 339 342 345 348 350 349 348 348 349 347 348 349 344 343 347 346 343 344 344 343 345 341 338 342 342 338 337 337
341 340 341 343 345 346 348 349 350 353 353 354 354 354 354 353 353 354 354 354 355 355 356 356 355 354 354 354 356 356 355 357 358 353 347 346 347 347 347 348 350 348 347 349 348 347 348 348 347 347 344 341 345 344 341 342 340 335 337 341 341 337 334
340 339 339 340 341 344 348 348 347 349 351 353 353 353 353 353 352 352 352 352 354 353 354 354 353 353 352 353 355 355 354 355 356 356 354 351 349 349 347 347 349 349 348 348 348 347 346 347 348 348 345 339 339 340 338 337 338 335 332 335 338 336 332
339 339 338 338 338 340 343 345 345 346 347 350 351 352 352 353 353 353 352 352 353 352 352 352 352 353 352 353 355 355 355 354 353 353 354 354 352 349 349 347 347 348 349 348 347 346 346 347 346 347 347 343 336 334 333 331 333 334 330 331 334 334 332
338 338 338 338 338 337 338 340 342 343 344 346 348 349 350 351 352 354 355 354 352 351 352 352 352 353 354 354 354 355 355 354 353 351 351 352 351 350 348 348 346 345 347 347 346 344 345 346 346 346 346 345 341 335 331 327 328 329 327 328 333 337 336
336 337 337 338 337 337 337 337 338 340 340 342 345 347 347 348 349 351 354 354 353 352 353 353 352 352 353 353 353 355 356 355 354 353 351 350 351 349 347 347 346 345 345 346 345 345 344 344 346 347 346 345 343 338 334 330 327 327 327 326 329 335 340
335 336 336 336 336 337 337 336 336 337 337 338 342 344 345 346 347 349 350 352 353 353 353 353 353 352 351 352 352 354 356 357 356 354 351 350 350 350 349 347 346 345 344 345 345 345 345 343 344 346 347 346 344 342 340 337 331 327 327 326 326 327 332
335 335 335 336 336 335 336 335 336 336 336 335 336 340 343 343 345 347 349 349 350 351 352 353 353 353 353 352 352 352 354 356 356 354 352 351 350 351 352 350 348 347 345 345 345 345 345 344 342 343 345 347 347 344 343 343 340 333 327 326 327 326 326
334 335 335 334 335 335 335 335 336 336 337 335 332 333 338 341 343 344 347 349 349 350 351 351 351 352 353 353 352 351 351 353 354 355 355 354 352 353 354 353 351 350 348 345 345 345 346 345 343 342 342 344 346 347 347 346 346 342 335 330 328 327 327
333 333 334 334 335 335 335 335 335 335 336 336 333 331 333 337 341 343 344 345 347 349 349 349 350 350 351 352 352 351 350 350 351 353 355 355 355 355 356 355 354 353 352 350 348 345 346 347 346 344 342 341 343 346 348 348 348 346 344 339 335 331 329
332 333 333 333 334 334 334 335 335 335 335 335 334 333 332 333 336 339 342 342 343 345 347 348 349 350 349 350 352 353 353 352 351 352 353 355 356 357 356 355 355 355 355 354 353 350 347 347 347 347 346 344 342 342 345 347 348 348 346 345 341 338 335
331 332 332 331 332 333 332 333 333 334 335 335 335 334 333 333 332 334 338 340 341 342 343 343 345 347 347 349 351 352 353 353 352 352 353 354 355 356 356 355 355 355 354 354 353 352 351 350 348 349 348 348 346 343 342 344 346 347 348 347 345 343 340
329 330 329 329 330 331 330 330 330 331 333 334 335 334 331 332 333 330 329 332 335 339 341 336 333 337 341 343 346 348 351 352 353 353 354 354 354 354 355 354 354 354 353 352 350 351 351 351 351 351 351 351 350 348 346 345 346 347 347 348 348 347 346
327 328 327 327 327 329 329 328 327 329 330 332 334 333 330 331 334 331 327 324 325 334 340 335 328 328 332 335 337 339 343 347 350 352 353 354 354 354 354 354 353 353 353 352 350 350 350 351 352 354 354 354 354 354 352 350 349 347 348 348 348 349 349
326 325 325 325 324 326 328 327 325 326 328 329 331 330 329 332 335 334 332 326 320 324 331 332 328 325 327 331 333 335 337 338 341 346 350 351 353 353 354 355 354 353 354 352 351 351 351 352 352 354 356 356 356 356 357 355 354 352 350 349 349 350 350
324 323 323 322 321 322 325 325 323 323 325 328 328 326 327 331 334 334 334 331 326 324 325 326 325 323 322 325 328 333 338 338 335 339 344 347 349 351 352 354 354 354 353 353 352 353 352 353 352 353 355 357 357 357 356 357 357 357 355 353 351 351 351
322 322 321 320 319 321 323 321 319 320 323 326 326 324 324 329 331 332 334 332 330 331 331 327 323 321 321 324 322 326 337 340 336 333 336 340 344 348 350 352 353 354 354 354 355 355 355 354 354 353 353 354 356 357 356 357 357 358 358 357 355 353 352
321 320 320 319 319 320 320 319 318 319 322 323 323 323 322 327 329 330 332 332 331 333 334 331 327 321 319 322 322 322 332 339 336 332 332 335 338 343 348 350 351 353 354 355 355 355 355 354 354 354 353 353 354 355 356 357 357 356 356 357 357 357 355
319 319 319 319 320 319 319 320 320 321 322 321 321 321 322 325 327 328 330 330 331 331 332 332 331 327 320 318 320 321 327 333 333 332 332 332 332 337 344 348 350 351 353 354 355 354 354 354 354 355 354 353 354 354 354 355 356 356 356 356 356 357 358
318 319 318 318 319 319 320 321 322 322 322 321 320 321 322 324 324 326 327 328 329 330 331 332 332 330 326 323 322 322 323 326 327 327 332 334 333 333 337 343 349 352 351 352 353 354 354 353 353 354 355 354 354 355 354 356 356 354 354 356 357 357 358
318 318 318 317 317 319 320 320 321 321 322 321 321 322 323 323 323 324 325 326 326 328 330 332 331 329 329 330 329 325 321 322 323 321 328 338 339 334 332 335 340 344 344 346 348 351 353 355 354 354 354 354 354 354 354 355 355 353 352 354 356 357 357
318 318 317 317 317 318 319 319 320 321 321 321 322 321 321 322 323 323 323 323 324 326 330 332 330 328 330 332 331 327 322 321 323 322 327 338 342 338 335 333 332 333 335 337 339 342 347 352 354 355 355 354 354 354 354 354 354 355 353 354 355 355 356
318 318 318 318 318 318 318 317 318 319 319 321 321 321 321 321 323 324 324 324 324 326 328 327 327 330 331 330 330 330 326 321 324 330 333 334 336 337 340 339 337 335 335 333 332 335 338 344 349 353 355 355 355 354 353 353 354 355 355 355 355 355 355
318 318 318 318 318 318 317 317 317 318 319 320 321 321 321 321 322 323 324 324 324 324 324 324 326 329 330 328 328 330 329 325 326 331 332 330 332 337 339 341 341 341 339 334 331 330 332 336 341 346 350 352 354 355 354 353 353 354 355 355 354 354 355
318 318 318 318 318 318 318 318 318 319 319 319 319 320 320 320 320 320 320 322 324 324 323 324 325 326 327 328 328 328 329 328 328 328 329 330 333 335 334 335 339 342 343 340 334 328 327 329 332 336 339 342 345 349 352 354 355 355 356 356 354 355 354
317 317 317 317 317 317 318 318 318 318 318 318 318 319 319 319 319 319 319 320 322 323 324 323 324 325 327 328 327 326 328 329 328 328 330 332 332 332 331 331 331 333 337 338 334 329 326 325 325 329 333 335 337 339 343 348 352 354 356 356 356 355 355
317 317 316 316 317 317 317 317 317 318 318 317 318 317 318 319 319 319 319 319 319 321 323 324 325 326 327 327 326 326 327 328 329 329 330 329 328 328 330 328 325 323 325 328 327 326 326 325 324 326 329 332 334 336 337 339 342 346 351 354 356 356 355
316 316 316 316 316 316 316 316 317 317 317 317 317 317 317 318 318 319 319 319 319 321 322 323 324 325 325 326 326 326 326 327 328 328 327 326 323 322 322 323 325 325 324 321 322 324 324 325 325 326 327 328 329 333 337 338 337 338 342 347 353 355 356
316 315 315 315 315 315 316 316 316 316 317 317 317 317 317 317 318 318 319 319 319 320 321 323 324 324 325 325 325 324 325 326 326 326 326 327 325 324 324 325 326 327 326 324 323 322 322 323 323 324 326 326 326 328 333 338 340 340 338 339 343 349 353
315 315 314 314 315 315 315 315 316 316 316 316 317 317 317 317 317 318 318 318 319 319 320 321 323 324 324 324 324 324 324 324 324 325 326 326 324 325 327 328 328 328 329 328 325 322 320 320 321 322 323 325 326 328 331 336 340 342 341 339 338 340 345

ECMWFFLT1_850_thetae_105.txt.gz
Theta_e
356 356 356 355 353 353 350 348 350 351 349 348 347 347 347 346 347 347 347 348 345 337 333 334 334 334 334 332 333 335 336 335 338 343 346 346 346 347 347 348 347 348 348 347 349 351 350 349 346 345 345 346 348 348 347 348 349 352 353 352 352 349 343
355 357 359 357 355 354 352 350 352 354 351 349 349 348 347 346 347 347 347 348 348 342 334 332 333 334 334 333 332 333 334 335 334 336 339 341 342 343 343 344 343 345 346 346 349 352 354 354 352 350 348 345 346 348 347 347 348 350 351 352 352 348 344
351 355 358 358 355 354 353 352 353 354 352 351 350 349 347 347 347 347 347 348 348 347 340 333 331 333 334 334 332 331 331 333 333 334 335 337 339 340 341 343 342 343 345 346 348 350 354 356 354 353 352 347 344 346 346 345 346 347 348 347 347 346 345
351 353 355 356 354 353 353 352 353 353 353 353 351 350 348 348 350 348 347 348 349 350 347 338 331 331 334 334 333 332 331 331 332 333 334 335 337 338 339 341 342 342 345 346 347 348 351 354 355 353 351 347 343 344 345 345 344 345 346 344 343 344 345
351 351 352 354 354 353 352 351 352 353 354 355 353 352 348 348 352 352 350 350 349 349 350 345 336 331 333 334 333 333 332 332 332 331 333 334 335 336 336 337 339 340 342 344 345 347 347 349 352 352 349 345 342 341 343 343 343 344 345 345 343 343 344
350 350 350 352 352 353 353 352 353 353 353 354 355 353 351 351 352 353 352 352 352 352 352 352 346 337 335 337 336 334 332 331 333 332 332 333 333 335 335 335 336 337 338 340 341 344 344 343 346 348 345 342 340 339 340 341 341 342 343 345 345 343 344
347 348 349 349 351 353 353 353 353 353 353 353 353 353 353 353 353 353 353 353 355 356 355 355 354 348 343 343 344 344 339 333 331 332 333 333 333 334 335 335 335 335 335 337 338 341 342 342 343 344 342 340 339 338 337 338 338 339 340 342 344 344 344
344 346 347 348 350 351 353 354 354 354 354 352 352 354 355 355 355 354 353 354 357 360 360 358 358 357 353 350 349 348 347 343 337 333 332 334 336 338 338 338 337 336 337 336 337 339 342 342 343 342 339 337 338 337 337 336 335 336 336 338 341 343 343
342 344 346 347 348 350 351 354 354 354 354 354 353 354 355 355 354 354 353 355 357 359 360 359 358 359 359 357 354 350 348 349 348 343 336 332 335 341 343 344 343 341 341 340 339 340 342 342 342 340 337 335 336 337 336 335 334 335 335 335 337 339 341
340 342 345 346 346 348 350 352 353 354 354 354 354 354 354 354 354 354 353 354 355 355 357 357 357 359 359 357 356 353 350 350 352 352 349 340 334 337 342 347 348 346 345 345 344 343 343 343 342 341 340 336 335 335 336 336 336 336 335 334 334 335 337
338 339 343 344 344 345 348 349 350 352 353 353 353 353 354 354 353 353 353 353 354 354 355 356 357 359 359 356 356 355 354 352 352 355 356 352 344 337 338 343 347 348 347 347 347 347 347 345 343 343 343 340 337 336 336 336 337 336 335 334 333 333 334
338 338 339 340 341 342 344 346 347 348 349 349 350 351 352 353 352 352 351 352 354 354 354 355 356 358 357 357 357 356 355 354 353 355 357 357 353 348 345 345 347 349 349 347 346 347 348 348 346 344 343 341 340 338 337 337 337 336 334 333 332 332 332
338 338 337 337 338 340 341 344 345 346 346 346 347 348 350 351 353 353 352 352 351 352 353 353 354 355 355 355 355 355 354 353 353 353 354 356 357 354 352 350 348 349 348 347 347 346 346 348 347 346 345 343 341 339 337 337 338 336 333 330 330 331 331
337 337 337 336 336 337 338 339 340 343 345 345 345 346 348 350 351 352 352 352 352 351 352 351 352 352 352 353 353 353 353 353 352 353 353 354 355 355 354 351 349 348 348 348 348 346 345 346 347 347 346 345 344 342 339 337 337 336 332 328 327 328 329
336 336 336 336 336 336 336 335 334 337 341 344 344 345 346 347 348 349 350 351 352 352 352 352 352 352 352 352 353 353 353 354 353 353 354 354 353 353 353 352 350 348 348 347 347 347 346 344 344 345 346 346 346 345 343 341 339 337 334 330 327 326 327
335 335 335 336 336 336 336 336 334 333 335 339 343 345 345 345 346 348 348 348 349 350 351 352 352 353 352 352 352 352 352 353 353 354 355 355 353 351 350 350 349 348 348 348 347 348 348 346 344 344 344 345 346 345 345 344 342 341 338 335 331 328 327
335 335 335 335 336 335 335 335 335 334 333 334 337 341 343 344 344 345 346 347 347 348 350 351 351 352 352 352 352 352 351 352 352 353 355 355 355 353 351 350 349 348 350 350 347 346 348 348 346 344 342 343 344 344 345 345 344 343 342 341 338 334 331
334 335 335 335 335 335 335 335 335 335 334 333 333 335 337 340 342 343 343 344 344 346 348 349 350 351 352 352 352 352 351 351 351 352 353 354 355 355 354 353 351 348 349 351 348 346 346 347 347 346 344 343 343 343 344 344 344 344 344 343 342 341 338
332 333 334 333 333 333 333 334 335 335 335 333 332 333 334 334 335 339 342 343 341 341 343 346 348 349 350 351 352 352 352 352 351 351 352 352 353 354 355 355 353 350 350 352 351 349 348 347 346 345 345 345 345 344 343 342 344 345 344 343 343 342 343
332 331 332 331 330 330 329 331 333 335 335 332 329 330 334 333 330 331 336 341 341 338 337 338 342 345 347 348 349 350 352 352 353 352 352 351 351 352 354 354 354 353 352 353 353 351 350 350 348 346 345 345 345 346 344 342 343 344 345 345 344 344 344
330 330 330 329 328 327 326 326 329 331 333 331 326 326 332 334 332 328 328 331 334 333 331 331 332 336 340 343 344 346 347 348 350 351 352 352 351 352 352 353 354 354 354 354 353 352 351 352 351 349 346 345 346 347 346 344 343 344 346 347 347 346 345
328 327 329 329 327 326 325 325 327 328 329 329 326 326 331 334 333 331 328 325 326 326 324 324 323 325 329 334 338 341 341 341 343 345 348 350 350 351 351 352 351 352 353 353 352 352 352 353 353 352 349 347 347 348 349 347 345 345 346 349 350 350 348
325 324 325 326 326 325 323 322 324 326 327 327 326 326 331 333 332 332 330 327 327 327 324 321 320 320 321 324 329 335 337 337 337 338 341 344 347 348 350 350 350 351 353 353 352 352 352 352 353 352 350 349 348 348 349 350 350 349 348 348 350 351 352
322 321 321 322 323 323 322 320 320 322 324 325 323 324 327 330 331 331 330 328 329 331 328 323 320 319 318 319 323 329 334 336 336 333 334 338 340 343 347 349 349 350 351 353 353 353 353 352 352 351 351 351 350 348 349 351 352 351 350 349 348 349 350
321 320 319 320 321 320 320 318 317 320 322 322 321 321 325 328 329 329 328 327 328 330 329 326 322 319 318 317 319 323 329 335 336 334 333 334 335 338 342 345 347 348 350 351 352 353 353 353 352 352 351 351 351 350 351 352 352 351 351 351 350 348 348
320 320 320 320 320 319 318 317 317 319 321 321 320 321 324 326 326 327 327 326 327 327 327 328 326 322 319 318 317 318 323 329 332 331 331 333 334 336 338 339 342 345 348 350 351 352 354 354 354 353 353 353 352 352 352 352 352 352 353 353 352 351 350
319 319 319 319 318 318 318 316 316 318 320 321 321 321 322 323 323 324 324 325 325 324 325 330 330 325 321 318 317 317 319 321 324 324 325 329 333 336 337 336 336 339 343 348 351 352 353 354 354 354 354 354 353 353 353 352 352 352 353 353 353 352 351
319 318 318 317 318 319 319 317 315 316 317 318 319 319 320 321 322 322 321 322 323 322 324 331 332 327 323 322 321 319 317 318 319 319 320 324 329 332 334 335 335 337 338 341 347 350 352 353 354 354 354 354 354 353 354 354 353 353 353 353 352 351 350
318 318 317 317 318 319 319 317 316 315 313 313 313 313 314 316 318 319 320 321 323 323 325 330 330 326 325 328 329 325 319 317 317 316 318 322 324 326 330 334 337 339 338 337 338 340 343 347 351 353 354 354 354 354 354 354 354 354 353 353 353 352 352
318 317 317 317 318 318 316 315 315 315 314 313 311 309 310 310 312 315 318 321 323 323 324 326 326 325 328 331 331 327 322 318 315 314 316 318 319 321 327 334 338 340 341 341 339 336 335 337 341 345 347 348 351 354 354 354 354 354 354 353 353 353 353
318 318 318 318 316 314 313 313 314 316 316 316 313 310 310 310 310 312 315 318 320 322 323 323 323 325 329 330 328 327 323 318 315 314 314 314 319 324 328 333 338 339 340 342 343 339 333 331 332 335 338 341 345 349 352 354 354 354 354 354 354 354 354
318 318 318 317 315 314 313 314 316 317 318 317 315 313 311 311 310 310 311 312 314 317 319 321 322 324 326 325 325 326 324 321 319 317 314 316 325 331 331 331 335 337 337 340 342 341 336 332 329 329 331 334 339 342 346 350 353 354 355 354 354 354 354
317 317 317 316 316 316 315 315 317 317 317 316 316 315 314 314 313 313 313 314 314 313 314 317 320 322 322 323 325 326 326 324 322 320 318 321 328 332 331 328 327 329 331 332 333 334 333 330 326 325 325 327 331 335 338 342 346 350 352 353 354 354 354
317 317 316 315 316 316 317 316 316 316 316 316 316 316 316 316 316 317 317 317 317 316 314 314 317 321 322 323 326 327 326 325 323 323 325 327 326 325 326 325 322 320 321 321 322 324 325 323 322 322 323 324 325 328 331 335 338 341 344 347 351 354 355
317 316 316 315 316 316 316 315 314 314 315 316 317 316 317 317 317 317 317 317 317 318 317 315 317 320 322 323 324 326 326 325 324 325 327 326 323 320 320 321 320 318 316 315 317 321 323 322 321 320 322 323 323 324 326 328 332 335 338 340 343 346 350
317 316 315 315 315 314 314 314 315 315 316 317 317 316 316 316 316 317 317 317 318 318 318 317 317 319 321 322 323 324 325 325 324 323 324 323 322 320 318 317 316 316 315 315 316 319 322 324 322 320 320 321 321 321 322 324 326 329 334 338 340 340 342
316 315 315 315 314 313 313 314 315 315 315 315 315 314 313 314 316 316 317 317 318 317 318 318 318 318 320 322 323 324 325 325 325 324 324 323 322 321 319 317 316 316 318 319 318 318 321 322 321 320 319 320 320 320 320 321 323 325 328 334 340 341 341
315 315 314 314 313 313 314 315 315 315 314 314 314 314 314 315 317 318 317 318 318 317 317 318 318 318 319 320 322 324 325 325 325 325 324 323 322 320 319 318 320 322 322 321 318 318 318 318 318 318 318 318 319 321 320 319 322 325 327 329 334 339 341

ECMWFFLT1_850_thetae_108.txt.gz
Theta_e
353 353 352 353 353 349 343 340 340 341 342 342 342 343 343 344 345 345 345 343 343 341 337 336 336 336 335 334 336 341 346 347 347 347 347 347 347 348 348 347 347 345 342 342 342 342 343 343 345 345 345 347 348 347 347 348 349 350 347 345 344 343 341
353 352 351 352 353 353 350 347 343 341 342 342 342 344 344 344 345 345 345 345 344 342 338 334 334 335 334 334 334 336 341 343 346 348 348 347 346 347 347 344 344 345 344 343 343 343 343 342 342 344 344 346 348 347 347 347 348 350 350 348 347 347 346
351 351 352 353 352 352 352 353 349 343 343 344 344 345 345 345 345 346 345 345 344 345 341 335 333 334 334 333 333 334 336 339 342 345 347 347 345 344 345 344 342 343 343 343 343 344 345 344 343 344 343 343 345 346 346 346 346 349 350 350 349 349 348
351 351 353 353 352 351 352 353 351 346 346 346 344 346 346 346 346 345 346 346 345 346 345 337 332 332 334 333 332 333 334 336 339 341 343 344 344 343 344 344 341 341 342 342 341 342 344 344 344 345 345 343 344 344 345 345 345 345 347 348 348 348 348
350 351 352 353 353 352 352 353 352 349 350 349 346 346 346 346 347 346 346 346 346 346 346 341 334 330 332 334 333 333 333 333 336 337 338 339 339 340 342 343 342 341 341 341 341 340 341 342 342 344 345 345 345 343 343 344 344 343 344 345 345 345 345
349 350 351 352 352 352 352 352 352 352 352 351 348 348 347 347 348 347 347 347 346 346 347 346 340 332 331 332 334 333 333 332 334 335 335 335 336 337 338 340 341 342 341 341 340 341 340 340 341 342 342 343 343 342 341 343 343 342 343 344 344 344 343
348 350 351 351 352 353 353 353 352 351 352 351 350 350 350 350 350 349 347 347 347 347 348 349 347 340 333 330 332 333 333 332 331 332 332 333 334 335 335 336 338 339 341 341 341 341 341 341 340 339 339 339 340 339 339 340 341 341 342 342 343 343 343
349 350 351 352 352 352 352 353 352 352 352 352 352 352 351 351 353 353 350 348 349 349 348 349 349 348 342 335 331 332 333 333 332 331 331 332 333 334 334 334 335 336 339 340 341 342 342 342 341 339 338 337 338 338 337 337 337 339 339 340 340 342 342
347 350 352 352 353 353 352 352 353 353 352 352 352 353 353 352 352 352 351 349 350 350 349 350 350 350 349 344 336 332 332 333 333 333 332 331 333 333 333 333 333 335 336 338 340 341 342 343 343 341 339 338 338 337 337 337 336 336 336 336 337 338 340
345 348 350 351 352 353 353 353 353 353 353 352 352 353 354 354 352 351 350 350 352 353 352 352 351 351 353 352 346 339 336 336 336 336 335 333 333 333 334 334 335 338 337 337 339 340 340 342 343 343 342 340 339 338 337 336 336 336 334 334 334 335 336
343 345 347 348 350 351 352 352 353 354 354 353 353 353 354 354 354 353 352 352 353 355 355 355 354 354 355 355 353 350 349 348 346 342 338 336 336 335 335 336 340 344 344 342 341 340 341 344 344 345 343 340 337 336 336 335 335 334 333 332 333 334 334
342 343 344 345 346 348 349 350 350 351 352 352 352 353 353 354 353 353 354 353 353 353 356 357 356 355 355 355 356 357 356 356 354 349 345 343 342 341 340 339 342 347 350 349 347 344 345 346 347 347 345 341 338 336 335 335 334 333 332 331 331 332 333
339 340 341 342 344 345 345 347 348 349 349 349 350 351 352 353 352 353 352 353 353 353 353 355 356 355 355 355 357 357 356 355 355 354 352 351 350 350 348 345 343 345 349 351 351 349 348 347 347 347 347 344 342 339 336 335 334 333 332 331 330 330 331
337 337 337 338 340 342 344 344 345 347 347 348 349 350 351 352 352 352 351 351 352 352 352 353 354 354 354 355 356 356 354 353 354 356 356 355 355 354 354 351 347 345 346 348 350 350 348 347 346 346 346 345 344 343 341 339 336 334 332 330 329 328 328
337 336 336 335 335 337 341 343 344 345 345 346 347 348 349 349 350 351 351 351 352 351 351 352 352 352 352 353 353 353 353 352 352 355 355 355 354 356 356 355 351 349 348 348 349 349 349 348 348 347 345 344 344 345 345 343 342 339 336 333 331 329 328
336 336 336 336 335 335 336 339 342 343 343 344 346 347 347 348 348 349 349 350 350 350 351 352 353 353 353 353 352 353 353 352 352 353 354 354 353 355 356 356 354 352 350 350 349 348 348 349 349 349 347 345 344 344 345 345 344 343 341 340 338 336 334
335 335 335 336 336 334 334 334 337 340 341 341 343 345 346 346 347 348 349 348 350 351 352 353 353 353 353 353 353 353 353 353 352 353 353 353 353 353 354 355 355 354 353 351 349 348 347 348 348 349 349 348 346 345 345 345 344 344 343 342 342 342 341
334 334 335 335 335 334 334 333 334 335 336 337 338 341 344 344 344 345 345 345 347 349 350 351 352 352 353 352 353 353 352 352 352 352 353 354 354 354 354 354 354 353 353 352 350 348 347 348 348 348 348 349 348 346 346 345 345 345 345 344 344 343 343
334 333 333 334 335 334 334 333 332 333 334 332 333 337 341 343 343 342 340 340 342 346 346 347 349 350 351 351 352 352 352 351 351 351 352 352 354 354 354 354 354 353 352 351 350 349 348 349 349 347 346 348 349 348 347 345 344 344 345 345 345 344 344
332 329 328 331 333 334 333 331 330 332 334 334 332 333 335 338 338 336 334 333 335 338 340 343 345 347 348 348 350 351 352 352 352 352 352 352 352 352 353 353 354 354 353 352 351 350 349 350 351 350 347 347 348 349 348 346 344 344 343 344 345 345 345
329 327 324 327 330 330 330 329 328 330 332 333 334 333 332 332 330 328 327 326 324 324 327 333 338 340 342 343 344 345 346 346 347 349 352 352 352 352 352 352 353 353 354 354 354 353 351 350 351 352 350 348 347 347 346 346 345 344 344 343 343 344 345
328 326 324 324 325 327 328 328 327 327 327 329 332 334 333 331 329 326 324 324 322 320 320 322 327 332 336 339 339 340 341 341 340 342 346 349 350 350 351 352 352 352 353 353 354 354 353 352 352 353 353 352 350 348 347 346 345 345 345 344 344 344 344
326 325 324 323 323 324 325 326 325 325 323 325 330 333 332 331 330 328 326 324 323 321 320 319 319 324 329 333 335 336 338 339 337 337 339 341 345 347 348 349 350 351 351 352 352 352 353 353 352 353 353 353 352 351 350 349 347 346 345 346 347 347 346
326 325 324 322 321 321 322 322 322 322 322 323 328 331 331 330 329 327 326 325 323 321 319 319 318 318 319 323 326 329 334 336 335 333 334 336 338 341 343 344 346 347 348 349 350 350 352 352 352 352 352 352 352 352 352 352 351 348 347 347 349 350 349
325 323 322 321 319 319 319 318 318 319 320 320 323 327 328 327 327 326 325 324 323 320 319 320 319 318 317 318 318 322 329 332 330 327 330 333 335 336 338 339 340 342 344 346 348 349 350 351 351 352 352 352 352 352 353 353 353 351 349 348 348 349 351
321 320 320 319 319 318 317 316 316 317 318 318 319 322 324 324 324 324 323 323 322 319 318 320 320 318 316 317 318 318 321 324 323 322 326 331 334 335 335 335 337 339 340 341 344 347 349 350 351 351 352 353 353 353 353 353 352 352 351 350 349 350 350
319 319 319 319 318 317 316 316 316 317 317 316 317 320 321 322 322 322 321 321 320 318 317 319 320 319 317 316 316 317 318 318 318 318 322 326 328 331 333 334 336 339 339 339 340 343 346 349 351 352 352 352 353 353 353 353 353 352 352 352 352 352 352
319 319 319 318 318 317 316 316 316 316 316 315 314 315 317 318 320 320 320 319 318 317 317 318 318 317 316 315 314 316 317 317 317 317 318 319 320 323 327 330 334 337 339 340 340 339 339 342 345 348 350 352 353 354 354 354 354 354 353 353 353 353 354
319 319 318 317 317 317 317 316 315 314 312 311 309 309 310 311 313 315 316 317 318 317 318 319 319 317 315 314 313 315 316 316 316 315 314 315 315 317 320 325 331 335 336 339 341 340 337 335 335 337 341 345 350 353 353 353 354 354 353 353 353 353 354
318 318 317 317 317 316 316 315 312 310 309 308 307 307 307 309 310 310 312 314 316 318 319 320 320 320 318 316 315 316 316 315 314 312 312 313 314 316 318 322 328 334 336 338 341 341 339 337 335 332 331 334 338 343 346 347 350 352 353 353 353 353 353
317 317 317 316 316 315 313 312 309 308 307 306 307 307 308 308 309 309 310 310 311 313 316 318 319 319 319 318 320 320 319 316 314 312 311 313 315 319 322 323 325 331 335 336 338 339 339 339 337 333 329 327 328 330 334 337 341 345 349 351 352 353 353
317 317 317 316 315 314 311 308 307 308 310 309 308 307 307 308 308 310 310 311 311 310 310 311 313 315 316 317 320 322 322 320 318 316 314 313 315 321 326 327 326 328 331 331 332 332 332 331 329 326 324 323 322 322 325 328 331 335 338 341 346 350 352
317 317 316 315 314 312 310 309 310 311 312 311 310 309 308 308 310 310 311 312 313 313 311 310 310 310 312 314 317 320 321 322 323 323 320 317 316 318 323 327 328 327 326 325 324 322 320 319 319 319 319 320 320 320 322 324 325 327 329 332 336 341 345
317 316 316 315 314 312 310 311 312 312 312 312 313 312 311 312 313 313 314 313 313 314 314 313 312 310 310 312 315 318 320 323 325 325 324 322 320 319 319 321 322 321 320 319 319 317 316 317 317 318 319 319 319 319 320 321 323 324 323 325 328 331 335
316 316 315 315 315 314 312 311 312 313 314 314 314 314 313 312 313 314 315 315 315 315 315 315 315 314 312 311 313 316 320 323 324 324 324 323 323 322 321 319 318 316 315 316 316 317 318 318 317 318 318 318 318 319 319 319 320 322 322 322 323 325 328
316 316 315 315 314 314 312 312 313 315 316 316 315 315 313 311 311 313 315 315 315 316 316 316 317 316 315 313 312 314 318 322 323 323 324 324 324 324 323 322 320 318 317 315 315 315 317 318 319 320 320 318 317 318 318 319 320 320 320 323 324 325 327
316 315 315 315 314 312 312 314 315 315 315 315 314 314 312 312 313 315 316 316 316 316 316 316 316 317 317 315 314 315 319 322 323 323 324 325 325 324 324 323 322 319 318 316 315 314 315 317 318 320 319 318 316 316 316 318 322 323 323 324 327 328 328
316 315 314 314 313 312 314 315 315 315 314 314 313 312 312 314 316 317 317 317 317 316 316 316 316 316 317 316 315 315 318 321 323 323 324 324 324 324 324 323 321 320 319 318 318 317 317 317 317 316 316 314 314 317 319 320 322 325 326 326 326 327 327

ECMWFFLT1_850_thetae_111.txt.gz
Theta_e
351 351 353 348 340 339 342 343 343 343 343 342 343 343 343 343 343 343 343 342 339 337 338 339 338 336 335 336 340 342 344 347 348 348 348 347 347 348 347 346 347 344 340 340 343 343 343 344 345 344 344 344 344 345 344 344 344 346 347 348 348 347 343
351 351 352 349 343 339 340 343 344 344 344 343 343 343 342 343 343 343 343 343 338 335 336 337 337 337 336 336 338 339 341 345 348 349 348 346 347 348 347 346 346 345 341 339 341 342 342 343 344 345 345 345 346 347 346 345 345 347 348 348 348 346 343
351 351 351 350 347 341 339 341 344 344 344 344 343 343 343 342 343 342 343 344 339 335 335 336 336 336 336 335 337 337 338 342 346 348 347 345 346 347 347 347 346 346 343 341 340 341 341 342 342 343 344 345 346 347 347 346 346 347 347 347 347 346 345
351 350 351 352 350 346 341 340 342 344 343 344 343 343 343 342 342 343 343 344 342 337 335 333 333 334 334 334 334 335 336 339 343 345 345 344 345 346 347 347 346 346 345 343 342 341 342 342 341 341 342 342 344 345 345 345 345 345 345 345 345 346 346
351 351 351 352 352 350 347 342 340 343 344 344 344 343 343 343 342 343 344 344 344 341 338 335 333 332 333 333 334 334 335 336 339 341 342 342 343 344 346 346 346 345 343 343 343 342 343 343 342 341 341 341 342 342 343 344 345 344 343 343 343 344 343
351 351 351 352 352 352 351 346 341 342 344 344 344 343 344 344 344 344 344 345 345 345 343 343 340 336 333 333 333 333 333 334 335 337 338 339 340 341 342 343 344 344 343 342 342 342 342 343 342 342 342 342 343 342 341 342 344 343 342 341 342 342 342
351 351 351 352 352 352 352 350 346 344 345 344 344 345 345 345 345 344 345 345 345 345 345 345 345 342 337 333 332 333 333 332 333 334 335 336 337 337 337 338 341 342 343 342 342 342 342 341 341 341 342 343 343 341 340 340 342 343 341 340 340 341 341
350 351 352 352 352 352 352 351 350 349 348 346 345 346 346 346 346 346 346 346 347 346 346 345 346 346 342 335 332 332 333 332 332 333 334 335 335 335 335 335 337 339 341 342 342 342 342 341 340 340 341 341 341 341 340 339 341 341 341 340 340 340 340
349 350 352 352 352 352 352 351 351 351 351 349 348 347 348 348 347 346 346 346 346 346 346 346 346 347 346 342 337 333 332 333 333 332 333 333 334 334 334 334 334 336 338 339 341 343 343 342 342 342 343 342 341 341 340 339 339 339 338 338 338 338 338
346 349 351 352 352 352 352 352 351 352 351 351 350 348 348 349 349 349 348 346 346 346 347 347 347 347 348 347 344 338 333 333 333 334 333 332 332 333 332 333 333 333 335 336 338 341 343 344 343 343 344 343 342 341 340 338 337 337 337 336 336 336 336
344 348 351 352 353 352 352 352 352 351 351 351 351 349 349 350 351 352 352 350 348 348 347 347 347 348 348 349 349 346 340 335 333 334 334 333 332 331 331 331 332 332 333 333 335 338 341 344 346 345 345 344 343 342 341 340 339 337 336 336 335 334 334
344 347 349 350 352 352 352 352 351 351 351 351 351 350 349 351 352 352 352 352 353 351 349 348 348 349 349 349 349 350 349 344 336 332 332 333 333 333 332 332 332 332 333 333 333 337 341 344 346 346 346 345 344 344 343 342 341 339 337 336 335 334 333
343 345 346 347 349 349 349 348 349 350 351 351 351 351 350 351 352 352 352 352 354 354 352 351 352 351 351 350 350 351 352 350 344 338 334 334 334 334 335 335 336 335 334 334 335 337 341 344 345 346 345 346 346 346 346 345 343 342 340 338 336 333 332
341 342 344 345 346 346 346 347 347 348 349 350 350 351 351 351 351 352 352 352 353 353 352 352 354 355 353 351 351 352 353 352 351 348 345 342 341 340 337 337 340 340 337 337 339 340 342 343 344 345 345 345 345 344 345 346 345 344 343 341 339 337 334
339 340 342 344 344 345 346 346 347 347 348 350 350 351 351 351 351 351 352 353 352 352 352 352 353 355 354 353 353 355 355 354 353 353 352 351 350 349 345 340 342 346 345 342 341 342 344 344 344 345 346 345 345 344 344 344 344 343 344 343 343 341 339
337 338 340 343 343 344 345 346 346 347 348 349 350 350 351 351 351 351 351 351 351 352 352 352 352 352 352 353 353 355 355 355 355 356 356 354 353 353 352 347 345 349 352 350 346 344 345 345 345 346 347 347 347 347 347 346 344 343 343 344 344 344 343
335 336 337 339 341 342 344 345 346 346 347 348 349 349 349 349 350 350 351 351 351 351 352 351 351 351 351 352 352 353 353 353 355 355 355 354 353 353 353 352 349 350 353 353 351 349 347 347 347 347 347 346 346 347 348 347 347 344 343 344 344 344 344
335 334 335 336 337 338 340 342 344 345 345 345 346 347 347 348 348 348 349 349 349 349 351 352 352 352 352 353 353 353 352 352 352 353 352 352 352 352 352 352 350 350 351 351 351 351 350 349 349 349 348 347 347 347 347 347 347 347 346 344 344 344 345
334 334 333 334 335 334 335 337 340 342 343 343 343 343 343 344 345 345 345 345 345 346 347 349 350 351 352 352 353 353 353 353 352 352 352 352 352 351 351 351 350 349 351 351 350 351 351 350 350 349 348 347 347 347 346 346 346 347 348 347 345 345 345
334 333 332 333 334 334 334 334 335 338 339 340 341 339 337 336 336 337 338 340 342 343 344 345 346 347 348 350 351 352 352 353 352 352 352 352 351 351 351 351 351 351 352 352 351 351 351 351 351 350 349 348 348 348 347 346 345 345 347 348 348 347 345
334 333 331 331 332 334 334 333 333 333 334 334 334 332 330 328 326 326 327 330 333 337 340 343 343 343 344 344 346 348 350 350 351 351 351 351 351 351 351 351 351 352 352 352 352 352 351 351 351 351 350 349 349 349 349 347 346 346 347 348 348 348 347
333 332 330 329 330 331 332 332 332 332 332 331 330 328 326 325 323 321 320 322 324 328 333 338 340 340 341 341 343 344 345 345 345 346 346 346 345 346 348 350 350 350 350 351 352 352 352 352 353 351 351 350 349 350 350 350 348 347 347 347 347 347 347
332 330 328 327 327 328 329 328 329 330 330 330 329 328 327 326 324 322 320 319 319 320 324 330 334 337 339 340 340 340 340 339 339 339 339 339 340 341 343 345 347 347 347 348 350 351 351 352 353 353 353 353 352 352 352 352 351 350 348 348 347 347 346
327 327 327 327 326 325 325 324 325 327 329 329 328 328 327 326 324 323 321 321 319 319 319 320 322 325 328 330 333 336 337 335 333 334 336 337 338 339 340 341 343 343 343 344 345 347 349 350 351 352 353 353 353 353 353 353 353 353 352 351 350 349 348
324 325 326 325 324 323 323 322 322 324 326 327 327 328 327 326 323 321 320 320 319 319 319 318 317 318 318 319 323 329 331 329 328 331 336 337 337 338 337 338 340 340 340 340 341 343 346 348 349 350 350 351 352 353 353 353 353 353 353 353 352 352 351
321 322 322 322 321 320 320 319 320 322 323 323 324 325 326 325 323 321 319 318 317 317 317 316 316 316 317 317 318 320 321 321 323 330 334 336 337 337 336 336 338 340 339 339 339 341 343 346 348 349 349 350 351 352 353 353 353 353 353 353 353 353 353
320 320 319 319 319 318 317 318 318 318 318 318 320 322 322 323 322 321 320 318 317 316 315 314 314 315 315 315 316 317 318 318 319 322 326 329 330 331 333 334 337 339 340 340 339 338 339 340 342 345 347 348 350 351 352 353 353 353 353 353 353 353 353
319 319 318 318 318 317 316 316 316 315 314 314 315 316 317 318 318 318 317 316 315 314 313 313 313 315 315 315 314 315 317 318 318 316 317 318 319 322 327 331 335 337 339 340 339 338 338 337 336 337 338 340 341 343 345 348 350 350 351 352 353 353 353
319 319 318 318 318 317 317 316 316 315 312 311 311 310 310 310 311 311 311 311 312 311 311 312 313 313 314 315 315 314 314 315 316 316 315 313 314 317 322 328 332 335 337 338 338 339 339 339 337 335 333 332 331 331 332 336 339 340 342 346 350 352 353
319 318 318 318 318 317 317 316 315 313 311 309 308 308 308 308 308 308 308 308 309 309 309 311 312 312 313 314 314 315 314 313 314 314 314 313 313 315 320 326 330 332 333 334 335 336 337 337 337 336 334 330 327 325 324 326 328 330 333 337 341 346 349
318 318 318 317 317 317 315 314 312 310 309 309 308 308 309 308 309 309 308 308 308 308 307 308 308 309 310 310 311 312 313 314 315 315 314 313 312 313 318 323 327 329 329 330 331 331 331 330 330 330 328 326 323 321 321 322 323 324 326 328 332 336 340
317 317 317 317 316 315 314 312 310 308 308 308 309 309 308 309 309 309 309 310 310 309 309 308 307 307 307 308 308 309 310 313 315 315 316 315 315 315 316 320 324 327 328 328 328 326 324 322 321 320 320 319 318 318 319 319 321 322 323 324 325 327 330
317 317 317 316 316 315 314 312 310 308 307 307 308 308 308 308 309 309 309 310 310 310 310 310 310 309 308 307 307 308 309 311 314 316 316 316 317 318 317 318 321 323 324 324 323 320 318 318 317 316 315 315 315 315 315 317 318 319 320 322 323 324 325
317 317 316 316 315 314 313 312 310 308 306 306 306 306 306 307 308 307 308 308 309 310 310 310 311 311 310 310 308 308 309 311 315 318 319 319 319 318 318 319 319 318 318 318 317 315 314 314 314 315 316 316 316 314 314 315 316 317 318 319 321 322 323
317 316 316 315 315 314 313 312 310 308 306 306 305 306 306 307 308 307 307 307 308 309 309 309 310 311 311 311 311 310 309 311 315 320 322 322 321 320 320 322 321 320 318 318 316 315 314 314 315 317 317 317 317 315 315 314 314 315 317 318 320 322 323
316 316 315 315 314 314 313 312 311 310 308 306 306 307 309 309 308 308 308 308 309 310 310 310 310 311 311 312 312 312 311 310 313 318 321 322 322 322 322 323 323 322 320 319 317 316 316 317 317 318 318 317 317 316 315 315 316 318 319 321 323 325 327
315 315 315 315 314 314 313 313 312 311 309 307 307 309 310 310 309 309 309 311 313 313 313 313 312 311 312 312 313 314 313 312 313 317 320 322 322 322 322 323 323 322 321 319 318 318 319 319 319 318 318 317 316 315 315 316 319 321 323 324 324 325 327
315 315 315 315 314 313 313 312 312 311 309 308 309 310 310 310 310 309 310 312 314 314 314 314 313 313 313 314 314 315 315 315 315 316 318 320 321 322 322 322 322 321 320 319 318 319 320 320 319 318 318 317 316 315 314 315 317 319 321 322 323 323 325

ECMWFFLT1_850_thetae_114.txt.gz
Theta_e
351 348 342 338 339 341 342 343 343 342 342 342 341 341 342 342 342 342 342 342 342 342 341 340 339 337 335 335 334 337 341 344 346 348 348 348 348 347 347 347 345 342 340 341 342 343 343 343 343 342 342 342 342 342 342 342 342 343 343 344 345 345 346
351 351 348 341 337 339 341 342 343 343 342 342 341 342 342 342 341 341 342 342 342 341 340 338 336 334 333 334 333 334 338 341 343 346 347 348 348 347 347 348 347 346 344 341 342 343 343 343 343 343 342 342 342 343 343 342 342 342 343 344 346 346 346
350 351 352 347 339 337 339 341 342 342 342 342 342 342 342 341 341 341 341 342 342 342 340 337 335 334 332 332 332 333 335 337 339 344 347 347 347 347 347 348 348 348 347 343 341 342 343 343 343 344 343 343 343 344 344 344 343 343 344 346 346 347 346
348 350 351 350 345 339 338 338 340 342 342 342 342 342 342 341 341 341 341 341 342 342 339 334 333 334 333 332 332 332 333 334 336 341 345 347 347 346 345 346 347 348 348 345 342 343 343 343 342 342 343 344 344 345 346 347 345 345 345 346 346 346 347
347 348 350 351 349 344 340 338 339 340 341 342 342 342 342 342 341 342 342 342 342 343 339 334 332 333 333 333 332 332 332 333 334 337 343 346 346 346 344 343 345 347 348 347 345 344 344 344 343 342 342 342 343 344 345 346 346 345 346 346 345 345 346
347 347 350 351 350 347 342 338 339 340 341 342 342 342 342 342 342 341 342 342 342 344 343 338 334 332 333 334 333 333 333 333 333 335 339 342 343 344 343 342 343 344 346 347 346 346 345 345 345 344 344 343 342 343 345 345 345 345 345 345 345 344 344
349 348 350 351 351 349 345 340 339 340 341 342 342 342 343 342 343 341 342 342 342 343 344 341 336 334 333 333 333 333 333 333 333 333 336 338 339 340 340 340 340 341 343 344 344 345 345 344 345 346 347 347 345 345 347 347 347 346 345 345 344 343 343
350 350 350 351 352 352 349 344 342 341 342 343 343 344 344 343 343 342 342 342 342 343 344 344 342 340 338 336 334 333 333 333 333 333 334 335 336 336 337 337 337 339 340 341 342 343 343 343 343 344 346 347 347 347 348 349 349 348 346 344 343 343 342
350 351 351 351 351 352 351 347 345 343 342 342 343 344 344 344 344 343 343 342 343 343 344 345 345 344 344 343 340 336 334 334 334 334 334 334 335 335 335 334 334 336 338 339 340 342 342 342 342 343 344 345 346 347 347 348 348 348 346 343 342 342 341
350 351 351 351 351 351 352 350 347 346 344 343 344 344 344 345 344 344 343 343 343 343 344 345 345 345 345 345 345 343 340 336 333 333 333 332 332 333 333 333 333 334 334 336 338 339 341 341 341 342 343 343 344 346 347 347 347 347 346 344 342 341 340
349 351 352 352 352 351 352 351 350 349 347 346 345 344 344 345 344 345 344 343 343 343 344 345 345 346 346 345 346 346 345 341 336 334 333 333 332 332 332 333 332 332 333 333 334 336 337 339 340 340 340 340 341 343 345 346 345 345 344 344 343 341 338
347 349 350 351 351 351 351 351 351 351 350 349 349 348 346 346 345 345 344 344 344 344 344 344 345 345 346 345 346 346 347 346 343 338 335 333 333 333 333 333 332 332 331 331 332 332 333 334 336 338 338 338 339 339 341 343 344 343 343 343 343 341 339
345 347 349 350 350 350 350 350 351 351 351 351 351 350 349 349 348 348 347 346 346 345 345 344 344 345 345 346 346 346 346 347 348 346 342 339 337 336 335 335 334 333 331 330 330 331 331 332 333 335 337 339 339 339 340 342 343 343 343 344 343 342 340
343 345 347 349 350 350 350 351 350 350 350 351 350 350 350 350 350 350 350 350 349 349 348 347 347 347 347 348 348 349 349 349 349 350 349 347 346 343 341 339 337 335 333 332 331 330 331 331 331 333 336 339 341 341 342 343 343 342 343 344 344 343 341
341 343 346 348 349 349 349 350 350 349 349 350 350 350 350 350 350 351 352 352 352 351 351 350 351 350 349 350 350 350 351 351 351 351 352 351 350 348 346 344 343 341 337 334 333 333 332 332 332 334 338 340 341 342 343 343 342 342 342 342 343 344 344
339 342 346 347 347 347 347 349 349 348 348 348 349 350 350 350 350 350 350 350 350 351 351 352 353 353 352 352 351 351 353 353 353 353 353 353 352 350 347 347 349 349 347 341 337 335 334 333 333 335 339 343 344 343 343 343 343 343 344 344 343 343 343
338 340 345 347 346 345 345 346 348 348 348 348 349 349 349 349 350 349 349 349 349 350 351 351 351 351 351 351 351 351 353 354 354 354 354 354 353 352 350 350 351 353 353 350 346 343 340 337 335 333 336 341 344 345 344 343 344 345 346 346 346 345 345
337 337 340 344 346 345 344 345 347 348 348 348 349 349 349 349 349 349 349 349 349 350 350 350 350 350 350 349 349 350 351 352 353 353 354 355 354 353 352 351 351 352 354 354 351 349 347 345 342 338 335 336 340 343 346 345 345 345 346 346 347 347 347
336 336 337 339 342 345 345 345 345 345 345 344 345 346 346 347 347 347 347 347 347 347 348 348 349 348 349 349 349 350 351 351 350 351 352 353 352 353 353 352 350 351 353 354 353 352 350 349 348 346 342 339 338 342 346 348 347 346 346 346 346 347 347
336 337 338 339 340 343 344 342 340 340 339 339 341 342 342 343 344 344 344 343 343 344 344 345 345 345 346 347 347 347 349 350 349 350 351 351 351 352 352 352 351 351 351 352 351 351 351 351 350 349 348 345 342 343 345 348 348 348 347 346 346 346 346
335 336 337 339 340 341 342 340 340 339 335 333 333 334 334 335 336 338 339 340 341 342 342 343 343 343 343 343 343 344 345 346 347 348 349 350 350 350 351 351 351 352 351 351 351 350 350 350 350 349 348 347 347 346 347 347 348 349 349 348 347 346 346
334 335 335 336 338 340 340 339 339 336 331 327 326 325 324 325 326 328 330 334 337 339 340 340 341 341 340 341 341 341 341 341 342 343 345 346 346 347 348 348 348 350 350 350 351 351 350 350 350 349 348 347 348 349 348 348 347 347 348 350 349 348 346
332 332 333 333 334 335 335 333 332 329 327 326 324 323 322 321 320 320 321 324 328 332 335 336 337 338 338 337 338 337 336 337 338 339 340 341 341 342 343 343 344 345 346 347 348 349 349 350 350 350 349 349 350 350 350 350 350 348 348 349 350 350 349
331 330 331 331 331 331 330 329 328 328 328 327 326 325 324 322 321 320 319 319 320 321 324 325 326 329 330 332 334 334 332 331 334 337 339 338 338 339 339 340 341 341 341 342 344 346 347 348 350 350 350 350 351 351 351 352 353 351 350 350 351 352 351
329 329 330 329 328 329 328 327 327 327 327 325 324 325 324 322 320 318 317 318 318 317 317 317 318 320 323 326 328 329 327 327 331 335 337 336 337 337 338 339 339 339 338 339 340 342 343 345 347 348 350 351 351 351 351 352 352 352 352 352 352 352 352
327 327 326 326 326 327 327 325 324 323 322 321 321 323 323 319 317 315 314 314 314 314 314 314 315 316 318 320 321 322 322 323 326 331 333 334 333 333 335 337 338 337 337 338 338 338 338 340 343 345 347 348 348 347 347 348 351 351 352 352 352 352 352
326 325 324 324 325 325 324 324 321 319 318 317 317 319 319 316 314 313 312 312 312 312 312 312 312 313 315 316 318 319 319 319 319 322 325 326 327 326 329 334 337 337 337 338 339 339 338 337 337 338 339 340 342 341 340 342 345 347 349 350 351 351 352
325 324 323 322 323 322 322 321 319 316 315 314 315 315 314 312 311 310 309 309 309 310 311 312 313 313 313 313 314 315 316 317 318 318 317 318 319 321 325 331 335 337 337 337 338 340 339 338 335 333 332 332 333 333 331 332 334 337 341 345 346 348 349
324 323 321 321 320 319 318 318 317 315 314 313 312 311 310 310 309 308 308 308 308 308 309 310 311 313 313 313 313 313 313 314 315 316 316 315 316 318 323 328 332 334 335 336 337 337 338 338 337 335 333 329 326 326 325 326 326 328 331 335 337 340 343
322 321 320 319 319 318 317 316 315 314 313 311 310 309 308 308 308 308 308 307 308 307 307 307 308 308 309 311 312 313 314 314 314 314 314 314 314 315 319 325 329 331 332 333 333 333 333 334 334 333 330 327 324 322 323 323 324 324 325 326 328 330 333
320 320 320 319 318 317 316 316 315 313 312 311 309 309 308 308 308 308 308 308 308 308 307 307 307 307 307 307 308 309 312 314 316 316 316 315 314 313 315 319 324 327 328 328 328 329 329 328 327 326 324 321 320 319 319 320 320 321 322 322 323 324 326
319 319 319 318 318 317 316 315 314 312 311 310 309 308 308 307 307 307 307 308 308 308 308 308 307 307 307 307 306 306 307 309 312 316 318 319 318 317 316 317 318 319 322 323 324 324 324 322 321 319 318 317 317 316 316 316 317 317 318 319 320 322 323
319 319 318 317 317 316 315 314 313 311 309 308 307 307 307 306 307 307 307 307 307 307 308 308 308 307 307 307 307 307 306 306 307 310 314 318 320 321 320 320 319 318 317 318 318 318 318 316 315 315 314 314 314 314 315 315 315 315 315 316 318 319 321
318 317 317 316 315 315 314 313 312 311 310 308 307 306 306 306 306 306 306 307 307 307 307 307 308 308 308 307 307 307 307 307 307 307 309 314 319 321 321 321 321 320 318 318 317 316 316 315 315 315 314 314 314 314 314 314 313 313 314 314 315 316 318
317 317 316 316 315 314 314 313 312 312 311 310 309 307 306 306 306 306 307 306 306 306 307 308 309 309 309 309 308 308 308 308 308 308 309 313 318 321 322 322 321 321 320 319 318 318 317 317 317 317 317 316 315 314 314 314 314 314 314 314 315 315 317
317 317 316 315 315 314 314 313 312 312 311 311 310 308 307 306 306 306 306 306 306 306 307 308 310 310 310 310 310 310 310 310 309 309 311 315 318 320 321 322 322 321 321 320 319 319 319 320 320 319 318 318 317 315 315 315 315 316 317 317 317 316 316
317 316 316 315 315 314 313 313 313 312 311 311 310 309 307 307 306 307 307 307 307 306 306 307 309 310 310 311 312 312 313 312 312 311 312 315 318 320 321 321 321 321 321 321 319 319 319 320 321 320 319 318 317 316 315 315 316 316 317 317 318 318 317
317 316 316 315 314 313 313 313 313 313 312 312 311 310 309 309 309 309 308 308 307 306 306 306 308 310 311 311 312 313 314 314 314 314 314 315 316 318 319 320 320 320 320 320 319 318 318 318 319 320 320 319 318 317 316 316 316 316 316 316 316 317 317